GFSGL_sfc_thetae_000.txt.gz
Theta_e
296 295 295 294 294 294 294 294 294 294 293 293 293 293 292 292 293 293 293 294 293 294 296 297 298 299 299 298 298 296 295 295 293 296 298 300 302 302 303 305 307 307 306
295 294 294 294 293 293 293 293 294 292 293 292 292 291 291 291 291 291 291 292 291 292 293 294 294 296 297 298 298 295 295 296 294 293 297 298 299 302 303 301 303 305 306
294 293 293 292 293 293 293 293 293 292 292 291 290 289 289 289 289 290 290 290 291 291 292 292 293 293 294 296 296 295 295 294 296 295 294 297 298 301 299 299 298 299 303
293 292 292 292 292 293 292 292 292 291 289 289 289 289 289 288 288 289 289 289 289 288 289 290 290 291 292 292 293 294 294 294 295 294 293 294 296 298 298 295 293 295 294
292 292 292 293 293 292 291 291 290 289 288 288 287 288 288 288 287 288 287 286 285 285 287 287 288 289 289 290 291 292 293 293 293 293 294 295 295 296 293 295 294 291 290
293 292 292 291 291 290 290 289 288 287 287 287 287 287 287 286 286 285 284 283 283 283 284 286 287 288 288 287 287 288 289 290 289 292 292 293 294 296 297 294 290 287 287
291 291 290 290 289 289 288 287 286 286 286 286 286 286 286 286 285 283 283 283 283 284 284 285 286 287 287 287 287 286 286 287 286 289 290 293 293 297 297 294 291 292 289
290 289 289 289 288 287 286 285 285 285 285 285 285 286 285 284 283 283 282 283 284 284 284 285 285 286 287 287 287 287 288 290 289 289 290 293 296 298 298 297 293 290 287
288 288 288 287 286 285 284 284 284 284 284 285 285 284 283 283 283 282 282 283 283 283 284 285 285 285 286 286 286 285 286 288 290 289 290 290 290 291 292 299 289 287 283
288 287 287 287 285 284 283 283 284 284 284 284 283 283 282 283 282 282 282 283 282 283 284 286 284 285 285 285 285 285 284 286 288 288 288 290 290 292 289 294 292 289 284
287 287 286 285 284 283 283 284 283 284 283 282 282 283 283 283 284 283 284 283 284 284 284 286 288 285 285 285 285 286 286 287 287 288 288 288 289 292 292 291 292 293 286
286 286 285 284 283 282 283 283 283 283 282 281 282 283 286 286 286 286 285 284 284 284 284 285 286 284 283 285 284 284 284 285 288 288 288 287 287 288 291 294 292 292 293
285 285 284 283 282 282 282 282 282 282 280 280 281 282 284 286 287 285 284 284 283 282 284 283 281 282 282 283 285 284 284 286 286 286 288 288 289 290 291 290 284 284 284
284 283 283 281 280 282 282 282 282 280 279 279 280 282 283 284 284 285 285 285 284 284 283 284 283 282 284 286 286 285 285 286 286 287 288 289 291 286 285 285 282 280 278
282 282 281 280 280 280 281 281 281 281 280 279 280 281 281 281 282 283 282 282 282 282 281 283 283 282 283 285 286 285 286 286 287 289 288 286 286 283 282 283 282 281 279
281 281 280 280 280 281 281 281 282 281 280 280 280 281 281 281 282 283 282 281 281 281 282 281 281 281 280 281 282 284 286 285 287 287 287 286 284 283 281 281 282 282 278
279 279 280 280 280 280 279 279 278 281 281 281 280 280 280 281 282 282 282 282 281 282 281 280 280 279 279 279 279 280 281 282 283 283 283 284 284 283 282 282 281 281 278
278 278 279 280 280 280 279 278 278 277 277 279 281 279 279 281 282 281 282 283 281 282 281 280 279 279 279 279 278 278 279 281 281 281 281 281 281 281 281 280 280 279 278
279 280 279 280 280 279 279 279 278 278 278 278 278 279 280 280 282 282 282 281 281 280 280 280 280 280 279 278 278 278 278 278 280 280 280 280 281 280 279 280 279 278 278
280 277 277 279 279 279 279 278 277 277 277 277 277 276 277 279 279 279 280 281 281 280 281 280 280 280 279 279 279 280 279 278 278 279 280 280 280 279 277 276 276 277 277
281 280 276 279 279 279 278 277 277 277 277 277 276 276 276 277 277 277 277 278 279 279 280 281 282 281 281 281 280 279 278 278 278 279 279 279 279 278 278 278 277 276 274
280 279 279 278 278 278 277 277 277 277 277 276 276 276 276 276 276 276 276 277 277 278 280 280 280 280 280 280 280 279 279 278 278 278 278 278 278 278 277 277 276 275 274
280 278 278 278 278 277 277 277 276 277 276 276 276 275 275 275 274 274 274 275 276 276 276 277 278 278 280 280 280 280 278 278 278 279 278 278 278 278 278 277 276 275 275
280 278 277 277 277 277 276 276 276 275 275 275 275 275 274 274 274 273 274 274 275 274 275 275 275 275 276 278 279 279 279 280 280 280 279 278 277 277 277 276 276 274 274
279 278 277 277 276 276 276 275 275 275 275 274 274 274 274 273 273 273 273 273 273 273 273 273 274 274 274 273 274 274 275 277 278 279 280 279 277 277 276 276 275 274 273
278 277 277 277 277 276 276 275 274 274 274 274 273 273 273 272 272 272 272 271 272 271 272 272 272 271 272 272 271 271 271 272 274 277 279 278 277 276 276 274 273 273 272

GFSGL_sfc_thetae_006.txt.gz
Theta_e
303 303 300 299 299 297 296 296 295 296 295 295 294 293 293 292 292 291 290 291 290 290 291 291 291 292 291 292 293 293 292 292 289 292 295 295 293 293 296 302 303 303 305
301 299 298 297 296 295 295 295 296 295 295 294 293 293 292 291 291 290 289 289 289 288 289 289 289 291 290 291 291 291 291 292 291 289 292 293 292 292 293 294 301 303 300
298 297 296 295 295 294 295 295 294 294 293 293 292 291 291 290 289 289 289 288 288 288 288 288 288 288 288 289 289 289 290 292 291 290 290 293 293 291 290 291 293 298 300
297 296 295 294 295 295 295 294 294 293 292 291 291 290 290 289 289 289 288 287 287 287 288 288 287 287 286 286 287 287 288 287 288 289 289 290 291 292 290 288 288 292 293
296 295 296 297 296 295 294 293 293 292 291 290 289 288 288 288 288 287 286 285 285 285 285 285 285 286 288 287 286 285 285 285 286 286 287 288 288 288 287 288 287 288 290
296 297 297 296 295 293 293 292 291 290 289 288 287 287 286 287 288 288 287 284 283 283 283 283 284 285 285 286 286 286 285 283 283 283 284 285 286 288 288 287 286 284 288
297 295 294 295 293 292 291 290 289 287 287 286 286 286 285 285 288 287 286 283 282 282 281 282 282 284 285 284 285 286 286 286 284 283 281 283 284 286 288 286 285 285 289
294 294 295 293 291 290 290 288 286 285 285 284 284 284 284 284 286 285 285 282 282 282 282 282 282 282 283 284 283 283 284 286 286 286 284 284 285 286 287 289 287 286 287
293 292 291 290 289 289 287 285 285 284 284 284 283 283 282 282 285 285 284 282 282 282 283 283 283 282 284 285 284 283 282 283 287 289 288 288 288 287 287 287 284 285 285
292 291 290 290 288 287 285 284 284 284 282 283 282 283 284 282 284 285 285 284 283 283 284 284 285 285 285 285 283 282 281 282 283 284 284 286 288 287 288 287 285 283 284
290 290 289 289 287 286 285 284 283 282 282 281 280 281 282 282 283 285 285 283 282 281 281 281 282 284 284 285 285 283 282 284 283 283 284 284 285 286 286 287 287 285 285
289 289 288 287 287 286 284 282 282 282 281 278 279 279 281 281 284 283 284 283 283 281 281 282 283 284 284 284 284 284 284 283 284 283 283 282 284 285 286 287 287 287 289
287 287 286 286 285 284 282 281 281 281 280 279 280 278 278 280 281 283 283 283 283 281 282 282 284 284 284 283 284 283 283 281 281 281 282 283 284 285 286 287 286 288 287
286 285 285 283 283 282 282 282 280 279 279 279 278 277 278 279 279 280 281 282 283 283 282 282 281 281 282 282 283 284 283 283 281 281 282 283 285 285 286 286 284 284 282
284 284 284 283 281 281 281 281 280 280 280 278 278 279 278 277 278 282 283 282 282 282 282 282 281 280 280 280 281 284 281 281 281 283 282 283 284 284 285 284 283 282 280
282 283 282 281 281 281 280 280 283 282 282 283 282 281 280 280 282 283 284 284 284 283 281 279 277 278 278 279 279 282 281 280 280 279 280 283 284 284 283 283 283 281 280
280 281 280 280 280 280 279 278 276 280 283 283 282 281 280 281 282 282 283 283 284 283 279 277 277 277 277 278 279 280 280 284 283 281 280 283 282 281 282 282 282 281 280
282 280 280 279 279 279 278 278 278 277 276 277 281 280 279 280 282 281 281 281 279 280 280 278 277 277 278 277 278 279 280 281 281 282 284 284 281 280 280 281 280 279 278
282 281 279 278 278 278 278 278 278 276 277 277 278 277 277 280 280 279 279 276 276 277 278 278 279 278 277 278 278 278 279 279 280 281 281 281 282 281 281 281 278 279 278
283 279 277 278 278 278 278 277 277 276 277 277 276 275 276 277 275 275 275 275 274 275 276 277 278 278 279 278 277 277 277 278 279 279 278 278 280 280 280 278 278 277 278
282 281 277 280 278 277 277 276 276 276 276 276 276 276 275 275 274 274 274 273 274 274 274 275 276 277 278 278 278 277 276 276 277 278 277 277 276 275 277 275 274 274 274
281 280 280 279 278 278 277 277 276 275 276 275 275 275 275 274 273 273 273 273 273 273 274 273 273 273 275 276 277 277 277 277 277 277 277 277 276 275 275 275 275 274 274
282 280 279 278 278 275 277 276 275 276 275 275 275 274 274 273 273 272 272 273 272 271 272 272 271 270 272 273 274 275 277 277 278 278 277 276 276 275 275 274 274 273 274
281 279 278 277 277 277 277 274 274 274 274 274 274 274 273 272 272 271 272 272 272 271 271 270 270 269 268 269 270 272 274 278 278 279 278 277 276 275 275 274 274 274 273
280 279 278 278 277 275 276 274 275 274 274 274 273 273 273 272 271 271 271 272 271 271 270 270 269 268 267 266 267 268 270 272 275 277 277 276 275 275 274 273 273 273 273
280 279 278 278 277 275 274 273 273 274 274 273 273 272 272 272 271 271 271 271 270 270 270 269 268 267 266 266 266 267 268 269 271 273 274 273 271 271 270 268 267 266 268

GFSGL_sfc_thetae_009.txt.gz
Theta_e
298 297 295 294 293 293 294 293 293 294 294 294 294 294 293 292 292 291 290 290 289 288 288 288 288 289 289 289 290 290 289 289 286 288 291 293 292 293 295 294 299 301 301
296 294 294 293 292 291 291 293 293 292 294 293 293 293 292 292 291 289 289 288 288 287 287 286 287 289 287 287 287 287 287 288 287 285 288 290 290 292 292 292 293 299 299
294 292 292 291 291 291 291 291 292 292 292 292 292 291 291 290 289 288 288 287 286 286 286 286 286 286 285 286 286 286 287 288 288 286 286 289 289 290 290 290 290 291 297
293 291 291 290 290 290 291 290 291 292 290 290 290 290 290 288 288 287 287 286 285 285 285 284 284 284 283 283 284 284 285 284 285 285 284 285 287 289 288 288 287 287 288
293 291 292 292 292 293 292 291 291 290 290 289 288 287 286 286 287 285 284 283 282 282 283 283 284 285 287 286 284 283 283 282 283 283 282 283 285 285 286 286 285 285 286
295 293 294 294 293 293 291 291 290 288 288 286 285 284 284 286 287 288 285 282 281 281 280 282 282 284 284 285 285 285 284 281 281 281 281 281 282 284 287 286 285 283 280
295 294 294 294 293 293 291 289 287 285 284 283 283 283 282 282 287 286 286 282 281 280 280 280 281 283 283 282 284 284 284 285 284 283 281 281 281 283 285 282 285 285 283
294 294 294 294 292 288 288 286 284 282 282 281 281 281 281 282 285 286 285 282 281 281 281 281 281 281 282 282 281 281 281 283 284 284 284 283 284 284 283 284 284 286 286
293 293 291 288 287 287 285 282 282 281 280 280 281 280 280 280 284 285 284 282 281 281 282 283 283 283 284 285 283 282 281 282 285 287 287 287 287 287 286 283 281 281 281
288 287 288 287 286 284 282 281 281 280 280 280 281 280 282 280 283 284 284 282 280 280 281 282 283 283 284 285 283 282 281 281 282 283 283 285 287 287 287 286 284 281 280
288 288 287 286 284 283 281 280 279 279 279 275 274 278 279 280 279 283 283 281 281 280 280 281 282 283 284 284 285 283 282 283 283 282 282 282 283 284 285 286 286 285 282
287 286 285 284 284 283 279 279 279 278 275 270 271 274 277 276 281 282 283 282 282 280 280 281 282 283 283 284 284 284 284 283 283 282 282 281 282 283 284 286 286 286 286
285 284 283 283 283 280 279 278 277 277 273 271 274 275 276 279 280 282 281 282 283 282 283 283 284 284 284 282 283 283 283 282 281 280 280 282 283 284 285 285 286 286 286
283 282 282 280 280 279 279 279 275 273 272 276 275 275 277 279 278 279 280 282 283 282 282 282 280 281 280 280 280 282 283 283 282 280 280 281 284 284 283 284 284 285 284
282 281 281 280 278 278 279 277 277 276 274 277 278 278 277 276 278 281 282 282 282 282 280 279 277 276 277 278 279 280 279 277 282 280 280 281 281 282 283 284 284 283 281
280 280 277 276 276 276 275 276 280 281 282 282 282 281 279 280 282 282 282 283 283 283 279 274 274 275 275 277 277 279 280 277 278 279 278 280 281 282 282 283 283 282 281
276 279 277 277 275 274 275 275 272 275 280 281 281 280 280 280 281 281 281 281 281 281 277 277 273 274 276 276 277 278 278 280 282 278 280 282 282 280 282 282 281 280 277
274 276 272 272 271 272 272 274 270 271 269 271 279 278 278 280 280 279 279 278 276 276 277 276 276 275 275 276 276 276 278 279 280 280 283 280 280 278 278 280 279 275 277
279 276 272 270 268 270 272 269 269 268 269 272 276 276 276 278 278 277 277 274 273 273 274 275 275 276 276 276 275 275 276 277 276 277 278 280 277 273 277 276 273 271 272
278 276 274 273 271 272 270 269 269 268 268 273 274 273 274 274 273 273 273 272 272 272 272 273 273 273 274 276 276 276 275 276 276 276 276 276 277 278 277 276 274 275 275
275 278 278 278 276 273 268 267 270 266 266 272 273 274 274 273 272 272 272 270 270 271 270 270 271 271 271 272 273 275 275 274 275 275 275 275 275 275 275 274 273 273 274
275 278 277 271 273 268 267 270 267 267 265 271 273 273 274 272 271 271 271 270 270 270 271 269 269 269 269 270 271 271 275 275 275 275 275 275 274 274 274 274 274 274 274
270 273 272 271 270 269 268 267 267 265 264 268 272 271 271 271 270 271 270 270 270 270 269 269 267 267 268 268 269 270 271 275 276 276 275 274 274 274 273 273 274 272 272
271 270 271 271 269 268 266 267 267 265 268 267 269 271 270 270 270 270 270 270 270 269 268 267 267 265 266 266 268 269 271 273 276 276 275 274 273 273 273 273 273 273 273
272 269 270 270 268 268 264 265 265 263 267 266 267 269 269 269 269 270 270 270 270 269 267 267 266 265 265 265 266 266 268 269 270 272 273 273 272 272 272 272 272 273 273
278 274 270 270 271 266 263 263 262 265 267 266 266 266 268 269 270 269 269 269 269 268 267 266 265 264 264 265 266 266 266 267 268 267 269 269 267 265 264 265 265 267 267

GFSGL_sfc_thetae_015.txt.gz
Theta_e
296 294 294 293 291 290 289 290 291 293 294 294 294 295 295 293 293 292 291 290 289 288 288 287 287 287 287 286 287 287 286 286 282 284 286 288 287 287 289 291 293 294 295
293 292 292 291 290 289 289 290 291 293 294 293 292 292 293 292 291 289 288 287 286 285 285 285 285 287 285 285 285 284 284 285 283 281 284 285 285 287 288 289 291 293 293
292 291 290 289 288 287 288 290 292 292 292 291 290 290 289 289 288 287 286 285 285 284 284 284 284 284 282 283 283 282 283 284 284 283 282 284 285 285 286 287 288 289 291
291 289 288 288 288 288 290 289 290 291 290 289 289 289 288 286 285 285 284 283 282 282 282 282 282 281 281 281 281 281 282 281 281 281 281 281 282 285 284 283 283 286 287
293 292 291 292 291 292 292 292 292 292 292 288 286 284 284 284 284 283 283 282 281 281 281 281 281 282 285 284 282 281 281 281 280 280 280 280 280 280 280 281 281 283 285
293 293 294 295 294 293 293 290 291 291 288 285 284 283 282 283 285 286 285 281 281 281 280 281 281 283 282 284 284 284 284 281 280 280 280 279 280 281 281 281 280 279 279
292 292 295 294 292 291 291 291 288 284 283 282 281 281 281 281 284 285 285 282 280 280 280 280 280 282 283 282 282 283 283 284 283 282 280 280 279 280 281 280 281 280 280
292 291 291 291 291 288 285 283 282 282 281 280 280 280 280 281 283 284 284 281 279 280 280 280 281 280 281 282 282 281 281 282 282 282 281 282 282 282 283 282 281 281 281
290 287 286 286 285 283 281 280 279 279 279 279 280 280 279 279 282 282 282 277 278 278 280 280 280 280 282 284 281 280 280 281 284 285 286 284 285 285 285 283 281 280 278
286 286 286 284 283 281 280 279 279 279 279 280 279 279 279 277 280 282 281 278 278 278 279 281 282 281 283 283 281 281 279 280 281 282 282 284 285 284 285 284 283 279 279
285 285 285 284 282 280 280 279 278 278 278 273 272 275 276 278 276 281 282 280 279 279 279 280 281 283 283 283 284 281 281 283 281 281 281 282 282 282 282 284 284 283 280
284 283 283 282 281 280 279 278 278 276 274 269 268 271 274 274 279 280 282 282 281 279 279 281 281 282 282 281 281 281 283 282 282 281 281 281 281 281 282 283 284 284 285
283 281 281 281 281 280 278 277 276 275 273 271 272 273 274 276 276 279 280 281 282 280 282 281 282 280 280 279 280 281 281 280 280 279 279 280 281 282 283 282 283 283 284
282 281 281 279 279 278 278 278 275 273 272 275 274 273 274 274 275 277 280 279 281 282 280 280 278 278 277 278 279 279 280 281 280 280 280 281 282 282 281 282 281 281 281
281 280 279 278 277 277 278 276 277 276 273 271 271 275 274 273 276 280 279 279 280 280 278 277 275 274 274 275 276 276 277 277 279 276 277 278 279 279 280 281 281 282 280
280 279 276 275 275 274 273 275 279 279 280 280 280 278 277 278 280 280 280 280 280 279 276 274 271 271 272 274 273 273 274 275 277 280 278 274 275 277 277 278 281 281 280
274 277 276 276 275 273 272 272 268 272 278 278 279 279 278 278 279 279 278 278 278 276 273 272 270 269 270 272 273 273 273 275 277 278 279 280 280 280 280 279 280 281 280
270 271 270 270 270 272 270 270 265 266 264 267 273 276 276 277 277 277 276 274 272 272 272 271 270 269 270 271 271 273 274 274 273 274 275 275 276 277 277 278 278 276 275
277 272 268 268 268 269 270 267 266 266 264 266 267 270 273 276 275 275 274 270 269 269 270 270 270 269 268 269 268 269 273 274 271 271 272 272 273 275 277 276 275 277 277
277 275 275 272 268 269 269 265 267 264 266 265 266 267 272 272 270 270 270 269 268 268 268 268 268 268 268 267 267 267 270 273 272 271 271 270 270 273 273 275 274 274 272
275 274 277 274 271 269 265 266 264 264 262 263 264 266 272 270 269 269 269 268 268 267 267 267 266 267 267 267 268 267 267 269 272 270 269 270 268 267 270 268 267 270 269
272 271 273 270 268 265 265 265 263 264 262 262 261 267 270 269 269 269 269 267 267 267 267 266 265 266 266 266 266 266 267 268 270 270 266 266 267 267 267 267 266 267 269
272 270 271 270 269 266 263 264 262 260 262 261 261 265 266 267 267 268 268 268 267 266 266 265 264 264 265 265 266 266 266 267 267 268 265 265 266 266 264 266 266 268 268
270 269 270 270 266 264 259 259 258 260 264 263 260 262 265 266 266 267 268 267 266 266 265 264 264 263 264 264 264 265 265 266 266 267 264 263 265 265 265 266 266 266 266
274 275 275 267 267 264 259 259 258 256 259 260 260 262 264 265 266 266 266 266 266 265 265 264 263 263 263 263 263 263 263 263 263 263 265 263 262 262 260 262 260 265 267
277 277 275 267 266 265 260 258 257 256 258 260 260 261 262 263 264 264 265 266 265 264 264 264 263 262 262 264 264 264 262 262 263 262 262 264 262 261 260 260 259 259 258

GFSGL_sfc_thetae_018.txt.gz
Theta_e
295 292 292 293 293 290 289 290 290 292 292 293 293 293 293 293 292 292 291 291 290 289 288 287 286 287 286 286 287 287 286 285 282 284 286 287 287 287 289 290 291 291 293
292 292 291 291 290 288 288 289 291 292 293 292 293 292 291 290 290 288 287 287 286 285 285 284 284 286 284 285 285 284 284 285 283 281 284 284 284 287 287 288 290 292 291
293 291 291 290 288 286 288 290 291 290 291 292 291 290 290 289 288 286 286 285 284 284 283 283 283 283 282 282 282 282 282 284 283 282 281 284 284 285 286 287 287 288 290
293 292 290 288 289 290 290 291 292 292 292 292 291 289 287 285 285 284 284 283 282 282 282 282 281 281 280 280 280 280 281 280 281 280 280 281 282 283 284 283 283 285 286
293 292 290 290 293 293 293 292 292 292 291 288 286 284 284 283 283 283 282 282 281 281 282 282 281 282 284 283 282 281 281 280 280 280 280 281 281 281 280 282 281 283 284
293 292 292 295 294 291 291 291 290 290 290 285 283 282 281 283 285 285 285 282 282 282 280 280 281 282 282 283 284 284 283 281 280 280 279 279 279 280 282 281 280 279 278
291 293 293 293 292 292 292 290 288 283 282 281 281 281 281 281 284 284 284 281 281 281 280 280 280 281 282 281 282 283 283 283 282 281 280 280 280 281 281 280 280 280 279
291 291 290 290 289 287 284 282 281 280 280 279 280 280 280 280 283 283 283 280 279 279 279 280 279 280 281 281 281 281 281 282 282 282 281 281 282 283 283 282 282 281 282
287 286 285 284 283 282 281 280 280 279 279 279 280 280 279 278 281 282 282 278 277 278 280 280 280 281 282 283 281 279 280 281 284 285 285 285 285 285 285 283 280 280 278
284 284 283 283 282 280 279 279 279 278 279 280 279 278 278 277 280 281 281 278 276 279 280 281 281 281 282 283 282 281 280 281 282 282 283 283 285 285 285 284 283 279 279
285 285 283 282 280 279 278 278 278 277 278 274 272 274 276 277 275 281 281 280 279 279 279 279 280 282 282 282 282 279 279 281 281 282 282 282 282 282 283 284 284 283 281
284 283 282 281 281 279 278 277 277 276 274 269 267 271 273 273 279 279 280 281 281 279 278 280 281 282 281 280 280 280 281 281 280 280 281 280 281 281 282 283 284 284 285
282 281 282 281 280 279 277 276 276 275 272 270 271 273 274 275 275 278 279 281 281 279 281 281 281 280 279 277 279 280 279 279 279 279 279 280 281 283 284 283 283 284 284
280 280 280 278 278 278 277 277 274 273 272 275 273 273 273 274 275 276 278 279 280 280 280 279 277 277 275 276 277 277 277 278 278 279 279 280 281 282 282 283 282 282 281
280 280 279 278 277 277 277 275 276 276 273 273 271 272 273 273 275 279 279 278 279 278 278 276 274 272 272 273 275 275 275 276 276 278 279 278 278 280 280 282 282 281 280
280 279 276 275 274 274 273 274 278 278 279 279 279 277 276 278 279 279 279 279 278 277 275 273 271 270 269 271 271 273 274 274 275 276 278 280 277 277 279 279 280 280 279
273 275 273 274 273 272 272 273 270 272 277 277 278 278 277 277 278 278 277 277 276 275 272 271 270 269 269 270 270 271 272 274 275 274 275 276 278 279 279 278 279 281 280
269 270 269 269 268 270 266 270 267 266 265 266 272 275 276 277 277 276 275 273 270 271 270 270 269 269 269 269 269 269 269 273 272 272 272 273 274 278 277 277 277 276 277
276 271 267 266 265 266 266 267 266 264 263 265 266 270 269 275 275 274 273 269 268 268 269 269 269 268 268 268 268 268 268 271 271 270 271 270 272 275 276 277 276 277 277
278 274 271 270 267 268 266 265 266 265 265 264 265 266 269 270 269 268 269 268 267 267 267 267 267 268 267 268 268 268 268 268 271 270 269 269 270 271 271 272 271 271 272
274 274 271 270 270 267 267 264 265 265 265 263 264 260 268 269 268 268 268 267 267 266 266 266 266 266 267 267 267 266 267 268 269 270 269 268 266 267 269 268 269 270 271
277 274 272 270 269 265 266 263 262 262 263 261 262 262 267 267 268 267 267 267 267 267 267 266 265 265 265 265 265 265 265 266 267 267 268 267 266 266 266 267 267 269 270
278 272 270 270 268 264 262 261 259 257 261 259 259 262 264 265 266 267 265 266 266 266 266 265 264 264 264 264 264 265 264 264 264 265 266 264 266 265 265 267 267 267 267
273 267 267 267 262 263 259 258 257 259 260 260 256 259 262 264 265 265 266 264 265 265 264 264 264 263 264 264 264 264 264 264 263 263 262 262 264 263 264 266 267 265 266
276 276 274 268 262 262 261 260 257 254 254 256 256 258 262 262 265 263 265 265 265 264 264 264 263 263 263 264 263 262 261 261 262 261 263 262 261 261 260 262 261 263 264
277 277 276 269 265 263 263 263 260 255 255 256 256 257 261 261 262 262 265 266 266 265 265 264 263 262 263 264 264 263 260 260 261 261 261 263 261 260 260 260 260 261 261

GFSGL_sfc_thetae_021.txt.gz
Theta_e
303 300 301 300 299 297 295 296 296 298 299 298 296 296 295 294 295 296 295 295 294 293 293 292 291 292 290 290 291 290 289 289 285 288 290 292 292 292 292 294 294 294 294
300 300 300 299 296 294 294 295 297 296 296 296 296 294 293 293 294 293 291 291 290 289 289 289 289 288 289 289 289 288 288 289 287 285 288 288 289 291 291 291 291 292 293
300 299 299 296 294 294 295 295 296 295 294 294 293 292 293 292 290 289 289 288 288 288 288 287 287 287 286 286 286 286 286 286 286 285 284 287 288 289 288 289 290 291 291
299 298 297 294 295 295 294 294 294 294 294 294 293 291 289 288 288 288 288 288 287 287 287 286 286 285 285 284 284 284 284 284 285 284 284 284 285 287 287 286 286 289 289
297 297 296 295 296 295 295 295 295 295 294 294 290 287 287 286 286 286 286 286 286 285 286 286 286 285 285 284 284 284 284 283 282 281 281 282 283 283 283 285 285 287 288
296 296 295 295 295 295 294 295 295 295 293 289 287 286 286 285 284 285 285 285 284 283 283 284 284 284 284 283 283 283 283 282 281 282 281 281 282 283 284 284 284 283 282
294 295 294 293 293 293 291 289 287 287 287 286 285 285 285 285 283 283 283 283 283 283 283 283 283 283 284 284 283 283 283 283 282 282 281 281 282 283 284 283 283 283 283
292 292 291 289 288 288 287 287 286 286 285 284 284 284 284 283 282 282 282 284 283 283 283 283 283 283 282 282 282 282 283 284 284 284 284 284 285 285 285 284 284 284 286
289 288 288 287 287 286 285 285 285 285 284 284 284 283 282 282 281 281 282 283 282 282 283 282 282 282 283 283 283 282 283 284 285 286 286 286 286 285 286 285 283 282 282
288 288 288 286 286 285 284 284 284 284 283 283 282 282 281 281 281 281 282 282 281 281 282 283 283 283 282 283 283 282 280 281 282 283 283 284 286 286 285 286 286 282 282
290 288 286 286 285 284 284 284 283 283 282 281 280 281 281 281 281 281 281 281 280 281 281 281 283 283 283 283 281 281 281 282 282 282 283 283 284 285 286 287 286 285 283
287 286 286 285 284 283 283 283 282 282 281 280 279 280 281 281 280 280 280 280 281 280 280 282 283 281 280 280 280 280 280 281 282 282 282 282 283 284 285 286 287 287 288
286 285 284 284 283 283 282 281 281 281 280 279 279 278 279 280 280 279 280 280 280 280 282 281 280 279 278 279 279 279 279 280 280 281 282 283 284 285 286 286 286 286 286
285 284 284 283 283 283 283 282 281 281 279 278 278 278 278 278 279 280 280 281 280 281 280 281 278 277 277 277 279 279 280 280 279 280 281 283 285 284 284 285 284 285 283
284 283 283 283 282 282 281 281 281 281 279 279 278 278 277 276 277 279 279 279 279 278 279 278 276 275 276 276 277 277 279 279 279 279 281 282 283 284 283 284 284 284 282
283 282 282 282 282 281 280 280 280 279 279 279 278 278 278 278 278 278 278 278 277 277 276 274 273 274 274 274 275 275 277 277 278 278 279 281 281 282 282 283 283 282 282
281 281 281 279 281 280 279 279 277 279 277 277 277 277 277 277 277 277 276 276 275 275 273 272 272 272 273 274 274 274 274 276 277 277 278 278 280 282 282 282 283 283 282
280 276 280 281 281 280 279 278 277 276 275 276 276 275 275 276 276 275 274 273 272 272 271 271 271 271 271 272 273 273 274 276 276 276 277 277 278 279 281 281 281 282 283
281 282 281 280 280 278 279 278 277 276 276 275 275 275 274 274 274 273 273 271 270 270 270 270 270 271 271 271 272 272 273 274 275 275 276 276 277 278 278 279 280 279 280
281 281 279 281 280 279 279 277 276 276 275 274 274 272 273 273 272 271 271 270 270 269 269 269 269 270 270 271 271 272 273 274 274 275 275 276 276 277 277 277 278 279 279
282 281 278 280 280 279 278 277 276 275 274 274 273 272 270 271 271 270 271 270 269 268 268 269 269 269 270 270 271 271 271 272 273 273 274 275 275 275 277 278 278 278 278
281 280 279 279 279 279 278 277 276 274 274 273 273 273 270 272 271 271 270 269 269 269 269 269 268 269 269 268 269 270 270 270 271 271 273 274 276 276 277 277 277 277 277
280 280 279 279 279 276 277 277 275 275 274 274 273 272 272 271 271 271 270 269 269 268 268 268 268 268 268 269 269 269 268 269 269 270 271 273 275 275 276 276 275 275 275
280 279 278 279 278 278 277 276 275 271 272 273 273 273 272 271 271 270 270 270 269 269 268 268 268 267 268 268 268 268 268 268 269 270 270 271 273 273 274 274 274 274 274
280 280 280 280 279 278 276 276 275 274 274 273 273 273 273 272 271 271 271 271 269 269 268 267 267 267 267 267 267 266 264 264 266 266 271 271 270 270 270 271 271 273 272
281 281 281 281 279 279 277 276 276 275 273 274 273 273 273 272 271 271 271 270 270 269 268 268 267 266 267 268 267 266 264 264 265 265 269 271 269 269 270 270 269 271 271

GFSGL_sfc_thetae_024.txt.gz
Theta_e
309 307 307 306 305 303 301 301 301 301 299 297 297 295 294 294 295 295 295 295 294 294 294 293 293 294 293 293 293 292 291 290 287 290 292 294 294 294 295 296 297 296 297
305 305 304 304 303 301 300 300 300 298 298 296 294 294 295 295 295 295 294 293 292 292 292 292 291 290 291 292 291 291 291 291 289 287 290 291 292 294 294 294 293 294 295
302 302 302 302 300 299 299 298 297 297 297 297 297 296 295 294 293 293 292 292 292 291 291 290 290 290 290 290 290 289 289 289 289 288 287 290 291 292 291 292 292 293 293
301 300 300 299 297 297 298 297 298 298 297 297 296 295 295 293 292 291 290 290 290 290 290 290 289 289 289 288 288 288 287 287 288 287 287 287 289 290 291 289 289 292 291
299 298 297 300 297 296 295 295 297 297 296 296 294 293 292 291 289 288 288 288 288 288 288 288 288 288 286 286 286 286 287 286 286 284 283 284 285 285 285 287 286 288 290
298 297 296 297 296 296 297 295 294 293 292 292 291 291 290 289 285 284 285 286 286 286 286 287 287 287 287 286 285 285 284 283 282 282 282 282 283 285 286 285 286 286 284
296 295 295 294 294 293 293 292 292 291 291 290 290 290 289 289 284 283 283 285 286 286 287 286 286 286 286 285 284 284 284 283 283 283 282 282 283 284 285 284 285 285 285
294 294 293 293 292 292 291 291 291 290 290 289 289 288 288 287 284 283 282 285 286 286 286 286 285 284 284 283 283 283 284 284 285 285 285 286 286 286 286 286 286 286 287
293 292 292 292 291 290 290 289 289 289 288 288 287 287 286 286 284 282 282 284 284 284 283 284 284 284 284 284 284 283 284 285 286 286 286 286 286 286 286 287 285 284 284
292 292 292 291 290 289 289 288 288 288 287 287 285 286 284 284 283 282 282 283 281 282 283 284 284 284 283 283 283 283 282 282 283 285 285 286 286 286 285 287 287 283 284
293 292 292 291 290 289 288 288 287 287 286 285 284 283 283 283 283 282 281 281 281 280 281 282 284 283 282 281 281 282 281 282 282 283 284 285 286 286 287 288 288 287 284
293 291 291 290 288 287 288 287 287 286 284 284 282 283 284 284 282 281 281 281 281 281 281 283 284 281 280 280 280 281 280 280 283 283 284 285 285 286 287 288 288 288 289
291 290 289 288 288 288 287 286 285 284 282 281 281 280 281 282 282 281 280 281 280 281 282 281 281 280 279 280 280 279 280 282 281 281 282 283 285 286 286 287 288 288 288
289 289 288 287 286 288 287 286 284 282 281 280 280 279 280 280 281 280 281 281 280 281 280 282 280 279 280 280 281 281 282 282 281 281 282 284 286 287 285 287 286 287 285
288 287 287 286 286 286 285 284 283 283 281 280 280 279 278 278 278 279 279 278 279 278 279 280 279 278 278 279 279 280 281 281 280 282 282 283 284 286 284 285 284 285 284
286 286 286 286 286 285 284 283 282 280 279 279 278 278 279 278 278 278 278 277 277 277 278 276 276 275 276 277 278 278 279 279 279 280 281 282 281 284 284 285 284 284 283
285 285 285 284 284 283 282 281 280 282 279 278 277 277 276 276 277 277 276 276 276 276 275 275 274 274 275 276 276 277 277 278 279 279 280 280 280 281 282 283 284 285 284
284 282 284 284 283 282 282 281 281 279 278 280 279 276 276 276 275 275 275 276 275 275 274 273 273 274 274 274 275 275 276 277 278 278 279 279 279 280 280 280 281 282 283
284 283 283 283 283 282 282 281 280 279 279 279 279 278 277 276 275 275 274 274 273 273 272 273 273 273 274 274 275 275 276 277 277 277 278 278 279 279 279 280 280 280 281
283 282 282 282 282 282 281 280 279 279 279 278 278 277 276 276 275 274 274 274 273 273 272 272 273 273 273 274 274 275 276 276 276 276 277 278 278 279 279 279 280 280 280
283 282 282 282 282 281 280 280 279 279 278 278 278 276 272 274 274 274 273 272 272 272 272 272 272 273 273 273 273 274 275 275 275 276 276 277 278 278 279 280 280 280 280
282 281 281 281 282 281 281 280 279 278 278 278 278 277 272 276 274 274 273 272 272 272 272 272 272 272 272 272 272 273 273 274 274 274 275 276 277 278 278 279 279 279 279
282 282 281 281 281 280 281 280 279 279 278 278 277 277 277 275 275 274 273 273 272 272 271 271 272 271 272 272 273 273 272 272 273 274 274 275 277 277 277 277 277 277 277
282 282 281 281 282 281 281 280 280 278 278 278 278 277 277 276 275 274 274 274 273 273 272 271 271 270 270 271 272 272 271 270 272 273 274 275 275 276 277 276 277 276 276
283 283 282 282 282 282 281 280 280 279 279 278 278 277 277 276 275 275 275 274 273 272 271 271 270 270 269 269 269 269 268 268 269 269 274 274 274 274 274 275 275 276 275
283 282 283 283 282 282 281 280 280 280 279 279 278 277 277 276 275 275 274 274 273 272 271 271 270 269 269 270 269 268 267 267 268 268 273 274 273 272 273 273 273 274 274

GFSGL_sfc_thetae_027.txt.gz
Theta_e
305 305 305 305 305 305 303 302 302 301 299 299 299 297 296 297 297 297 297 296 294 294 294 294 293 294 294 293 294 294 293 292 288 290 292 295 296 296 296 298 298 298 298
302 302 302 303 303 302 301 299 300 300 300 299 298 298 297 297 296 295 294 293 293 292 293 293 291 291 291 292 291 291 291 291 290 288 291 291 293 295 295 296 294 295 297
301 301 301 301 301 300 300 300 299 299 298 298 297 297 296 295 294 294 293 292 292 291 291 290 290 290 289 290 290 290 290 289 290 289 288 291 292 293 293 294 294 295 294
301 300 299 300 300 299 299 295 298 298 297 297 297 295 294 293 292 292 292 290 290 290 290 290 289 289 289 289 289 289 288 288 288 288 288 289 290 291 292 290 290 293 293
299 299 298 298 298 299 298 297 297 297 295 294 293 293 293 292 290 290 289 288 287 287 288 289 289 290 288 287 286 286 286 285 286 286 286 287 287 286 287 289 288 290 291
299 298 297 296 295 295 296 295 294 293 293 293 292 291 291 290 285 284 285 286 285 286 286 287 289 289 288 287 287 286 285 283 282 283 283 283 284 285 286 286 287 286 284
297 297 295 295 294 294 294 293 293 292 292 291 291 290 290 290 284 284 284 285 284 285 286 287 286 287 287 287 286 285 285 285 283 283 282 282 283 285 285 285 285 286 285
296 296 295 294 293 293 292 291 291 291 290 290 289 289 289 288 285 283 283 284 285 285 286 285 285 285 286 285 284 284 284 285 286 286 285 285 286 288 287 287 287 287 288
294 294 293 293 292 291 291 290 290 290 289 289 288 288 286 286 286 283 283 283 283 283 283 284 284 284 285 285 284 283 283 285 287 287 287 287 286 286 287 286 284 282 283
293 293 293 292 291 291 290 289 290 289 288 288 287 286 285 284 285 283 283 283 281 282 283 283 283 284 284 284 284 282 281 282 284 284 285 286 286 287 286 286 285 282 282
294 294 293 292 291 291 290 290 289 288 288 287 285 286 285 285 285 284 282 282 282 282 281 282 284 284 282 282 281 281 281 283 282 282 283 285 286 287 288 288 288 286 283
295 293 292 291 291 289 289 289 288 287 286 286 285 285 285 285 284 283 281 281 282 281 280 283 284 282 281 281 280 281 281 281 282 283 283 284 285 287 288 289 289 289 289
293 292 291 291 290 289 288 288 286 286 285 283 282 282 283 283 284 283 281 281 280 281 282 281 281 281 281 281 282 281 280 281 283 282 282 283 285 287 288 288 289 289 289
291 291 290 289 288 288 288 287 285 285 282 281 281 280 281 280 281 281 280 280 280 280 280 280 281 280 281 281 282 282 283 283 282 282 282 284 286 287 287 287 286 287 286
290 289 289 288 288 287 287 286 285 285 283 281 280 279 278 278 279 279 279 278 278 278 278 280 279 278 278 279 280 281 282 282 281 282 282 283 283 284 286 287 286 285 284
287 287 287 287 286 286 285 285 285 282 280 280 279 278 279 278 278 278 278 277 277 277 277 277 276 276 275 277 277 278 280 279 279 280 281 281 281 282 282 285 286 285 284
286 286 286 285 285 284 284 283 281 283 282 281 279 278 277 276 277 277 277 277 277 277 276 275 275 274 275 275 277 277 277 279 280 279 280 280 280 280 281 282 283 284 284
286 284 285 285 284 283 283 282 281 281 280 281 280 278 277 277 277 276 276 277 276 276 275 274 274 274 275 274 275 275 276 278 278 278 279 280 280 280 281 280 280 281 281
285 284 284 284 284 283 283 283 282 281 280 280 281 280 280 278 278 277 277 275 274 274 274 274 274 274 274 274 275 276 277 277 277 277 278 279 279 280 280 280 280 281 281
285 283 283 283 283 283 283 282 281 281 280 280 280 280 279 276 277 276 276 275 274 273 273 273 273 274 274 274 275 275 276 276 276 276 277 278 279 280 279 280 280 280 280
284 284 283 283 282 283 282 281 281 281 279 280 280 279 274 275 276 275 275 274 274 273 273 273 274 274 274 274 273 274 274 275 275 275 276 277 279 278 279 280 280 280 280
283 282 282 282 282 282 282 281 281 280 280 279 280 280 276 277 277 276 275 275 275 274 273 273 273 273 273 273 273 273 273 273 273 274 274 276 278 278 278 279 279 279 278
284 283 282 282 283 282 282 282 282 282 281 280 280 279 279 278 277 276 276 275 275 274 274 273 272 271 272 273 273 273 271 270 271 273 273 275 276 276 278 277 277 277 277
283 283 282 283 283 283 283 283 282 281 281 280 280 279 279 278 277 276 276 276 275 275 274 273 272 271 271 271 272 272 271 270 270 271 272 275 274 275 276 276 276 276 276
284 283 283 283 283 283 283 283 282 282 282 281 280 279 279 278 277 277 277 276 275 274 273 272 272 271 271 271 270 269 268 268 269 269 272 274 273 273 274 274 274 276 275
284 284 283 284 283 283 283 282 282 282 282 281 281 280 279 278 277 277 276 275 274 274 273 272 272 271 271 272 270 268 267 267 267 268 272 273 272 272 271 273 272 273 273

GFSGL_sfc_thetae_030.txt.gz
Theta_e
301 301 301 302 302 302 301 299 299 299 299 298 298 296 296 297 296 294 293 293 293 293 292 292 291 292 291 291 290 291 291 290 286 288 290 291 291 291 293 294 296 294 293
300 300 300 301 301 300 299 299 299 298 298 298 297 297 297 295 295 293 292 292 291 290 290 289 289 290 287 288 288 287 287 288 286 284 286 287 289 290 291 291 293 294 292
299 299 299 299 299 299 298 298 298 297 297 297 296 295 295 295 293 291 290 290 289 287 287 287 287 287 286 286 287 287 287 288 286 285 284 285 286 287 288 288 289 289 292
299 298 298 298 297 297 297 297 296 296 296 295 294 293 292 291 290 290 289 287 286 286 286 286 286 286 285 285 284 283 285 283 283 282 283 284 284 286 286 285 284 287 287
298 298 297 297 296 296 296 296 295 294 294 293 292 291 290 290 287 285 285 284 284 283 284 285 286 288 290 287 285 283 282 281 281 281 280 281 282 282 282 283 282 282 284
297 297 297 296 296 296 295 294 294 293 292 291 289 289 289 289 285 285 284 282 283 282 281 283 285 287 287 288 288 287 285 281 279 279 279 278 280 281 282 281 281 280 280
296 296 297 296 295 294 294 293 291 291 290 288 288 288 287 287 285 285 284 282 281 281 282 282 283 285 285 284 284 285 285 285 283 281 279 280 279 281 281 281 280 281 281
295 294 295 294 293 293 293 291 290 288 287 286 286 287 285 286 287 284 284 281 280 281 281 281 281 281 282 283 282 281 283 283 284 285 284 282 283 284 285 285 285 284 284
294 294 293 293 292 292 290 290 288 287 286 286 286 285 283 283 285 286 283 280 280 279 280 281 281 281 283 285 282 280 281 281 286 287 287 287 287 287 286 284 280 279 278
295 294 294 293 292 291 290 288 287 287 286 286 284 284 285 282 286 285 284 281 277 279 279 281 282 282 283 282 281 280 278 279 280 282 282 282 284 284 285 284 283 280 279
296 295 294 294 292 291 289 288 287 285 284 283 283 283 283 284 282 285 283 279 279 278 278 278 280 282 281 282 282 279 279 281 281 280 280 281 282 283 284 285 286 284 281
295 294 293 292 291 290 288 287 286 284 283 280 279 280 282 283 284 283 282 281 280 277 277 278 280 281 282 281 281 281 282 281 279 279 279 281 282 283 285 286 286 287 286
293 293 292 291 290 289 286 285 283 283 281 279 280 279 280 280 280 282 280 279 279 277 278 279 279 280 281 281 281 282 282 280 279 280 280 281 282 282 284 285 285 285 284
291 291 290 288 288 287 287 285 282 281 280 281 280 277 276 277 277 277 277 277 278 278 277 277 278 280 279 279 280 281 281 281 280 280 280 281 283 282 282 286 280 279 279
289 288 287 287 286 285 284 283 282 282 280 278 277 276 273 273 276 277 277 276 276 277 276 277 277 276 276 276 277 278 279 279 278 279 279 280 280 281 280 280 284 281 277
286 286 286 285 284 283 282 283 284 283 282 282 281 277 275 278 278 278 278 278 278 278 276 275 274 274 273 274 275 275 277 277 277 278 278 279 278 278 279 280 279 279 281
284 284 284 284 283 283 282 282 281 283 284 283 282 281 279 278 278 278 278 277 278 278 274 273 273 273 273 274 274 274 274 276 278 277 278 277 278 278 278 279 280 278 276
284 283 283 284 283 282 282 281 281 280 279 280 282 281 279 279 278 279 278 277 274 275 273 273 272 273 273 273 273 274 274 276 275 275 276 277 276 277 279 278 279 278 280
284 284 284 283 283 283 282 282 282 281 280 280 280 278 279 278 278 278 278 272 272 272 272 272 273 273 273 273 273 273 273 274 274 274 274 275 276 278 277 278 278 278 279
285 282 282 282 282 282 282 281 281 280 280 279 279 278 274 272 270 271 273 271 271 269 270 271 272 272 272 272 272 272 272 272 272 272 272 273 275 277 276 277 277 277 278
284 283 281 281 282 282 282 281 281 280 279 279 279 275 270 270 271 270 273 271 269 267 268 270 271 271 271 271 272 271 271 270 270 270 270 271 274 274 275 277 275 277 277
282 282 282 282 282 281 281 281 280 280 280 279 279 277 271 271 275 270 270 271 270 268 269 269 270 270 271 270 271 270 269 268 267 268 268 270 272 273 274 274 275 270 273
283 282 282 282 282 282 282 281 281 281 281 279 278 278 277 276 274 271 269 272 272 270 268 268 269 269 269 269 270 270 268 267 267 268 267 268 271 271 272 271 271 272 268
282 282 281 282 282 282 282 282 282 281 280 280 280 279 277 277 272 270 269 269 269 272 267 268 269 269 269 267 267 268 268 266 267 267 266 268 270 270 270 269 270 271 266
283 283 283 282 282 282 282 281 282 282 281 281 280 280 276 277 273 272 270 270 269 267 266 266 268 269 268 268 267 266 265 266 265 265 267 269 268 267 267 267 266 269 265
283 283 282 283 282 282 282 282 281 282 281 281 281 278 278 274 273 272 270 269 268 267 266 266 268 268 268 269 267 267 266 265 265 265 266 269 267 265 264 265 264 265 266

GFSGL_sfc_thetae_033.txt.gz
Theta_e
295 296 296 296 297 297 297 296 296 295 294 294 295 296 296 296 296 293 292 291 291 290 289 289 288 289 287 287 288 287 288 289 285 287 289 291 288 289 291 293 295 294 294
295 295 295 295 296 296 295 295 295 294 295 295 297 296 295 294 294 293 290 289 287 285 285 284 285 287 284 285 285 284 284 284 283 281 282 284 285 287 287 288 291 293 293
295 295 294 294 294 294 294 294 294 294 294 293 294 294 293 292 290 288 287 286 285 284 284 284 283 283 283 283 284 283 283 285 282 280 280 282 283 284 286 286 286 287 290
294 294 294 293 293 293 293 293 293 294 293 292 291 291 290 288 287 286 285 283 283 283 283 283 283 283 282 283 284 283 283 281 280 279 279 280 281 283 284 282 282 284 285
293 293 293 293 293 292 292 292 292 291 290 290 289 288 287 286 285 283 282 281 281 281 281 282 282 284 287 287 285 283 281 279 278 278 278 278 278 278 279 280 279 280 281
293 292 293 293 292 292 291 290 290 289 290 288 287 286 284 285 286 285 283 280 280 280 279 280 281 283 284 285 286 285 284 281 280 279 279 277 278 279 280 278 278 277 277
293 294 294 293 293 291 291 291 289 287 285 286 285 284 283 282 286 285 285 280 279 278 278 279 279 281 282 282 283 284 284 285 283 281 278 278 278 280 280 279 278 277 278
294 293 293 292 292 292 292 290 287 285 284 284 283 283 282 284 286 286 286 280 279 279 279 279 278 279 280 281 280 280 281 282 283 283 282 281 282 282 282 283 282 283 283
292 292 292 293 292 292 290 287 285 285 283 283 283 282 281 281 285 286 284 279 279 279 280 279 279 279 281 283 281 278 279 280 284 285 286 286 286 286 287 285 281 280 278
291 292 293 293 292 289 290 287 285 284 284 283 282 282 284 280 284 285 282 275 275 278 278 279 280 280 281 282 280 279 276 277 278 279 280 282 283 283 284 283 281 279 279
291 292 292 291 291 291 287 285 285 282 281 280 279 280 281 282 280 283 282 279 277 277 276 277 278 280 280 281 282 280 279 280 280 280 279 279 280 281 282 283 284 282 280
290 291 291 290 291 289 284 284 282 281 279 273 270 273 276 278 281 281 280 279 279 274 275 276 278 280 281 281 281 282 282 281 280 278 278 279 279 281 283 283 284 286 286
289 288 288 289 288 286 283 281 280 279 276 274 274 272 271 277 275 279 278 278 278 275 276 278 279 280 279 279 280 280 280 280 280 279 279 279 280 282 283 283 286 284 283
287 287 287 285 285 283 283 282 277 275 274 277 274 270 268 274 273 274 275 273 277 276 277 277 277 278 277 277 278 278 279 278 278 277 278 279 281 280 278 281 280 282 276
285 286 285 283 283 281 281 279 279 278 277 273 273 271 266 264 272 278 277 276 276 277 276 276 275 274 274 275 275 276 277 277 277 277 277 278 279 279 279 279 277 277 277
283 284 283 281 280 278 277 278 283 282 282 283 283 275 271 277 279 279 279 279 278 278 275 272 271 272 272 273 273 274 275 275 276 276 277 277 276 277 278 279 277 274 273
282 282 279 280 278 277 277 277 275 279 284 284 284 283 281 279 279 279 279 278 277 276 272 272 270 271 272 272 272 273 273 275 276 275 275 275 276 277 277 275 276 276 273
282 283 282 282 281 280 279 280 279 276 273 273 280 280 280 279 279 279 278 275 269 270 271 271 270 271 272 271 272 272 272 273 272 273 273 273 273 276 275 275 275 274 276
283 282 281 280 280 280 280 279 277 278 276 276 274 274 275 278 278 278 277 266 265 266 268 270 271 271 271 271 270 270 270 270 270 270 270 271 272 274 274 276 275 274 274
280 279 280 280 279 279 279 275 277 277 276 273 273 270 270 269 262 261 261 261 261 263 263 267 270 271 270 270 270 269 269 268 267 268 268 269 270 273 273 274 274 274 273
278 280 279 279 279 279 275 277 276 275 276 273 269 270 268 266 263 266 263 262 262 262 260 264 266 267 268 269 270 268 268 265 266 266 266 267 268 270 271 272 273 273 273
277 276 280 279 280 279 278 278 274 270 270 273 274 270 267 263 265 266 263 262 261 262 262 262 265 267 267 268 268 266 266 265 265 265 265 266 267 269 269 270 270 268 268
272 276 279 279 279 277 279 278 277 270 273 273 270 269 267 266 265 265 263 261 262 261 261 262 261 266 265 265 265 266 264 264 264 265 264 265 267 268 268 268 268 267 263
276 275 278 279 273 277 277 274 273 273 272 271 269 270 268 269 266 265 262 260 261 260 259 260 262 265 267 264 264 265 266 264 264 264 263 265 266 267 266 267 267 262 261
275 272 274 280 279 278 279 279 278 274 275 273 276 270 269 266 266 264 262 261 261 259 260 259 260 263 266 265 265 265 264 265 264 264 264 265 264 265 265 265 263 264 260
273 270 273 277 278 278 278 271 269 272 277 277 272 270 272 270 266 264 262 262 261 260 260 259 260 263 265 266 265 266 265 264 264 265 265 265 263 263 263 262 262 261 261

GFSGL_sfc_thetae_036.txt.gz
Theta_e
296 295 294 294 295 295 294 294 294 293 293 293 294 294 294 292 293 292 291 291 289 287 285 284 284 286 284 284 284 284 283 284 282 283 286 288 286 285 287 289 293 294 294
294 294 294 293 295 294 294 294 293 292 293 293 293 293 292 292 291 289 287 286 284 283 283 283 284 284 282 282 282 281 282 283 281 279 281 282 282 283 284 284 287 289 290
294 293 293 292 293 293 293 293 293 293 292 292 292 291 290 288 286 285 284 283 282 282 282 282 282 282 280 281 281 281 282 284 281 280 279 280 281 282 282 284 284 285 288
293 292 291 291 292 291 292 292 292 292 291 290 290 289 287 285 285 284 283 281 281 281 282 281 281 280 280 280 282 281 282 280 279 278 278 279 279 281 280 280 279 281 282
292 291 291 291 291 292 291 291 293 292 291 290 287 286 285 284 284 282 281 280 280 280 280 280 281 282 283 283 282 282 281 279 279 279 278 278 277 277 277 278 278 278 279
292 292 293 292 292 291 292 291 292 291 291 287 285 285 284 285 286 285 283 280 280 280 278 279 279 281 280 282 283 284 283 280 279 278 279 278 278 277 278 277 277 275 274
292 293 292 292 291 290 290 290 291 289 287 285 285 284 282 282 286 286 286 282 279 278 278 278 279 281 280 280 281 282 282 283 282 281 280 279 278 278 278 277 276 276 276
291 291 291 291 290 290 290 289 287 287 285 284 282 282 281 282 285 286 286 281 279 279 279 279 278 278 278 279 279 280 280 280 281 281 281 280 280 281 280 281 280 278 280
289 290 291 291 290 290 290 289 289 287 283 282 283 281 280 280 284 285 281 277 278 277 279 279 278 277 280 281 280 278 279 279 282 283 283 284 285 285 284 283 281 280 279
289 289 290 291 290 289 288 287 287 283 283 282 282 281 283 279 282 283 281 276 270 276 277 277 279 278 280 280 279 278 277 278 278 278 278 280 281 281 283 281 280 277 277
289 289 291 290 289 291 288 285 282 282 281 280 278 279 280 279 278 281 280 274 275 276 275 275 276 279 281 281 281 279 279 280 280 280 280 279 279 280 281 282 282 281 280
288 288 288 287 288 288 283 282 282 281 279 272 268 272 275 277 280 279 279 279 278 273 274 275 277 280 279 279 279 280 281 280 279 279 278 278 279 280 282 283 284 285 285
287 287 286 286 286 285 282 280 280 279 275 273 272 271 270 276 274 279 278 278 278 275 276 278 279 278 278 277 279 279 278 278 277 276 277 279 280 282 282 282 284 284 284
286 285 284 286 283 283 282 282 278 274 273 277 273 270 267 273 273 274 275 272 276 277 276 276 276 276 276 276 276 277 277 277 277 276 277 278 280 280 279 280 279 277 278
286 284 283 284 283 282 281 278 279 278 276 272 272 271 264 264 271 277 278 276 275 277 271 270 273 273 273 274 274 275 276 276 275 276 276 277 277 278 279 278 275 275 275
284 282 283 281 279 279 278 279 282 282 282 284 283 274 270 276 279 280 279 278 277 276 270 266 269 270 270 272 271 272 273 274 274 275 274 274 275 276 277 276 274 272 271
283 283 282 281 280 280 280 280 272 277 282 282 283 283 283 279 279 280 279 277 276 274 265 266 267 269 270 271 271 271 271 272 273 272 272 272 273 274 275 273 274 274 272
283 283 282 281 279 278 278 279 278 272 269 271 278 280 281 279 279 278 277 274 267 268 266 264 267 269 270 270 270 270 270 270 269 269 270 270 271 272 273 274 274 272 271
283 281 280 278 279 278 279 278 273 277 276 275 271 272 272 279 277 277 276 264 263 264 265 265 264 269 269 269 268 268 266 266 266 265 267 268 269 271 271 273 272 272 269
282 279 279 279 278 278 278 272 276 277 277 276 268 268 269 269 262 260 258 257 258 262 261 264 264 266 266 267 267 266 266 265 265 265 264 265 266 269 270 271 271 269 270
281 280 279 279 277 278 277 271 273 274 274 271 270 268 267 266 263 260 262 260 260 260 259 261 260 260 264 265 267 266 265 262 264 264 264 265 264 266 268 268 268 268 269
274 274 275 275 278 277 276 277 277 269 271 272 272 268 266 261 264 264 262 263 261 261 261 260 261 262 264 266 266 261 263 261 261 263 263 264 265 267 267 266 266 263 265
271 270 273 277 277 274 276 276 272 274 272 273 272 271 266 267 268 267 265 263 260 259 259 259 257 260 261 262 263 265 263 262 263 261 262 263 264 266 264 263 264 264 261
275 272 272 273 277 274 276 270 270 269 270 271 269 269 267 268 270 270 264 260 257 257 256 257 259 261 262 260 262 263 265 262 263 263 262 261 263 264 263 263 264 263 260
278 274 273 272 274 278 275 275 274 272 272 273 274 270 268 265 269 268 263 260 261 257 258 257 257 260 259 260 263 264 263 265 263 263 263 263 261 262 262 262 261 263 260
280 276 275 272 271 273 277 274 271 267 267 270 272 270 268 268 268 264 263 262 263 261 257 257 258 259 260 261 263 265 264 263 263 264 263 264 262 262 261 261 261 261 259

GFSGL_sfc_thetae_042.txt.gz
Theta_e
291 292 292 292 292 293 292 292 292 291 291 290 291 291 291 290 290 289 288 286 284 283 282 282 282 283 283 282 282 281 281 281 278 280 282 285 285 286 286 286 287 288 288
290 290 290 291 290 290 291 292 292 291 291 290 291 290 291 290 289 287 285 284 282 282 282 281 281 282 279 279 279 279 279 280 279 278 281 282 282 283 283 283 285 286 286
291 290 290 290 289 288 289 290 291 290 290 290 290 289 289 289 286 285 284 282 282 281 281 280 280 280 278 279 279 279 279 281 282 281 281 281 281 282 282 283 282 283 285
290 289 289 288 288 288 288 289 289 290 289 289 288 289 290 287 285 284 283 282 280 281 281 281 280 279 279 279 279 278 279 279 279 279 279 280 281 282 281 280 280 281 282
288 288 288 288 288 289 289 289 288 288 288 288 288 289 287 285 284 283 282 281 280 280 281 281 281 282 284 283 281 279 278 278 278 278 277 278 278 279 278 280 279 279 280
286 288 289 289 289 288 288 287 287 287 287 289 288 286 284 285 286 286 285 282 282 281 279 280 280 281 280 282 281 281 280 278 277 277 277 277 278 279 279 279 278 277 276
286 288 289 289 288 288 288 287 286 285 285 284 283 283 282 281 285 285 285 280 279 278 277 277 278 279 279 278 279 280 280 281 280 280 278 278 278 280 280 279 278 278 278
287 287 288 287 287 287 287 287 286 287 287 286 282 280 280 282 284 284 282 278 277 277 277 277 277 277 277 278 278 278 279 279 280 280 279 280 280 281 281 281 280 279 280
285 286 286 286 287 286 286 286 286 287 286 283 281 280 280 279 282 282 280 277 276 276 277 277 277 277 278 281 280 278 278 279 282 283 283 284 283 283 283 281 279 279 276
284 285 286 287 286 285 285 286 284 281 281 281 281 281 282 278 281 281 280 274 268 275 276 277 278 278 279 280 278 277 275 278 279 279 281 281 282 282 282 281 280 277 278
286 285 286 288 286 285 284 283 281 281 282 280 278 279 279 279 277 280 280 274 274 276 275 276 277 278 279 279 279 277 277 279 278 278 279 280 281 281 281 281 280 278 277
285 285 286 286 286 285 282 284 283 282 279 273 271 273 275 276 279 279 280 280 279 273 275 276 276 278 278 278 277 278 278 277 277 277 276 277 278 279 281 282 282 281 282
285 285 285 286 284 282 282 280 280 280 277 275 272 270 271 276 275 278 279 279 278 273 275 275 276 276 276 276 276 277 276 275 275 274 274 275 277 279 281 281 283 284 284
284 283 283 285 282 283 283 282 279 275 273 275 272 270 268 273 273 273 275 275 275 275 272 271 271 274 271 273 274 274 274 274 273 273 273 275 277 277 278 280 280 281 280
283 284 282 282 280 281 281 279 280 279 277 274 274 271 265 267 271 275 278 273 268 272 266 265 267 267 269 270 271 272 272 272 271 271 272 273 273 275 276 279 279 278 277
283 282 282 280 278 277 277 278 283 282 281 283 283 276 271 277 279 280 280 278 277 275 267 262 258 258 262 268 269 269 270 269 269 270 270 271 271 272 274 276 276 276 275
283 282 281 280 278 276 275 276 274 279 282 283 283 283 282 280 281 280 279 277 275 272 264 262 256 256 260 266 268 268 268 267 268 267 268 268 269 271 272 273 273 274 274
283 281 279 279 278 276 273 273 275 273 270 275 278 279 281 282 281 280 278 275 267 267 265 263 260 260 263 266 267 267 267 266 265 265 266 265 266 268 270 271 271 270 271
283 281 278 275 272 274 273 274 273 272 273 275 270 272 271 279 281 279 277 266 264 264 265 265 262 263 264 264 260 260 260 264 263 263 263 264 263 266 268 269 270 268 268
282 281 280 277 275 273 276 272 272 273 274 275 270 269 267 269 266 261 258 258 258 263 263 264 265 264 262 261 258 256 259 261 263 264 263 263 263 264 266 267 267 267 269
282 281 277 274 273 274 272 272 272 270 271 272 270 269 270 272 275 267 264 261 264 264 262 263 262 260 260 259 263 259 259 256 261 263 263 264 263 263 265 266 267 267 268
279 278 275 273 273 270 272 272 270 270 270 269 270 269 270 266 267 268 266 266 265 265 265 263 263 263 263 264 262 256 257 256 257 261 262 263 264 265 265 264 265 265 266
276 275 276 277 276 274 272 272 271 269 269 269 270 270 268 270 269 269 268 267 265 263 262 262 260 261 260 259 258 261 260 260 260 259 261 262 263 264 264 264 265 265 263
280 279 278 277 276 274 275 275 274 274 272 269 269 270 270 271 269 270 268 267 266 261 257 260 261 262 262 257 257 259 262 259 260 261 260 262 263 264 264 264 264 264 263
281 281 279 279 278 277 276 276 276 275 273 272 272 273 273 271 272 271 269 268 267 263 262 260 260 262 262 261 260 261 259 259 258 258 261 263 263 262 263 264 263 264 263
282 281 281 280 279 278 278 277 276 276 275 275 274 274 273 273 273 273 272 270 268 266 265 263 262 261 261 261 261 260 258 258 257 257 259 263 263 263 263 263 262 263 263

GFSGL_sfc_thetae_045.txt.gz
Theta_e
298 298 299 299 299 299 299 299 299 299 300 299 299 298 297 298 298 297 295 294 291 290 290 289 288 289 288 287 287 286 285 285 281 284 286 288 288 288 289 291 292 292 292
297 298 298 297 298 297 297 297 298 298 299 299 299 297 297 296 296 293 292 290 289 287 288 288 287 286 286 286 285 284 284 284 282 280 284 285 286 288 288 289 289 290 291
295 295 296 296 296 296 296 296 297 296 296 297 296 296 295 294 291 290 289 288 287 287 287 286 286 286 285 285 284 284 284 284 283 281 281 284 284 285 285 287 288 289 289
294 294 295 295 295 295 295 295 295 295 295 295 295 294 294 291 289 288 288 287 286 286 286 286 286 285 285 284 283 283 283 281 281 280 280 281 282 284 283 282 283 286 287
293 293 295 295 295 295 295 295 295 294 294 294 293 291 289 289 288 288 287 287 286 286 286 285 285 284 283 283 282 282 282 280 279 279 278 279 279 280 280 282 281 282 285
292 292 294 295 294 294 294 294 294 293 292 292 290 289 289 289 286 286 287 287 285 283 282 282 282 281 281 281 280 280 280 279 278 278 279 278 279 280 281 280 280 280 279
291 292 293 293 292 292 293 293 292 292 291 290 290 289 288 287 285 285 283 284 283 282 281 280 280 280 280 280 280 280 281 281 281 281 279 280 279 281 281 281 281 281 280
290 290 291 291 291 292 292 292 292 292 292 291 290 287 286 286 284 284 282 283 282 281 280 280 280 280 280 279 280 281 280 281 281 281 282 283 283 283 283 282 282 282 283
288 288 289 290 291 291 290 290 291 290 289 288 287 286 285 284 282 282 282 282 281 280 280 280 280 279 279 280 280 279 279 279 282 282 282 283 283 284 285 284 282 280 279
288 289 290 291 290 289 289 289 290 288 286 287 285 285 283 284 281 281 282 282 280 280 280 280 279 279 279 279 279 278 277 278 279 280 281 282 283 284 283 284 283 280 279
289 289 290 291 290 290 289 288 288 286 286 285 284 284 284 283 282 280 281 282 280 279 279 278 279 278 278 278 278 278 278 278 278 279 279 281 282 283 284 285 285 283 280
289 288 287 287 286 288 288 287 286 286 285 282 282 283 284 283 281 281 280 280 280 279 278 278 278 277 277 277 277 277 277 277 278 277 277 278 279 280 282 283 284 285 285
287 286 287 287 287 287 286 286 285 285 284 283 282 282 282 283 283 280 280 280 280 279 279 277 276 276 275 276 275 275 276 276 275 275 275 277 278 280 281 283 285 286 286
284 286 287 286 286 286 286 285 285 284 283 282 281 282 282 282 282 283 281 282 279 278 277 277 274 274 274 274 275 276 276 274 273 274 275 276 278 279 280 282 282 283 283
284 283 284 285 285 285 285 285 284 284 284 282 282 282 282 281 282 281 281 281 280 278 275 275 275 274 273 274 275 274 274 273 272 274 274 275 276 277 279 280 281 281 281
283 283 284 283 285 284 284 283 284 284 282 283 283 283 284 282 280 281 281 280 278 276 275 274 273 272 272 272 273 273 273 271 271 273 273 274 274 275 276 279 279 279 279
283 284 284 282 284 283 283 282 281 283 283 283 283 283 283 283 282 282 281 280 277 275 275 274 273 272 272 272 272 272 271 271 270 271 272 272 273 274 276 276 277 278 278
284 283 284 284 284 284 282 283 282 281 280 281 283 281 282 282 282 282 281 279 277 276 275 275 274 273 272 272 272 271 271 271 270 270 271 271 271 273 274 274 275 275 276
284 284 284 284 284 282 283 282 281 281 280 281 282 281 280 279 281 282 281 280 278 277 277 275 275 274 273 273 272 271 271 270 269 269 270 270 270 271 272 273 274 272 273
284 284 284 283 283 283 282 282 281 281 280 280 280 281 282 277 280 280 280 279 278 278 278 276 276 275 274 273 272 271 272 271 270 270 269 270 270 271 271 271 273 273 273
284 284 283 283 282 282 282 281 281 281 280 280 281 282 278 279 280 281 280 279 278 278 278 277 277 275 275 273 272 272 271 271 270 269 270 270 269 269 271 271 272 272 272
285 284 284 283 283 282 281 281 281 281 280 280 281 281 275 278 280 280 280 280 280 279 279 278 277 276 275 274 273 272 271 270 270 269 270 269 269 270 270 270 271 271 271
283 282 281 281 282 281 281 281 281 281 280 280 280 280 281 280 280 280 280 281 280 278 278 277 276 275 275 273 273 273 271 272 270 269 268 269 270 270 270 270 270 270 269
283 282 282 283 282 282 282 282 282 281 281 281 281 280 280 280 280 280 279 280 279 279 278 275 275 275 275 273 273 272 272 271 270 269 267 269 269 269 270 269 269 269 269
284 283 283 283 283 283 282 282 281 282 282 282 281 281 280 280 281 281 281 280 278 278 276 273 273 274 273 271 272 271 270 268 267 265 269 269 269 268 269 269 268 269 268
283 283 283 284 283 283 283 282 282 282 281 281 281 281 281 281 281 281 281 280 278 277 277 275 273 272 272 272 271 270 266 266 266 264 268 270 269 270 270 269 267 268 267

GFSGL_sfc_thetae_048.txt.gz
Theta_e
300 301 304 304 302 301 301 300 300 300 299 299 299 300 300 300 300 300 299 297 295 295 295 293 292 292 291 291 291 290 288 288 284 286 288 290 290 290 290 291 292 292 293
302 302 300 300 300 299 298 299 299 298 299 298 299 299 299 299 299 297 296 295 293 292 292 292 291 290 290 290 289 288 288 288 286 283 287 287 287 289 289 288 289 290 291
300 299 299 298 298 298 298 298 298 298 298 298 298 297 297 297 296 295 293 292 291 292 291 291 290 289 289 289 288 287 287 286 286 283 283 285 286 287 286 287 287 288 289
298 297 296 297 298 298 297 297 297 298 297 297 297 296 294 293 292 291 292 291 291 291 291 291 289 288 288 287 286 286 285 285 284 282 282 282 283 284 285 284 284 287 287
296 295 296 298 298 297 297 297 297 297 297 296 295 294 294 293 292 292 292 291 291 290 290 288 288 286 283 283 283 284 283 282 281 280 280 280 281 282 282 284 283 284 286
295 294 295 296 296 297 296 296 296 296 296 296 294 294 293 292 286 286 286 290 289 288 286 286 286 284 284 282 282 281 281 280 279 279 279 279 282 282 283 283 283 282 281
293 293 293 294 294 295 295 295 295 295 294 293 293 293 292 292 286 285 284 288 287 286 286 285 284 284 284 284 282 281 282 282 281 283 281 281 281 283 283 283 282 282 282
292 292 292 293 293 294 295 294 294 293 293 291 290 292 292 290 285 284 283 287 287 286 285 284 284 283 283 281 280 281 281 282 282 282 283 283 283 284 284 284 284 284 285
290 291 292 293 293 294 293 294 294 291 291 291 290 291 290 289 283 283 283 286 286 285 285 285 283 282 281 280 280 279 280 281 282 282 282 282 283 283 284 285 282 281 281
290 291 292 293 293 293 293 293 292 291 290 291 290 290 287 288 283 282 283 286 283 283 284 284 282 280 278 279 279 279 277 279 280 280 281 282 283 284 284 286 285 282 281
291 292 292 292 291 291 289 291 291 290 288 288 287 288 288 288 287 282 282 284 283 282 282 282 283 279 278 278 278 278 278 279 278 279 280 280 282 283 284 285 286 284 283
291 291 291 291 290 290 289 291 290 289 286 286 286 286 287 287 284 283 282 281 281 282 281 282 282 278 277 277 278 276 277 278 280 278 278 278 280 281 282 283 285 286 287
290 290 290 291 290 290 289 288 286 287 286 286 285 285 285 286 286 283 282 281 280 282 282 280 278 277 277 278 277 276 277 279 277 277 277 278 279 281 282 284 286 287 287
289 288 286 286 288 289 288 287 286 285 284 283 283 283 283 283 285 285 284 284 281 281 282 281 279 276 277 277 279 279 279 278 276 276 276 278 280 281 281 283 283 284 284
288 287 286 285 285 286 287 287 286 287 286 284 283 284 283 282 283 283 283 283 283 281 279 280 280 279 278 278 278 278 278 277 276 276 276 277 278 279 280 282 282 282 283
287 287 286 285 285 285 284 285 285 284 284 284 284 284 286 285 283 282 282 282 281 279 279 279 279 279 277 277 277 277 277 276 275 275 276 276 276 277 277 280 281 281 281
287 287 286 285 284 284 284 284 283 285 284 284 284 284 284 284 284 283 283 282 281 278 278 279 280 279 278 277 277 276 276 276 275 275 275 276 276 276 277 278 278 278 279
288 285 286 286 286 285 284 284 283 282 282 284 284 283 283 283 283 283 283 282 280 278 279 279 279 279 278 277 277 276 276 276 276 274 274 274 275 275 276 276 277 276 277
287 288 287 286 286 285 285 284 283 283 282 283 284 283 284 282 282 282 283 282 280 280 280 280 280 280 279 278 278 277 276 276 274 274 275 274 274 274 275 276 276 276 276
287 285 285 286 286 285 285 284 283 283 283 282 282 283 284 282 282 282 283 282 281 281 281 281 280 280 280 279 278 277 276 276 276 275 275 275 275 274 274 274 275 275 276
288 287 285 287 286 286 285 284 284 283 283 283 283 285 283 283 282 282 283 284 282 282 282 281 281 281 280 279 278 277 276 276 275 274 274 275 274 273 274 274 275 275 275
286 285 285 285 285 285 285 285 285 284 283 283 284 285 283 283 283 283 284 284 284 284 284 283 282 281 281 280 279 278 276 275 275 275 274 273 274 275 274 274 274 274 274
284 284 283 283 283 283 283 284 284 285 285 285 285 284 285 284 284 284 284 285 285 284 284 283 282 281 281 280 279 278 276 276 276 275 273 273 274 274 274 274 273 273 272
285 285 284 284 285 285 285 284 285 284 285 285 284 284 284 285 284 284 284 285 285 284 284 283 282 281 281 280 279 278 277 276 276 274 271 273 273 274 273 273 273 272 272
286 285 285 285 284 284 284 285 285 284 284 284 284 284 285 285 285 284 284 285 284 284 283 283 282 281 279 278 278 277 276 273 273 270 273 272 272 271 272 273 272 273 271
283 282 282 283 284 284 284 284 284 284 284 284 284 284 284 284 284 284 284 284 284 283 283 283 281 280 279 278 277 276 273 270 270 267 272 273 273 273 273 272 268 272 270

GFSGL_sfc_thetae_051.txt.gz
Theta_e
304 304 304 305 304 303 302 301 300 301 300 299 299 299 299 299 299 299 299 298 296 296 296 295 294 294 292 292 292 291 290 289 285 288 290 292 291 291 291 292 293 292 293
303 304 302 302 302 301 300 300 300 299 300 299 299 298 298 298 298 297 296 296 295 293 293 293 292 291 291 291 291 289 289 289 287 285 287 288 287 290 290 289 289 289 290
303 300 301 300 299 299 299 299 299 299 299 298 298 298 297 298 297 296 295 294 294 293 292 291 291 290 289 289 289 288 288 287 287 286 285 287 287 288 287 288 287 288 289
300 299 298 298 299 299 299 298 299 299 298 298 298 297 295 294 295 294 293 292 292 292 292 292 290 289 288 287 285 285 285 284 284 284 284 283 284 285 286 284 284 287 286
298 297 297 298 298 298 298 298 298 298 298 297 297 296 294 294 293 292 293 292 291 291 291 290 289 287 285 284 283 283 283 282 281 280 280 280 281 282 282 284 283 284 286
296 296 296 296 296 296 297 297 297 297 297 297 295 294 294 293 287 287 287 290 290 289 288 288 288 287 286 285 284 284 282 280 279 280 280 279 281 282 284 283 283 282 281
295 294 294 294 294 295 295 296 296 296 296 295 294 293 293 294 287 287 285 288 288 288 288 287 286 286 286 285 284 283 283 283 282 283 281 281 281 283 282 282 282 282 282
293 293 293 294 293 294 295 295 296 296 295 293 293 293 291 292 287 285 284 287 288 288 287 287 286 285 284 281 281 280 281 281 283 283 282 282 282 283 282 282 283 283 284
292 292 293 293 293 294 294 295 295 294 293 291 292 292 292 290 285 284 284 287 287 286 286 286 286 284 281 280 279 279 279 280 283 283 282 282 283 283 283 284 282 282 281
292 292 293 294 293 293 293 293 293 293 292 291 290 291 287 290 285 284 284 286 286 283 285 285 283 281 279 279 278 278 277 279 279 279 280 282 283 284 284 284 284 281 281
292 293 293 294 293 293 292 292 292 292 291 290 288 289 289 289 288 284 283 284 284 283 283 283 284 280 279 278 278 278 278 278 278 279 280 281 282 283 284 285 285 284 282
292 292 292 293 293 292 292 292 291 290 288 288 287 286 288 289 286 285 284 282 283 282 282 283 284 280 279 278 278 279 278 278 280 279 279 279 279 281 282 284 285 286 287
292 292 291 291 291 291 291 291 289 287 286 286 287 286 287 288 288 285 284 283 282 282 283 282 280 280 279 279 279 278 278 280 278 277 277 278 279 281 283 284 286 286 287
291 291 291 290 288 288 290 289 288 287 286 286 285 285 286 285 286 287 285 284 282 282 283 283 282 280 280 279 280 281 281 280 278 277 277 278 280 280 280 282 282 283 283
291 291 290 290 287 286 286 287 288 289 287 286 286 285 286 284 285 285 284 284 285 283 281 282 281 282 280 280 280 280 280 280 278 277 277 277 277 278 279 281 281 282 281
290 290 290 289 287 286 285 286 287 286 285 284 284 284 286 285 285 284 283 283 282 282 280 280 280 281 280 279 279 279 279 278 278 276 277 277 276 276 277 279 280 279 279
289 289 289 287 286 286 285 285 284 287 286 285 284 284 284 284 284 284 284 283 283 281 278 280 281 281 281 280 279 279 278 278 277 277 276 276 276 276 277 277 278 278 278
290 286 288 288 287 287 286 286 286 284 283 285 286 285 284 284 284 284 284 283 281 281 280 280 280 281 281 280 280 279 278 278 278 277 276 276 276 275 275 276 277 277 277
290 290 290 289 288 287 287 286 285 285 284 284 285 285 285 284 284 283 283 282 281 281 282 282 283 282 281 281 281 279 278 278 277 276 276 276 276 275 275 276 276 276 276
290 287 286 289 288 288 287 286 286 285 285 285 285 285 285 284 283 283 284 283 283 283 283 282 283 283 282 282 281 280 278 278 278 277 277 277 277 276 275 274 275 275 275
290 290 286 287 288 287 287 286 286 286 285 285 286 286 285 284 284 285 285 285 285 284 284 284 284 284 283 282 280 279 278 278 278 277 276 276 276 275 276 276 275 275 275
289 287 286 285 285 284 285 286 286 285 285 285 286 287 284 285 284 284 284 284 285 286 286 285 284 284 283 282 281 280 278 278 277 277 276 275 275 276 276 276 275 274 274
289 287 285 284 285 285 285 285 285 285 286 285 286 285 286 285 285 285 285 285 286 285 286 286 285 284 284 283 282 281 279 278 278 278 275 275 275 276 275 275 275 274 273
286 286 285 285 286 285 285 285 285 285 285 285 285 285 285 285 285 285 285 285 285 285 286 285 285 284 283 283 282 281 280 279 279 277 274 274 274 275 274 274 275 273 273
287 285 284 285 284 284 284 285 284 285 285 285 285 285 286 285 286 285 285 285 285 285 285 285 285 284 283 282 281 280 280 278 277 276 275 274 273 273 273 273 273 273 273
285 284 283 281 281 281 280 280 281 282 282 283 283 284 285 285 285 285 285 285 285 285 285 285 284 283 283 282 282 280 279 275 273 272 273 274 274 274 274 274 272 272 272

GFSGL_sfc_thetae_054.txt.gz
Theta_e
305 305 304 305 304 302 301 300 299 298 298 297 297 297 296 296 296 295 295 294 293 293 291 291 291 291 290 288 288 287 286 286 282 284 286 286 285 285 286 287 288 287 287
304 304 305 305 301 300 299 298 299 297 298 297 297 297 296 296 296 294 293 293 292 290 290 291 290 291 288 287 286 285 284 284 282 280 282 283 283 284 284 284 286 287 286
302 302 302 300 299 298 298 298 298 297 297 296 296 296 296 294 293 293 292 292 290 291 291 290 289 287 286 285 283 282 282 283 282 280 279 282 282 282 282 283 283 284 287
302 299 298 297 297 298 298 297 297 297 296 296 296 296 295 292 293 292 292 291 289 289 290 289 289 287 282 281 281 279 281 279 279 279 278 279 279 281 281 280 281 282 282
299 298 297 297 297 297 297 297 297 297 296 296 295 294 294 293 293 290 290 288 289 289 289 289 287 286 287 283 280 279 279 278 278 277 277 278 278 279 279 280 280 281 282
298 295 296 296 295 295 296 296 296 296 295 295 294 293 292 293 289 288 287 286 287 286 285 285 285 287 285 285 285 284 282 277 277 277 277 277 278 278 280 281 279 278 276
295 294 295 294 294 295 295 294 294 294 294 294 292 291 291 291 288 287 285 285 284 284 284 283 284 285 284 281 282 282 281 282 281 279 277 278 279 279 280 278 277 277 277
294 293 293 294 293 294 294 294 294 294 292 292 289 290 290 290 288 286 285 283 283 284 283 283 282 282 279 279 278 277 277 279 280 280 279 279 279 279 279 279 279 279 280
292 292 293 293 292 293 292 293 292 291 291 290 290 289 288 287 287 286 284 282 283 282 283 283 283 281 280 281 278 276 276 277 281 282 281 281 282 283 283 281 278 278 276
292 292 292 293 293 292 292 291 291 290 290 290 288 288 288 287 286 285 284 281 280 281 282 282 281 279 280 279 274 273 273 276 276 276 277 279 281 281 283 282 281 279 278
293 293 292 293 292 292 292 291 290 289 289 286 285 285 286 286 286 286 285 281 280 281 281 280 280 280 280 280 279 275 275 277 277 276 277 277 279 280 280 280 280 277 277
292 292 292 292 291 291 290 290 290 288 285 284 283 284 284 285 287 286 286 284 283 279 280 280 281 282 281 280 278 279 279 278 275 274 275 276 276 278 279 280 282 283 284
291 291 291 292 291 290 288 287 287 286 283 282 284 283 283 285 283 287 286 285 283 280 281 282 282 282 282 280 281 281 277 275 275 270 273 274 276 278 279 280 281 281 282
290 290 290 289 289 288 287 286 285 285 283 283 283 283 282 282 282 283 282 283 283 282 281 281 280 279 277 277 276 278 277 276 273 272 271 274 276 276 277 278 278 279 279
290 290 289 289 288 286 286 286 285 285 285 283 283 282 279 278 281 282 283 282 282 282 278 277 276 277 277 277 277 276 276 276 274 272 271 273 275 275 276 277 278 278 277
289 288 287 286 286 285 285 285 286 286 286 286 285 283 281 284 285 285 285 284 283 282 277 275 274 275 278 275 274 274 275 274 274 273 271 272 272 274 274 276 278 277 276
288 287 287 285 285 284 285 284 283 285 287 286 286 285 285 284 284 285 285 284 284 282 278 275 274 277 276 278 275 274 273 273 274 273 271 270 271 273 273 274 276 276 274
288 286 287 287 286 286 285 285 284 284 282 283 285 285 285 285 285 285 284 283 280 281 279 277 277 278 279 277 276 275 274 272 272 273 269 270 268 269 271 273 274 273 273
289 288 287 287 286 285 285 284 284 283 283 282 283 282 283 285 285 284 284 280 278 278 279 279 279 279 280 277 275 275 272 270 269 267 268 270 271 269 268 272 272 272 272
290 287 286 286 285 285 285 284 284 284 284 283 283 282 284 283 282 281 281 281 280 279 279 279 280 280 279 279 277 277 274 271 271 271 269 267 272 267 267 268 270 271 273
290 289 287 285 284 284 284 284 284 283 283 283 284 284 285 284 283 283 283 282 281 281 281 281 281 281 280 279 276 274 276 271 271 270 269 268 267 265 269 268 269 271 273
288 288 287 285 284 283 283 282 282 282 281 281 282 283 285 284 283 283 283 283 283 283 283 283 282 281 281 280 278 277 277 271 271 270 269 268 267 267 269 267 268 266 269
285 285 285 284 284 284 283 283 283 283 283 283 283 283 283 284 284 283 283 284 284 284 284 283 283 282 281 281 281 278 277 273 272 271 268 266 267 267 266 266 267 265 265
283 283 284 284 284 284 283 283 283 283 283 283 284 283 283 283 283 284 285 285 285 285 285 284 284 283 282 281 281 279 276 274 273 270 267 266 266 267 266 266 266 265 264
283 283 283 284 282 281 281 280 279 279 278 278 278 280 281 281 281 283 284 285 284 285 285 285 284 283 282 282 281 279 277 276 272 271 269 266 265 264 264 265 264 266 264
282 282 281 280 280 278 277 276 276 276 275 275 276 276 276 277 277 276 276 281 282 282 284 285 284 283 283 282 281 279 278 275 273 270 268 269 267 266 265 265 265 264 266

GFSGL_sfc_thetae_057.txt.gz
Theta_e
299 300 301 302 303 302 299 296 294 294 294 294 294 294 294 293 293 292 291 291 290 289 289 289 289 288 288 287 288 287 284 281 278 279 281 282 281 282 284 284 286 284 285
301 302 303 304 302 298 296 294 294 293 294 294 294 294 294 293 292 291 290 290 289 287 288 288 289 290 287 286 283 280 279 279 278 277 278 279 279 281 281 281 284 286 284
304 302 302 301 296 294 293 294 294 293 293 293 294 294 294 292 290 290 290 290 288 288 288 287 287 286 282 280 280 278 278 281 278 277 277 278 279 279 279 280 281 281 285
301 300 297 295 295 294 294 294 294 294 294 294 294 294 293 290 291 291 290 288 287 288 288 287 287 284 281 279 279 277 279 277 277 276 277 276 277 279 279 278 279 280 281
298 295 294 293 293 292 293 293 294 294 294 294 293 292 292 291 292 289 289 288 286 286 286 286 285 285 288 282 279 277 277 276 276 276 275 276 276 277 277 278 279 279 279
293 293 294 293 292 292 292 293 293 293 293 293 291 291 290 291 289 288 286 285 287 285 283 283 282 285 284 285 284 283 280 276 275 274 275 275 276 277 280 278 276 275 273
293 293 292 293 292 292 293 293 292 292 291 290 290 289 289 289 289 288 286 283 284 284 282 281 282 284 282 280 280 280 279 280 279 277 275 276 277 278 277 276 276 275 276
292 292 292 293 292 292 292 292 291 290 289 288 288 288 287 289 289 288 286 283 281 282 281 280 280 279 279 279 278 276 277 277 278 278 278 277 277 278 278 279 278 278 279
290 290 291 292 292 292 290 290 289 288 288 287 287 286 286 285 288 287 285 280 281 281 282 281 281 278 281 280 277 275 276 276 279 281 281 281 282 282 282 280 278 278 276
291 291 292 292 292 291 290 289 289 288 288 288 287 286 287 284 287 287 285 279 277 280 280 281 281 279 280 280 274 271 271 274 276 276 276 278 279 279 282 281 279 276 276
292 292 292 292 290 290 288 288 287 287 285 283 283 283 283 284 283 287 286 281 279 279 280 279 279 281 280 281 280 275 273 276 277 276 276 276 276 277 277 278 279 279 278
291 291 291 291 290 289 287 286 286 284 282 282 282 282 281 283 285 287 287 286 283 278 279 279 280 282 282 282 280 280 280 278 271 272 273 273 274 275 276 277 279 280 280
290 289 290 290 289 288 285 283 281 281 279 280 279 278 279 282 281 286 287 286 285 280 280 280 282 283 282 281 282 282 279 274 272 269 271 272 273 275 277 278 279 279 280
288 288 288 286 286 285 284 283 281 277 278 281 282 282 281 282 280 280 280 282 285 282 280 280 278 279 276 277 277 278 276 273 272 273 270 271 273 274 274 276 275 276 277
287 287 286 285 284 283 283 282 282 282 283 283 280 281 280 279 281 282 280 282 283 281 280 277 276 275 275 277 277 276 276 274 272 270 269 270 272 273 273 275 275 276 275
286 285 283 282 282 281 281 282 285 285 284 286 286 285 283 283 284 285 285 285 284 283 278 270 268 267 270 275 276 275 274 273 272 271 268 270 270 270 272 274 275 274 273
284 284 283 283 282 282 281 281 281 283 286 286 286 286 286 286 284 285 285 285 284 284 278 273 269 270 272 275 278 274 273 273 273 271 269 267 268 270 269 271 273 273 273
284 284 283 283 283 283 282 282 282 281 280 281 283 285 285 286 286 285 285 284 280 280 280 278 274 274 274 276 278 275 273 271 269 269 266 264 263 267 266 269 271 271 272
285 285 285 285 286 286 285 283 281 282 280 281 281 280 281 285 285 285 285 282 279 278 278 278 277 276 276 277 277 274 270 266 264 262 263 264 263 265 265 267 268 270 270
285 284 286 287 286 285 284 283 282 282 283 283 282 282 281 280 281 280 282 282 280 279 279 278 278 278 278 279 278 275 271 267 266 264 265 265 260 263 263 263 264 266 271
283 283 283 283 283 284 283 281 282 280 276 276 278 276 279 282 283 282 281 280 280 280 280 280 279 280 279 278 278 276 275 271 270 268 265 263 259 263 263 265 264 269 269
280 282 281 280 282 283 283 282 281 277 275 276 279 279 278 281 283 282 282 283 283 283 282 281 281 281 281 280 279 276 274 271 269 268 265 263 264 263 263 263 264 262 265
276 277 279 280 280 282 283 281 279 276 279 280 280 279 281 281 281 282 283 283 283 284 284 283 283 282 282 282 281 280 277 274 274 272 268 264 263 263 260 262 262 262 262
277 278 279 280 279 280 280 278 277 277 277 276 275 275 276 277 278 276 276 278 283 284 285 284 283 283 283 282 281 280 279 276 275 273 269 267 265 264 261 262 262 260 260
274 273 273 275 275 275 275 275 274 274 273 273 273 273 274 274 272 272 272 272 273 273 281 283 284 284 283 282 281 280 279 278 274 271 269 267 265 261 261 262 260 262 260
271 269 269 270 270 271 271 271 272 271 270 270 270 270 271 270 270 269 269 269 270 272 272 277 282 284 282 282 281 279 278 277 274 272 272 270 267 263 263 263 261 261 262

GFSGL_sfc_thetae_060.txt.gz
Theta_e
299 299 301 301 303 302 299 297 296 294 293 293 293 292 292 293 293 290 290 290 288 287 287 288 288 288 287 289 288 288 283 282 277 278 279 280 278 279 281 282 283 282 283
301 302 303 303 302 300 297 295 295 293 293 292 293 293 293 294 292 290 289 289 289 287 287 287 287 289 285 283 281 279 279 278 277 275 276 277 277 278 279 278 282 284 282
304 302 304 304 296 294 294 294 293 292 292 292 293 293 293 293 290 289 290 289 288 287 287 286 286 285 283 280 279 278 278 280 277 276 276 277 276 277 278 279 280 280 283
304 302 298 295 295 293 293 292 293 293 292 293 294 293 293 291 290 291 290 288 286 287 287 286 286 285 281 279 279 277 278 277 276 275 276 276 276 278 277 277 277 279 280
296 293 293 293 293 292 291 290 291 293 293 293 292 292 291 291 291 289 288 287 285 285 285 286 285 284 286 282 279 277 277 276 275 275 274 275 275 275 275 278 277 277 277
292 292 293 292 291 292 290 292 293 292 292 292 291 290 289 290 291 290 287 284 285 286 285 285 284 285 285 285 284 282 279 276 274 273 273 273 274 276 277 275 275 274 273
291 292 291 291 290 290 292 292 291 291 290 289 289 288 288 288 290 289 287 284 283 282 282 281 281 283 283 281 282 281 279 280 278 274 273 274 275 275 276 275 275 276 276
291 290 290 291 292 291 291 291 290 290 288 287 287 287 286 287 289 289 287 282 282 282 281 281 280 279 279 279 278 277 277 277 277 277 276 276 276 277 277 279 279 278 279
288 290 291 292 290 290 289 289 288 288 287 287 287 286 285 284 288 288 286 282 280 280 282 281 280 279 281 282 278 276 277 276 279 280 280 281 281 281 281 279 276 275 274
290 292 291 290 290 290 288 287 287 286 286 286 285 285 285 284 286 288 287 279 280 280 281 281 283 279 281 281 276 274 272 275 275 276 276 277 278 278 280 278 277 274 275
292 291 291 291 290 289 287 286 285 283 282 282 282 282 283 284 283 287 288 281 281 281 280 280 280 282 281 281 281 276 274 276 276 276 276 275 275 275 276 276 277 276 275
290 290 290 289 289 288 286 285 284 282 280 277 276 280 282 282 284 285 287 287 284 280 280 280 280 282 282 282 282 281 281 279 274 272 272 273 273 273 274 276 277 277 278
289 288 288 288 288 287 284 283 281 280 278 278 278 279 279 281 280 284 286 287 286 282 281 281 282 283 283 282 282 282 279 276 273 267 271 271 272 273 276 276 277 278 278
287 287 286 285 285 284 283 283 280 279 278 280 279 279 279 280 280 281 282 282 285 285 281 281 280 279 275 276 276 278 276 274 273 272 270 270 272 273 272 274 274 275 275
286 285 284 284 284 283 283 282 282 282 282 281 281 280 277 277 280 283 282 280 279 281 282 281 279 277 277 276 275 276 276 276 273 271 269 269 271 272 271 272 273 274 273
284 284 283 282 283 282 282 283 285 285 284 285 286 284 282 283 285 285 285 286 285 284 280 274 274 273 273 274 273 274 274 274 273 271 268 270 269 269 269 271 273 271 272
283 283 283 282 283 283 283 283 282 286 286 286 286 286 286 286 286 286 286 285 285 284 280 277 276 274 272 273 274 274 274 274 272 272 271 270 268 269 267 269 270 271 271
283 283 282 282 282 283 283 283 284 283 283 284 284 285 285 286 286 286 286 285 282 282 280 279 278 276 274 274 275 275 275 273 270 270 269 265 261 264 265 267 268 264 269
281 281 281 282 282 282 283 283 284 284 284 283 283 280 280 284 284 285 285 283 281 279 279 279 279 279 277 276 276 275 274 272 269 266 267 263 259 264 264 265 265 265 266
278 278 278 280 282 280 280 279 281 283 283 282 280 277 276 275 277 281 277 280 282 281 280 279 279 279 278 277 276 276 274 270 269 267 264 261 259 261 262 261 260 263 268
275 276 276 277 277 278 278 278 280 282 280 279 276 276 277 278 278 280 281 277 281 282 281 280 279 279 279 278 278 277 276 274 273 272 268 266 259 261 262 261 261 266 267
275 276 276 277 278 279 279 279 281 281 279 277 277 278 278 279 279 280 281 281 282 282 282 282 280 280 280 279 279 278 277 277 273 272 267 266 265 263 261 261 260 260 263
274 272 272 274 275 275 275 275 276 275 275 275 275 274 273 273 273 273 273 273 273 274 277 283 282 282 281 281 281 280 278 277 276 273 270 266 265 263 258 261 261 260 260
270 268 269 270 269 271 271 271 271 271 272 270 270 271 271 270 269 269 269 270 270 270 272 273 275 282 282 282 283 282 281 280 278 275 273 269 267 264 260 261 260 258 258
267 265 265 266 266 267 266 267 267 267 267 267 268 268 268 268 268 267 266 267 268 267 269 270 272 272 279 283 283 281 280 279 277 275 273 271 269 266 263 261 259 261 258
266 263 263 263 264 265 264 265 264 264 265 265 265 266 266 265 267 265 264 264 265 266 267 269 270 271 270 278 283 282 280 277 275 274 273 271 269 267 266 264 259 260 261

GFSGL_sfc_thetae_063.txt.gz
Theta_e
301 301 302 302 302 302 301 300 299 297 295 294 293 291 291 291 292 290 289 289 288 287 287 286 286 287 286 287 288 287 286 282 279 278 279 279 278 278 279 279 281 280 281
301 299 300 301 300 300 301 299 296 292 294 292 292 292 292 292 291 289 288 289 287 286 286 286 286 289 285 283 281 280 279 278 277 275 276 277 277 277 277 277 280 282 281
302 302 302 303 300 298 296 295 292 292 292 291 291 291 291 291 291 289 288 288 288 287 286 285 286 285 283 281 280 279 278 280 277 276 275 276 276 276 277 278 278 279 281
302 303 302 299 298 294 292 292 292 292 291 292 291 292 291 291 291 290 290 288 287 286 286 286 285 284 283 283 280 279 278 277 276 275 275 275 275 277 276 276 276 278 278
303 299 297 296 293 291 292 290 290 293 291 291 291 291 291 290 290 289 288 287 286 284 284 285 285 286 287 284 280 278 277 276 275 275 274 273 274 274 274 277 275 275 276
296 293 292 291 291 291 291 290 291 290 291 290 289 289 289 290 290 290 288 285 284 284 283 284 286 286 285 287 285 283 279 276 274 273 273 272 273 274 273 274 274 273 273
292 291 291 292 291 291 292 291 289 288 289 288 287 287 287 287 289 290 289 284 283 283 282 282 282 282 283 282 284 283 282 281 279 275 272 273 271 274 275 274 275 275 275
289 290 290 290 291 291 290 289 288 288 287 286 286 286 285 286 289 290 289 284 282 282 284 282 280 280 280 280 278 277 277 278 278 277 275 275 276 276 276 277 277 277 277
289 289 290 291 290 290 288 288 287 286 286 285 285 285 284 284 287 288 287 282 281 281 282 282 281 280 282 284 279 277 277 277 279 280 281 281 281 281 280 273 273 273 272
290 292 292 291 289 288 288 287 286 284 285 283 283 283 285 283 286 287 287 282 282 281 280 282 284 282 282 283 276 274 273 276 275 276 276 277 278 278 279 276 273 272 273
291 291 290 290 289 288 287 286 285 283 282 281 281 281 282 282 282 286 287 286 282 281 281 281 281 283 283 283 282 276 274 277 276 276 276 275 275 275 275 275 275 273 273
290 289 289 288 287 287 285 285 284 282 280 278 275 278 280 281 284 284 286 286 285 281 281 281 281 283 284 283 282 281 282 279 276 275 273 273 273 273 274 274 276 276 276
288 287 287 287 286 285 284 283 282 281 279 280 279 279 279 280 280 284 285 286 285 284 283 282 283 283 284 282 283 283 280 276 274 269 271 272 272 274 275 276 276 276 277
286 286 285 284 284 283 283 283 281 280 280 281 281 280 280 280 279 280 281 281 284 284 283 284 282 281 281 281 278 280 278 274 274 273 271 270 272 273 272 274 272 273 273
283 283 283 283 282 282 283 282 283 284 284 284 283 282 281 279 280 282 281 279 279 281 280 280 280 279 279 278 278 277 276 274 273 270 269 269 270 271 271 271 272 272 270
282 282 282 282 282 282 281 282 285 285 285 286 285 285 285 284 285 285 285 285 285 285 280 279 278 278 276 277 276 276 275 273 274 272 269 270 270 269 268 270 271 269 269
279 280 280 281 281 281 281 281 280 283 286 286 286 286 286 286 286 285 286 286 285 285 281 278 277 277 276 276 276 275 274 274 275 272 271 270 270 269 266 268 268 268 268
279 279 278 278 277 278 279 280 281 278 277 279 283 285 286 286 286 285 285 285 283 283 282 279 278 276 277 277 276 275 275 275 272 271 270 270 267 266 265 267 267 262 265
276 275 275 275 275 276 277 277 277 278 277 278 281 283 282 284 285 285 284 280 281 281 280 280 280 280 278 277 277 276 274 273 270 267 271 270 265 265 263 265 264 264 263
275 275 274 276 276 277 277 277 277 278 278 279 280 280 279 275 272 274 273 277 278 281 281 280 280 280 280 278 277 276 274 272 270 270 269 269 266 263 263 262 259 261 266
274 275 272 274 274 274 274 274 275 274 274 274 275 275 275 276 274 274 274 274 274 276 279 281 281 280 280 279 278 277 276 275 273 272 272 271 265 261 263 261 260 263 266
272 270 270 271 271 271 272 272 271 271 271 271 271 273 272 271 270 270 270 270 271 271 272 273 274 280 281 279 279 278 278 277 275 274 273 272 268 266 263 260 259 259 262
268 265 266 268 267 268 267 268 267 267 268 267 268 269 269 268 267 267 266 266 268 268 269 270 271 271 272 278 281 280 279 278 278 276 274 271 269 268 262 261 260 259 259
265 262 264 264 264 264 262 264 264 263 264 264 264 265 265 266 266 266 265 265 265 266 267 267 269 270 270 270 271 281 281 281 280 276 275 273 270 267 265 263 261 258 258
260 257 256 259 260 261 259 262 260 258 259 260 261 263 264 264 265 265 264 264 264 264 265 266 267 268 268 268 269 271 280 281 279 277 275 273 271 268 266 264 261 260 257
261 258 257 255 256 257 257 259 257 258 259 259 260 261 262 262 263 263 263 262 262 262 262 263 265 266 266 268 269 269 270 281 278 276 274 273 271 268 266 265 263 262 262

GFSGL_sfc_thetae_069.txt.gz
Theta_e
320 320 318 316 314 311 309 306 306 306 302 301 300 300 299 299 299 298 298 298 297 297 296 295 295 295 294 294 294 293 292 292 287 289 291 291 289 288 288 288 287 286 286
314 313 310 308 308 308 306 306 306 302 304 300 299 299 298 298 298 298 297 297 296 295 295 295 294 293 293 294 293 292 292 292 289 287 290 287 286 288 287 286 285 285 286
308 306 306 306 305 304 304 303 302 301 302 300 299 297 298 298 297 297 297 296 296 295 295 295 294 294 293 293 292 291 291 290 289 287 286 287 286 286 285 285 284 284 285
305 304 304 304 304 302 301 300 297 296 297 296 297 298 297 297 296 296 296 296 295 295 295 294 294 293 292 292 291 291 289 287 288 286 285 285 285 285 284 282 281 283 283
305 304 302 300 297 296 295 296 295 297 297 296 296 296 296 296 295 296 295 295 295 294 295 294 293 293 291 290 289 289 289 287 286 284 283 283 283 283 282 282 280 281 282
303 300 297 295 294 294 294 293 295 296 295 295 295 295 294 293 290 290 291 294 294 293 293 293 293 290 290 289 289 288 288 288 285 284 283 282 283 283 282 280 280 279 278
300 296 294 293 293 293 293 295 294 294 295 295 294 294 293 294 289 289 289 292 293 293 293 292 291 290 289 290 287 285 286 284 283 285 283 283 283 283 281 280 280 279 279
293 292 292 293 292 292 295 294 294 294 294 294 294 293 293 292 288 288 288 292 292 292 292 291 290 290 290 288 287 286 286 286 286 284 285 285 284 283 282 281 281 281 281
290 291 293 293 292 295 294 294 294 293 293 293 292 292 291 291 288 287 288 291 290 290 290 291 290 289 288 286 285 284 285 285 285 284 283 283 282 281 282 282 279 279 278
292 293 293 293 294 293 293 293 293 292 291 292 291 291 290 290 289 287 288 290 289 288 289 289 286 286 286 284 285 285 283 284 284 283 283 283 282 283 282 282 281 278 278
293 294 293 293 292 292 291 291 291 291 290 290 288 290 290 289 290 288 287 289 289 288 287 286 286 285 285 285 285 285 285 286 284 283 283 283 282 282 283 283 283 281 278
292 291 290 290 289 289 290 290 290 289 288 287 286 287 288 289 287 287 287 286 287 286 286 288 288 285 285 285 285 285 284 283 284 283 282 281 281 282 283 284 283 282 282
289 288 287 287 286 286 286 286 285 285 284 284 284 284 285 286 287 287 285 285 285 286 287 287 286 285 285 284 285 284 284 285 283 281 281 281 282 283 283 282 282 281 281
285 285 285 284 284 284 284 283 283 283 283 282 282 283 283 283 284 285 286 286 285 286 285 286 285 284 284 285 284 284 286 286 284 282 282 283 283 281 280 282 280 280 279
282 282 282 282 282 281 282 282 282 283 282 281 281 281 282 282 283 283 284 285 286 285 285 285 285 284 282 283 283 283 284 284 283 283 282 281 280 280 280 281 279 279 277
280 280 280 280 280 280 280 280 280 280 281 281 282 281 280 281 281 282 282 283 285 285 284 283 283 283 282 282 282 281 283 282 283 282 281 281 280 280 280 280 279 278 277
279 279 279 278 279 278 278 278 278 280 279 279 279 279 277 278 279 279 279 280 283 284 283 284 283 283 283 283 283 281 282 283 283 282 281 281 280 280 279 279 279 278 277
278 276 278 278 278 278 278 278 277 276 275 276 277 276 275 276 276 276 276 277 276 276 275 276 279 283 284 283 283 282 283 283 282 281 281 281 280 280 279 278 278 277 277
277 276 276 277 277 276 277 276 276 274 274 274 274 274 273 273 274 274 273 272 272 272 273 273 274 276 276 279 283 283 283 283 282 281 281 280 280 280 279 279 278 275 274
275 273 274 275 274 274 274 273 273 272 272 271 271 270 271 271 271 271 271 270 270 270 270 270 271 272 273 275 276 277 283 282 281 281 280 281 281 280 279 278 278 277 276
273 273 271 273 272 272 271 271 270 269 269 269 269 269 266 268 268 269 269 269 268 268 269 269 269 270 271 272 273 273 273 279 281 281 280 280 280 278 279 279 278 276 276
270 270 270 270 270 269 268 269 269 267 267 267 267 267 265 268 267 267 268 268 267 268 268 268 268 269 269 270 270 270 271 273 275 280 280 280 279 278 278 278 277 276 275
268 267 268 268 267 266 266 266 266 266 265 265 265 265 265 265 266 266 266 267 266 266 267 266 267 267 268 268 269 269 269 271 271 271 272 280 279 279 278 277 276 275 274
267 266 265 265 265 264 264 263 264 262 262 263 263 263 263 263 264 264 264 265 265 265 265 265 265 265 266 266 267 268 269 270 269 270 271 273 280 279 277 277 276 275 274
266 265 264 264 263 262 262 262 262 261 261 261 262 262 262 262 263 263 263 263 263 263 263 263 264 264 264 264 265 265 266 266 267 268 270 271 279 278 277 276 276 274 273
266 264 264 263 263 262 262 261 260 260 259 260 260 260 260 261 261 261 261 262 262 261 261 263 263 263 263 264 265 265 263 264 266 267 268 269 278 278 277 276 274 274 273

GFSGL_sfc_thetae_072.txt.gz
Theta_e
327 325 323 324 322 322 320 318 316 313 309 307 304 304 309 305 304 304 303 302 301 301 301 300 300 300 299 299 298 297 295 294 290 292 294 295 294 293 293 294 293 292 291
327 324 323 319 315 311 311 310 310 307 306 305 306 306 304 303 303 303 301 301 300 300 300 300 299 298 298 298 297 296 295 295 292 289 293 293 293 293 291 291 290 290 289
323 318 311 310 309 309 307 307 305 305 306 303 304 303 302 302 302 302 301 300 300 300 300 299 298 298 297 297 296 295 294 293 293 290 289 292 291 291 289 291 290 290 288
316 312 310 308 307 305 303 302 300 300 299 299 301 301 301 301 301 300 299 299 299 299 299 299 298 298 297 296 295 294 293 292 291 289 288 288 289 290 289 287 286 288 287
310 307 306 305 303 299 298 298 300 300 298 299 301 300 301 301 299 299 298 298 297 297 298 298 298 297 295 293 293 293 293 290 288 287 287 287 287 287 286 288 286 286 287
310 307 306 301 298 296 296 298 297 296 298 300 301 302 300 297 292 291 291 296 295 295 295 296 296 295 293 289 289 288 290 289 288 289 287 285 287 287 287 286 285 283 281
305 303 300 297 295 296 296 296 296 298 301 302 300 299 298 298 291 290 289 294 294 294 294 294 294 294 292 293 291 288 287 287 286 289 287 287 286 287 287 285 284 283 283
303 300 297 295 294 295 298 297 299 302 300 299 298 298 297 296 290 289 288 293 294 294 294 294 294 294 294 293 292 291 290 289 289 288 288 288 288 288 287 286 284 284 284
297 294 294 295 296 299 297 300 299 298 297 296 296 296 295 296 290 289 289 293 293 293 294 294 294 293 291 290 290 289 288 288 288 287 286 286 284 283 283 285 282 281 280
294 295 298 299 295 298 298 297 298 296 295 295 294 295 293 294 291 289 290 292 291 292 293 293 290 290 288 287 289 289 287 287 287 288 287 285 285 286 283 284 283 280 280
298 295 295 297 297 296 295 296 296 295 295 294 292 293 292 292 291 289 288 289 288 288 287 288 290 288 286 286 286 288 287 289 287 288 286 286 286 286 286 285 285 283 281
296 296 295 294 292 293 294 295 294 293 290 289 288 289 290 290 287 287 287 286 286 287 286 288 289 287 288 286 286 286 285 285 288 287 286 285 284 285 285 286 286 286 285
294 293 292 291 290 290 291 290 289 288 288 287 286 286 287 287 288 286 285 285 285 287 288 288 285 285 286 286 285 284 284 286 286 285 285 285 285 286 286 286 285 285 284
291 289 289 287 287 287 288 287 288 287 286 284 284 284 285 285 286 284 283 285 285 286 286 288 287 285 285 286 286 286 286 287 286 286 285 286 286 286 284 284 283 283 282
287 286 286 286 286 286 285 286 285 285 283 283 283 283 282 281 280 280 280 281 282 284 284 287 287 287 286 286 286 286 286 285 284 286 285 285 285 285 283 284 283 282 280
284 284 284 285 285 284 285 285 281 280 280 280 279 279 280 279 278 279 278 278 280 280 284 284 285 286 285 285 285 285 286 284 284 285 285 283 283 283 283 283 283 280 279
283 283 282 282 283 283 284 283 282 282 280 279 278 277 276 276 276 277 277 277 279 280 280 279 280 281 282 282 285 285 285 286 286 285 285 283 283 283 283 282 282 281 279
281 278 282 283 283 283 283 282 281 280 279 280 279 276 276 275 275 276 275 277 278 278 278 277 277 278 278 279 280 280 284 286 286 285 285 284 284 283 282 281 281 280 280
280 280 281 282 281 280 281 280 280 278 278 278 278 277 276 274 275 275 275 276 274 275 275 275 275 275 276 276 278 278 279 282 284 284 284 283 284 283 282 282 281 280 279
278 275 277 280 279 279 278 277 277 276 276 276 276 275 274 273 275 275 275 275 274 273 273 273 273 274 274 275 276 276 276 278 279 283 284 283 284 283 282 281 281 280 279
279 277 273 277 277 276 276 275 276 275 274 274 274 274 268 269 273 273 273 273 272 272 272 272 272 272 273 273 273 273 274 275 276 277 278 283 283 283 282 282 282 281 280
275 275 275 275 274 275 273 274 274 273 272 272 272 272 269 271 272 272 272 271 272 272 272 272 271 271 271 271 271 271 271 272 274 274 275 276 279 283 283 282 281 280 279
274 273 273 273 272 270 272 271 271 271 270 270 270 270 270 270 270 270 270 270 270 270 270 270 270 269 271 271 271 271 270 270 272 272 271 272 274 278 282 281 281 280 279
272 272 271 271 271 269 270 269 269 268 268 268 269 269 269 268 268 268 269 269 269 269 269 268 268 268 269 269 270 270 270 270 270 270 270 271 271 274 280 281 281 280 279
272 271 270 269 269 269 268 268 268 268 268 267 267 267 268 267 267 268 268 268 267 267 267 267 267 268 267 267 267 267 268 268 267 267 268 271 271 272 274 281 281 280 279
271 270 269 269 268 268 268 267 267 266 266 266 265 266 266 266 266 266 266 266 266 265 265 267 267 267 267 267 268 268 267 266 266 266 267 269 270 272 275 280 280 279 278

GFSGL_sfc_thetae_075.txt.gz
Theta_e
330 330 327 325 327 325 323 320 319 318 316 313 307 304 303 304 306 304 305 305 304 303 303 302 302 302 300 300 299 299 297 296 293 295 297 298 297 297 297 297 296 294 295
330 329 325 324 318 315 312 312 312 309 309 305 305 306 308 307 305 304 304 303 302 301 302 302 300 299 300 300 299 298 297 297 295 293 295 295 296 296 296 295 293 293 293
329 324 318 312 311 309 309 308 307 305 305 307 305 303 302 303 304 304 303 303 302 302 301 300 299 299 299 299 299 298 298 295 296 294 293 295 295 295 294 293 292 293 292
321 318 313 311 309 307 307 307 306 304 302 301 302 302 302 303 302 302 302 302 300 300 299 299 298 298 297 298 297 298 296 295 295 293 292 291 291 292 292 290 289 291 289
318 314 309 308 307 308 306 304 302 301 300 302 300 300 302 302 302 302 301 299 297 297 297 297 298 297 296 295 296 296 295 293 292 291 290 289 289 289 288 290 288 289 289
311 307 307 307 305 301 299 300 300 300 299 299 301 302 302 302 292 292 291 295 295 295 294 295 296 295 294 291 291 290 291 292 290 289 289 288 288 289 290 288 287 286 283
308 306 305 303 300 299 298 298 298 299 299 301 302 303 301 300 293 292 290 294 293 293 294 294 294 294 294 296 292 289 289 288 286 290 288 288 288 289 289 287 286 285 284
304 303 302 301 300 299 299 300 300 301 302 303 301 300 299 297 293 291 289 294 293 294 294 295 295 296 296 294 294 294 294 293 291 290 290 289 290 290 289 288 287 285 285
303 303 302 301 299 297 298 300 302 302 300 299 298 297 296 296 290 289 289 294 293 293 294 294 294 294 292 290 291 291 291 291 292 289 289 289 287 285 284 286 284 283 282
302 300 299 298 300 301 301 301 300 299 297 296 295 296 293 295 289 289 289 290 289 289 290 290 288 288 286 287 289 289 287 288 288 289 290 288 287 287 284 285 285 282 281
300 300 301 300 299 299 299 298 297 296 295 295 294 294 292 291 291 288 287 287 287 287 286 287 289 286 286 287 287 288 287 288 287 288 288 289 289 288 288 287 286 285 282
300 299 299 298 296 297 296 296 295 294 293 291 289 289 291 291 288 287 285 284 284 285 285 288 289 287 287 286 286 286 286 285 287 285 286 286 287 287 288 288 287 287 287
298 297 297 295 294 294 294 292 291 290 289 289 287 287 288 288 289 285 284 283 283 283 285 286 285 286 286 286 286 285 285 286 285 284 285 286 287 288 288 287 287 287 287
296 295 293 292 291 290 289 289 289 289 288 286 286 286 286 285 286 284 282 283 282 283 283 285 284 284 285 285 286 288 287 286 286 285 286 287 288 287 286 287 285 285 283
292 290 290 288 288 288 288 287 287 285 283 284 285 284 282 281 281 279 279 279 280 280 281 283 285 285 285 286 286 287 287 287 286 286 286 286 286 286 286 287 285 283 282
288 288 288 287 287 287 287 285 281 282 281 280 279 279 280 278 277 277 278 278 278 280 280 282 280 281 280 281 283 283 286 286 287 286 286 285 285 285 284 285 284 283 281
286 284 283 285 285 285 285 284 284 281 281 280 279 277 277 276 276 276 277 277 278 279 279 279 278 277 278 279 280 280 281 282 284 286 285 285 285 284 284 283 283 282 281
281 281 284 284 284 284 284 283 283 282 280 281 279 278 277 276 276 276 276 277 278 278 278 277 277 276 276 276 277 277 278 279 281 281 285 285 285 284 284 283 282 282 281
281 281 282 282 282 280 281 281 281 280 279 279 280 280 280 276 275 277 277 277 276 275 276 275 275 275 275 275 276 276 277 277 278 279 280 283 285 284 283 283 283 281 281
278 277 278 280 280 279 279 279 279 278 278 278 278 278 278 274 273 276 277 276 275 274 274 273 274 274 273 273 274 274 275 275 276 277 277 279 281 283 283 283 282 282 280
279 278 275 278 277 277 277 277 277 277 276 276 276 277 270 271 271 274 274 274 274 273 273 272 272 273 273 273 273 272 272 273 273 274 275 275 275 277 282 283 283 282 281
276 276 276 276 276 276 276 275 275 275 275 274 274 275 273 272 273 273 273 273 273 272 273 272 271 272 272 271 271 271 270 271 272 272 272 272 273 274 277 281 282 282 281
275 274 275 275 274 273 274 274 274 274 273 273 272 272 272 272 271 271 271 272 271 271 271 271 270 270 271 271 271 270 270 270 271 271 270 269 270 272 273 275 280 281 281
274 274 273 273 274 271 273 272 272 271 271 271 271 271 271 270 270 270 270 271 270 270 270 270 269 269 269 270 270 270 270 270 271 270 269 268 268 270 272 273 274 282 281
274 273 273 272 272 272 271 271 271 271 270 270 269 269 269 269 269 269 269 269 268 268 268 268 268 269 269 268 268 269 269 269 269 268 268 268 267 268 270 272 273 277 281
273 272 272 271 271 271 270 269 269 269 268 268 268 268 268 267 267 267 267 267 267 267 266 267 268 267 268 268 269 269 268 267 266 266 266 267 267 268 270 272 274 276 280

GFSGL_sfc_thetae_081.txt.gz
Theta_e
322 326 326 325 323 322 321 319 318 317 314 311 306 304 304 305 304 303 302 302 302 301 302 301 299 298 297 296 294 293 292 290 287 289 289 290 288 289 291 291 291 291 292
324 324 326 325 323 322 321 319 315 310 308 306 306 306 306 304 304 303 302 303 302 300 300 299 298 298 295 294 293 292 291 291 289 289 288 287 288 290 290 288 292 293 291
322 323 322 322 320 318 315 313 311 308 307 307 306 305 305 305 305 304 303 302 301 300 299 296 296 294 292 291 291 290 290 292 289 286 285 286 286 286 285 286 286 287 291
324 319 317 316 315 313 310 309 309 307 306 306 306 305 305 305 304 303 302 300 299 297 296 294 293 292 291 290 290 289 290 288 286 284 284 283 283 284 283 282 282 283 284
316 315 312 310 310 308 308 307 306 307 306 305 304 303 304 303 303 301 301 296 291 290 291 292 291 292 294 291 289 287 286 284 283 283 285 281 281 281 281 282 282 282 282
309 307 307 307 307 306 305 305 304 302 303 303 303 303 301 302 296 294 292 290 290 289 288 288 289 291 290 290 290 289 287 283 282 281 283 283 284 282 283 282 281 281 278
306 306 306 305 303 302 302 301 301 301 301 301 301 300 299 298 291 291 290 289 288 287 286 286 288 291 289 288 287 286 285 287 285 283 283 284 284 283 284 285 282 282 280
304 304 303 301 300 301 301 300 299 299 299 299 298 298 297 293 291 290 289 288 287 288 288 287 285 285 285 286 284 281 281 283 284 285 284 285 285 287 287 286 285 282 280
303 302 301 300 299 299 298 298 298 297 297 297 298 295 291 289 288 288 288 286 286 284 286 286 285 283 285 287 283 281 282 282 287 288 288 288 289 289 289 287 283 281 274
302 301 300 300 299 298 298 298 298 299 298 294 292 290 288 285 287 287 286 283 282 281 282 283 284 284 285 285 282 281 279 281 281 282 283 284 285 285 287 287 285 281 278
302 302 300 300 298 298 299 299 297 293 290 286 285 286 285 284 285 286 285 281 280 280 280 280 281 283 284 284 284 281 281 283 283 284 284 284 284 284 284 286 284 283 281
301 298 297 297 298 299 296 294 293 290 287 285 285 284 283 282 284 284 283 282 282 280 279 280 280 281 282 282 283 284 285 283 284 283 283 282 282 283 284 285 284 283 284
297 297 297 296 295 294 292 290 288 288 286 285 284 283 282 282 281 281 281 280 280 279 279 279 279 280 281 280 282 282 280 279 279 279 281 283 283 283 282 284 286 285 283
294 293 292 289 288 287 288 287 285 284 284 283 283 283 282 280 278 278 278 278 278 278 277 277 277 278 279 278 278 278 278 277 277 277 276 279 282 283 282 285 284 284 283
289 288 287 286 284 282 283 283 281 281 282 280 280 281 279 277 277 278 277 277 276 278 275 275 276 276 276 276 276 276 276 276 275 275 276 276 278 280 282 283 284 282 281
286 285 284 283 283 282 280 280 282 281 281 281 281 280 279 279 277 277 278 278 278 278 275 273 270 268 269 273 272 272 273 273 273 274 274 274 275 277 277 282 283 281 281
283 283 282 282 282 282 282 281 278 280 281 280 280 279 279 278 277 277 278 278 278 278 272 272 267 266 266 271 271 271 270 271 273 272 271 272 273 274 275 275 281 281 281
282 282 281 280 280 280 280 280 280 280 277 278 280 279 279 277 276 277 277 277 274 275 274 271 268 268 269 271 270 270 270 269 270 269 269 269 270 271 271 272 273 280 281
280 280 280 278 278 279 279 279 279 278 278 278 278 278 277 276 275 275 275 271 272 272 272 271 267 267 267 268 263 264 262 262 264 262 266 268 268 269 269 270 271 272 275
277 278 278 278 278 278 277 277 277 277 276 276 275 275 274 272 268 265 266 266 267 270 269 268 268 267 266 264 260 261 264 261 265 264 265 267 266 267 267 268 269 269 271
277 277 277 277 276 276 276 274 274 274 273 273 272 270 270 269 267 266 269 266 266 266 264 264 263 262 263 261 263 259 260 258 261 264 266 265 265 264 266 267 267 268 271
275 275 275 275 275 272 272 273 272 272 271 270 269 271 269 265 265 266 266 263 259 261 264 265 262 263 262 265 265 257 259 259 260 264 263 263 263 264 265 265 265 266 268
273 272 272 273 272 270 269 270 267 266 266 265 266 266 264 261 261 264 262 258 262 264 264 261 257 260 262 259 259 264 265 264 264 263 264 263 263 262 262 263 265 265 266
272 270 271 269 267 266 264 263 264 267 267 265 260 259 259 258 256 256 259 259 259 258 256 257 260 262 261 261 264 264 264 264 266 266 261 262 261 261 262 262 263 265 266
268 266 264 262 261 259 260 262 259 258 259 258 257 258 259 256 259 257 255 255 257 254 258 257 256 259 260 259 259 261 263 266 264 264 265 264 262 260 260 261 263 265 266
267 265 263 264 264 261 262 259 258 256 256 259 256 254 256 258 257 253 255 256 259 257 255 257 257 257 258 260 262 264 263 263 264 265 265 265 263 262 262 262 264 264 264

GFSGL_sfc_thetae_087.txt.gz
Theta_e
314 315 316 317 319 320 320 319 319 319 316 315 314 314 310 308 307 307 305 305 304 303 302 302 301 302 301 300 299 296 293 290 286 287 288 288 287 288 290 289 290 290 290
316 317 317 319 320 320 320 320 319 317 316 315 313 311 310 308 307 307 304 304 304 302 302 301 301 302 299 299 296 294 292 289 287 285 286 286 286 287 287 287 289 290 289
316 317 316 316 319 319 320 317 316 317 315 313 313 311 309 308 307 307 306 305 304 303 302 301 301 300 298 295 294 292 289 290 287 284 283 284 284 285 284 285 285 285 287
316 316 316 316 318 319 319 316 317 316 316 314 312 310 309 308 307 305 305 303 303 302 302 301 300 297 296 293 290 287 287 285 283 282 281 281 282 283 282 281 281 282 283
316 315 316 317 317 316 316 317 317 318 317 313 311 309 309 307 306 305 305 303 302 300 298 297 296 294 292 290 287 284 283 282 281 280 279 279 279 280 280 281 280 283 281
316 316 312 312 314 314 313 313 310 309 309 310 309 307 305 306 297 297 300 300 298 295 291 290 290 291 290 289 288 287 284 281 280 278 278 278 278 279 280 279 279 279 278
311 309 308 309 307 306 307 307 306 306 306 306 305 305 304 304 298 296 293 295 293 290 288 288 288 287 286 285 285 285 284 285 283 281 278 278 278 280 280 279 278 280 281
307 306 306 306 305 305 304 304 303 304 303 303 302 303 300 299 293 292 290 290 288 288 287 287 285 284 285 285 283 282 282 283 283 283 281 280 280 281 282 282 282 283 284
306 306 305 304 303 302 301 300 301 301 300 300 300 297 295 291 289 288 289 287 286 285 285 285 284 282 284 284 281 280 280 281 284 285 286 286 286 287 287 285 282 281 280
304 303 303 302 302 300 300 300 301 300 297 294 291 291 289 288 288 288 287 285 283 282 282 282 282 281 282 282 281 280 279 281 281 282 282 283 285 285 286 285 283 280 280
302 302 301 301 300 300 299 298 294 292 289 286 285 285 286 286 285 286 285 283 282 281 280 280 280 280 281 281 282 281 280 280 280 279 279 279 280 280 281 283 284 283 281
301 300 299 298 298 297 294 292 290 288 285 284 283 282 282 283 284 284 283 282 281 280 279 279 279 280 280 281 281 280 280 279 277 276 276 276 275 277 277 278 280 283 285
293 290 290 290 290 291 290 289 287 287 285 283 282 280 279 280 280 281 281 280 279 278 279 278 279 279 280 280 279 278 278 276 275 273 273 273 275 275 276 277 278 279 280
288 287 286 285 285 285 285 285 284 284 284 284 282 280 279 279 278 279 278 278 278 278 278 278 278 278 279 278 277 277 276 275 274 273 272 273 273 273 272 274 273 273 275
285 284 283 282 281 281 281 282 281 282 284 283 282 281 279 278 278 278 278 278 278 278 277 276 276 276 275 275 274 274 274 273 272 272 271 270 270 270 270 272 271 271 271
283 282 282 282 282 282 281 280 283 282 282 282 281 280 280 280 279 279 279 279 279 278 276 274 271 271 271 272 272 271 272 271 271 270 268 268 267 267 268 268 269 268 268
283 283 283 283 282 282 281 281 279 281 282 282 281 281 280 279 279 279 278 277 277 277 274 273 270 269 270 272 271 270 269 269 269 268 265 265 266 267 266 266 266 266 266
280 280 280 279 279 279 279 279 279 278 277 278 281 281 280 279 278 277 276 275 273 275 274 272 270 269 270 269 269 268 266 264 262 264 261 260 260 264 263 263 264 263 264
279 278 278 278 278 278 278 277 276 276 275 275 276 275 275 276 275 275 274 271 270 270 270 269 269 268 267 267 261 258 254 254 255 253 256 257 256 261 261 262 262 262 263
277 277 277 277 276 275 274 273 273 272 272 271 271 270 272 271 268 267 268 266 265 267 266 268 268 266 261 259 254 254 252 253 256 255 257 253 252 255 259 260 261 261 262
275 275 274 273 272 271 271 270 270 269 269 269 268 268 268 268 266 266 266 265 264 262 263 264 263 259 261 261 262 256 255 252 256 260 258 258 254 255 259 261 261 261 261
272 272 271 270 270 268 269 268 266 266 266 266 266 267 265 262 262 262 262 257 256 262 263 262 261 263 263 262 260 255 257 256 255 258 256 257 259 260 259 260 259 259 260
269 268 268 267 267 264 264 264 263 262 261 258 260 261 259 254 254 257 255 252 255 253 256 257 255 258 259 256 255 256 255 258 258 260 259 260 260 260 256 258 258 259 259
267 265 265 263 261 261 258 257 258 259 260 260 257 259 258 257 255 256 253 249 250 250 250 252 254 256 257 254 253 255 258 260 261 262 261 260 260 260 261 260 260 260 258
263 262 260 259 258 254 254 254 253 253 254 255 256 256 259 256 258 253 253 252 253 249 253 253 253 254 254 254 255 256 257 260 259 259 260 260 259 258 259 260 260 259 258
261 260 258 257 255 253 252 250 250 252 253 254 254 256 255 254 255 250 253 253 253 253 253 253 254 254 254 255 257 258 257 257 257 258 258 259 258 258 259 260 260 260 260

GFSGL_sfc_thetae_093.txt.gz
Theta_e
316 316 316 315 315 316 316 317 318 319 319 319 320 321 321 322 320 319 318 317 311 311 309 309 307 309 306 304 305 303 302 303 303 302 304 302 295 296 296 299 302 301 302
317 316 316 317 315 316 316 317 319 318 321 321 320 320 321 320 317 313 312 313 310 310 308 307 307 307 305 305 306 303 304 301 298 298 299 293 293 297 300 300 299 298 299
316 316 316 316 315 314 316 317 318 318 319 319 320 320 319 318 315 317 316 314 311 310 310 308 308 307 305 305 306 306 304 297 297 295 293 292 293 295 296 296 296 296 295
316 316 316 316 316 316 317 318 319 319 318 320 321 320 320 320 318 317 314 313 312 313 314 310 308 308 305 306 304 300 298 294 292 291 289 289 292 294 293 293 291 293 293
316 316 316 317 318 318 319 319 320 321 321 322 322 321 320 319 316 314 313 313 312 310 309 308 306 306 302 302 300 296 293 290 288 287 286 287 290 288 289 291 290 291 290
315 315 316 316 316 317 318 319 320 321 322 321 319 318 317 315 304 299 305 309 309 307 303 295 296 295 293 290 291 290 291 288 286 286 288 286 287 287 289 288 287 285 283
315 315 315 315 315 316 317 318 318 319 320 318 317 315 312 308 298 297 294 302 299 295 292 291 290 289 288 287 286 286 286 286 285 288 287 285 286 287 286 285 285 284 284
316 314 314 314 313 313 315 315 312 308 306 304 301 300 296 292 291 292 291 292 290 289 289 288 287 286 286 285 285 284 284 285 286 285 286 285 286 286 287 286 286 286 287
310 310 310 310 308 306 305 303 302 300 297 295 294 292 290 288 288 289 289 287 284 284 285 285 285 284 284 285 283 282 282 283 285 285 285 285 284 284 285 285 283 283 282
303 303 304 304 302 301 300 298 295 293 290 289 287 287 287 287 287 287 286 284 282 281 282 281 282 282 282 282 282 282 281 282 282 282 282 282 281 282 281 282 282 280 281
301 301 300 299 297 296 295 293 290 288 286 285 283 284 284 285 286 286 286 284 282 281 280 279 280 281 281 281 282 282 282 282 280 280 280 280 281 279 280 281 280 279 278
296 294 294 293 293 293 291 289 288 286 284 283 281 281 282 283 283 284 283 283 283 281 280 280 280 281 281 282 282 281 279 279 280 279 278 278 277 277 278 277 278 278 279
290 289 288 288 288 289 288 287 285 285 283 282 281 280 279 280 280 282 281 281 280 280 280 279 279 279 280 281 280 279 278 279 278 277 276 275 276 276 276 275 276 276 277
288 287 286 286 285 286 285 285 285 284 283 282 281 279 279 279 279 280 281 281 280 280 280 280 279 279 280 280 280 279 279 278 276 275 274 275 275 274 273 273 272 273 273
287 286 285 284 283 282 282 283 282 282 283 283 283 283 282 280 280 281 281 280 280 279 280 279 279 278 278 278 278 277 277 276 274 274 273 272 272 271 271 272 272 272 271
285 285 284 284 283 282 282 281 283 282 282 282 282 282 281 281 280 280 279 279 278 278 278 277 276 276 275 275 275 275 274 273 273 272 272 271 270 270 270 271 271 270 269
283 282 282 282 282 281 282 281 278 279 279 280 280 279 279 278 278 277 277 277 276 276 275 274 273 273 273 273 273 272 271 272 271 270 270 269 269 269 268 268 269 268 268
279 279 280 279 280 279 279 279 279 277 275 275 275 275 276 275 275 274 274 274 272 272 272 271 271 271 270 270 270 269 269 269 269 268 268 268 267 267 267 267 267 266 267
278 277 277 277 276 276 276 275 275 274 273 272 272 272 271 272 271 271 271 270 269 268 268 268 268 268 268 267 267 267 266 266 266 265 266 266 266 266 265 265 266 265 265
275 274 274 274 273 273 273 272 272 271 270 269 269 268 270 269 268 267 267 267 266 266 266 266 266 266 266 266 266 265 265 265 265 265 265 265 265 265 264 264 265 265 265
273 272 271 271 271 270 270 270 269 269 268 268 267 265 264 267 266 265 265 264 264 264 264 264 264 264 264 264 264 263 263 263 263 263 263 264 264 263 265 265 265 265 265
271 270 269 268 268 268 268 268 267 266 266 266 266 265 263 265 265 264 264 263 263 263 264 263 262 263 263 262 262 261 261 261 262 262 262 262 263 264 264 264 264 264 264
268 268 267 267 266 265 265 265 265 265 264 263 264 263 263 262 262 262 262 261 262 261 262 261 261 261 262 261 261 261 260 260 261 262 261 262 263 263 263 263 263 263 264
267 266 265 264 264 263 263 263 263 261 262 262 262 262 261 261 261 260 260 260 260 260 260 260 259 259 259 259 260 261 261 261 262 262 262 261 261 262 263 263 263 262 263
264 263 263 262 262 261 261 261 260 260 260 260 259 259 259 259 259 259 259 258 258 258 258 258 258 258 258 257 258 258 259 259 261 261 261 261 261 261 261 262 262 262 263
263 262 262 261 261 260 260 259 259 259 258 258 258 258 258 257 258 257 257 257 256 256 257 258 258 257 257 258 259 259 259 259 259 260 261 261 261 261 262 262 262 262 263

GFSGL_sfc_thetae_096.txt.gz
Theta_e
322 322 322 321 321 322 321 321 321 322 322 322 322 323 323 323 324 325 324 324 323 324 325 323 321 320 317 313 311 310 306 306 303 307 311 314 311 308 305 304 305 304 302
321 322 322 323 322 322 322 321 322 321 323 322 323 322 322 322 324 325 323 322 322 321 319 316 314 313 312 311 308 307 306 306 305 303 308 300 307 300 299 302 299 300 302
321 322 322 322 322 321 321 321 322 322 322 322 322 322 322 323 323 324 323 320 318 319 320 316 314 311 309 309 308 306 308 307 305 303 304 299 297 295 295 297 298 300 301
322 321 321 321 322 322 322 322 323 322 321 321 322 322 322 322 322 322 321 321 323 323 321 314 313 312 309 309 308 306 306 304 303 299 295 290 291 293 293 293 293 296 298
322 321 321 322 323 322 322 322 322 322 322 321 322 322 323 324 324 324 322 320 317 315 314 312 313 309 302 303 306 305 303 297 292 291 289 288 289 288 288 292 291 293 294
322 321 322 322 322 322 322 322 322 322 323 323 323 324 323 321 304 300 306 315 311 308 307 297 295 294 291 290 289 288 291 291 288 288 287 286 286 286 287 288 288 289 287
322 322 322 322 321 321 321 321 320 321 322 320 318 315 303 296 292 297 294 301 296 293 292 291 290 289 289 287 287 286 286 286 285 288 286 286 286 287 288 288 287 286 284
322 321 321 320 320 320 320 319 317 310 306 301 297 295 292 290 290 291 290 290 288 287 287 287 285 285 286 286 286 284 284 284 285 286 286 287 287 288 287 286 286 286 288
316 317 318 318 314 309 305 304 301 297 292 290 290 289 288 287 287 288 288 285 284 283 284 284 284 283 284 286 284 283 283 283 285 286 285 285 284 284 284 286 285 284 284
305 304 304 303 301 298 295 293 292 290 288 287 286 287 287 287 287 287 286 285 283 282 282 282 282 282 282 283 283 283 282 283 284 284 284 283 282 284 281 283 283 281 281
299 298 296 296 294 293 291 290 288 286 285 284 283 284 284 285 286 286 286 284 283 282 281 280 281 281 281 281 282 284 283 284 282 283 283 283 283 283 282 283 283 281 279
293 292 292 292 291 290 289 288 286 285 284 283 282 281 282 283 284 284 284 283 283 282 282 283 282 281 281 282 283 281 280 281 283 282 280 280 280 280 281 281 280 280 281
292 291 290 289 289 289 288 287 286 285 284 282 281 280 280 281 282 282 282 282 281 283 283 281 280 280 281 282 281 279 279 282 281 279 279 279 279 279 278 278 278 278 278
290 290 290 288 287 287 286 285 285 285 283 283 282 281 281 283 283 284 283 284 282 283 282 282 281 281 280 281 281 281 281 280 278 278 278 278 278 277 276 277 275 276 276
289 289 288 286 285 283 283 284 283 283 285 284 283 283 282 280 280 280 280 280 281 280 281 282 281 280 279 280 280 280 280 278 277 277 276 275 275 275 274 275 274 274 273
288 288 288 287 286 284 282 280 281 281 281 281 281 281 280 279 279 278 278 277 277 278 279 277 277 277 276 276 276 275 276 275 275 273 273 273 272 272 271 272 272 272 271
285 285 286 286 286 284 282 281 277 278 278 278 278 278 277 276 275 275 276 276 275 276 275 274 274 273 273 273 273 272 271 272 272 272 271 270 270 270 269 270 270 270 270
283 283 284 283 283 283 282 281 281 279 276 275 274 274 274 273 273 273 273 274 274 273 273 272 271 271 271 270 270 270 270 269 269 269 268 268 268 268 268 268 268 268 268
282 281 281 281 280 280 280 279 278 277 276 275 275 274 273 272 272 271 271 272 271 270 270 270 270 270 269 269 269 269 268 268 267 267 267 267 267 267 267 267 267 266 267
278 277 278 278 278 277 277 276 275 275 274 273 271 271 272 273 271 271 270 270 269 269 269 269 269 269 268 268 268 267 267 267 267 266 266 266 267 267 266 266 266 266 267
276 275 275 275 275 274 274 274 273 273 272 271 269 268 266 270 269 269 269 268 268 268 267 268 268 268 268 267 267 266 266 265 266 265 265 266 265 265 266 267 267 267 266
274 274 273 273 273 272 272 272 271 271 270 270 270 268 266 269 268 268 268 267 267 267 267 267 266 267 266 266 265 265 264 264 265 265 265 264 265 265 266 266 266 266 266
273 272 271 270 270 269 270 270 270 269 269 268 268 268 268 267 267 266 266 266 266 265 266 265 265 264 265 265 265 265 264 264 264 264 263 264 264 265 265 265 265 265 265
272 271 269 269 269 269 269 268 267 265 267 267 267 267 266 265 265 265 265 264 264 264 264 263 263 263 263 262 264 264 264 264 264 264 264 264 264 264 265 265 265 265 265
270 269 268 268 268 267 267 267 267 266 266 266 266 265 265 265 264 264 264 263 262 262 262 262 263 262 262 261 261 262 263 262 262 262 263 264 264 264 264 264 265 265 265
268 268 267 267 267 267 266 266 265 265 264 264 264 264 264 263 263 263 262 262 261 260 261 262 262 262 261 263 264 263 261 260 261 261 262 263 263 264 265 264 264 265 265

GFSGL_sfc_thetae_102.txt.gz
Theta_e
321 321 321 320 320 319 318 320 321 321 321 321 321 320 319 319 319 318 317 317 317 318 319 319 318 320 319 319 320 319 316 313 309 312 314 314 313 310 310 308 308 308 308
322 321 320 320 321 320 319 317 320 321 321 320 321 320 320 319 319 318 318 319 319 318 318 318 318 319 317 319 318 317 316 315 312 310 312 311 310 309 308 307 307 308 307
322 322 321 320 321 320 320 321 322 321 321 320 321 319 319 320 319 319 319 319 318 319 318 317 317 316 316 314 314 315 316 315 312 309 308 309 306 300 301 300 298 300 301
322 321 321 321 321 321 320 321 321 322 321 320 320 320 320 320 320 320 319 319 319 319 316 302 296 294 294 296 302 302 305 307 308 306 305 302 293 293 293 292 293 294 295
321 321 321 322 323 323 322 322 322 322 321 321 321 321 321 320 312 307 316 317 309 299 295 293 291 291 290 289 290 289 292 294 295 293 290 288 288 288 287 289 289 288 290
320 320 322 323 323 322 322 322 322 321 322 321 318 308 300 297 292 294 301 297 295 294 290 289 289 290 288 288 287 287 286 287 286 287 286 285 285 285 286 285 285 285 285
320 321 321 322 322 321 322 321 320 315 303 297 295 293 290 290 290 290 291 290 288 288 287 287 287 287 288 287 286 286 286 286 284 286 284 283 284 284 285 285 285 285 285
322 322 322 322 321 322 316 301 297 294 292 290 289 289 288 287 288 288 287 286 285 285 285 285 284 284 285 286 286 285 284 284 284 285 284 284 284 285 285 285 284 284 285
321 321 321 322 306 299 295 292 291 289 288 287 287 287 286 286 287 287 286 284 283 282 283 284 283 282 284 286 284 283 283 284 286 285 285 285 285 285 284 282 281 279 278
305 303 300 298 295 291 290 288 288 287 286 285 285 285 286 285 287 287 286 284 283 282 283 282 283 282 283 284 282 280 278 279 282 282 283 284 285 285 284 282 281 277 277
295 294 292 291 289 290 288 287 286 284 284 283 282 283 283 284 285 286 286 285 284 283 282 281 281 283 283 283 282 279 279 280 282 281 280 281 282 281 280 279 279 277 275
292 290 290 289 288 287 286 285 284 284 282 282 281 281 282 283 284 284 284 284 284 281 280 280 281 284 282 282 280 281 282 281 278 278 277 277 276 276 277 277 278 277 277
289 290 288 288 287 287 285 285 284 284 283 282 282 281 281 283 282 283 283 283 283 281 281 282 283 283 282 281 281 281 279 277 275 273 273 273 273 274 275 275 275 276 275
286 286 285 284 284 284 285 286 285 284 283 281 280 278 278 278 277 279 279 279 281 281 281 280 279 279 278 278 277 277 276 275 273 271 270 271 273 272 271 272 271 271 270
284 283 282 281 280 279 279 280 279 280 281 278 278 278 276 275 276 277 277 276 277 278 278 277 275 274 273 273 273 273 273 272 270 270 269 269 269 269 269 270 270 269 267
284 282 281 280 279 278 277 276 279 279 279 279 278 276 276 277 277 277 277 277 278 278 275 272 270 269 269 270 269 269 270 269 269 269 268 268 267 267 267 268 268 267 266
283 282 281 280 278 277 276 274 273 275 277 277 276 276 276 276 276 277 277 276 276 275 271 269 268 267 267 269 268 268 267 268 269 268 267 266 267 267 266 266 266 266 265
284 284 283 282 280 278 277 276 276 273 271 272 275 275 275 275 275 276 276 275 271 271 270 268 267 267 267 268 267 267 267 267 266 266 265 265 265 265 264 265 265 264 264
282 281 282 281 281 280 280 278 277 275 273 273 273 274 275 275 274 274 273 269 268 268 268 268 267 267 267 267 264 264 263 264 262 262 263 263 263 264 263 264 264 264 264
280 280 279 279 278 277 276 275 274 272 270 269 268 269 271 272 269 268 268 267 267 267 266 267 267 267 265 265 263 261 262 262 263 263 262 262 263 263 263 263 263 264 264
277 277 277 277 276 275 275 274 273 271 268 267 267 266 268 269 268 268 267 266 265 265 265 265 264 264 264 263 264 263 262 260 263 263 263 263 262 262 263 264 264 264 264
276 275 274 274 274 273 273 273 272 271 270 269 268 268 267 268 267 266 266 264 264 265 265 264 264 264 264 263 263 259 261 260 262 262 262 261 261 262 262 262 262 263 263
274 273 273 273 272 272 271 271 271 270 269 269 268 268 267 266 265 265 265 262 264 263 263 263 260 261 263 260 261 263 262 262 263 263 261 260 260 260 260 261 262 261 262
273 272 272 271 270 269 268 267 267 267 268 268 267 266 266 265 264 263 262 261 262 261 260 260 261 262 261 260 261 261 264 263 263 261 260 259 259 260 260 260 260 262 263
272 271 270 270 269 269 269 268 268 268 267 267 266 265 265 264 265 262 263 262 261 258 259 260 261 261 261 260 261 263 263 261 261 260 260 260 260 259 260 260 261 262 261
271 271 270 270 269 269 268 267 266 266 265 265 265 264 264 264 263 260 262 261 258 258 261 260 261 260 260 262 263 264 260 262 262 262 261 261 260 260 261 260 260 261 262

GFSGL_sfc_thetae_105.txt.gz
Theta_e
318 317 317 316 318 318 319 318 318 319 318 318 317 317 318 318 319 318 318 317 316 316 316 316 316 317 316 316 316 317 315 315 311 314 315 316 310 311 312 313 312 312 311
319 319 317 317 316 315 318 318 319 318 319 319 319 318 318 317 317 316 315 317 315 314 314 315 315 317 315 316 316 315 316 316 314 312 315 314 310 311 310 311 310 309 308
319 320 319 318 316 314 315 317 317 318 318 320 319 318 317 318 317 316 316 316 315 315 316 315 310 307 310 304 307 308 309 310 310 307 305 307 304 298 299 299 298 298 301
319 317 317 317 317 316 316 315 315 318 318 317 319 319 319 318 318 317 318 317 317 307 301 297 294 294 293 296 296 294 297 299 299 298 298 293 292 293 292 291 291 294 294
318 317 317 317 316 317 316 316 318 318 318 318 317 319 318 314 307 310 314 311 300 295 293 292 291 291 290 289 291 289 291 291 290 290 286 288 286 286 285 287 287 288 289
318 318 318 318 318 317 316 316 316 316 317 312 301 300 297 294 291 295 299 295 293 291 289 289 289 289 288 287 287 287 286 286 285 285 284 284 283 284 285 285 285 284 283
318 318 319 319 318 318 318 318 317 304 298 295 292 291 289 289 290 290 290 290 288 288 287 286 286 286 286 286 285 285 285 285 284 284 282 282 282 282 282 282 281 281 281
317 318 319 319 319 318 310 299 295 293 291 289 288 288 287 287 288 288 288 286 285 284 284 284 283 284 285 285 285 284 284 284 284 284 282 282 281 283 281 281 280 280 280
316 317 318 319 302 298 294 292 291 289 287 287 287 286 286 286 287 286 285 284 283 282 283 283 283 283 284 285 282 280 280 281 285 286 286 286 285 284 282 278 275 274 273
298 298 299 297 294 291 289 288 287 286 285 285 285 286 286 286 287 286 285 284 282 281 282 283 284 283 283 282 280 279 278 278 279 279 280 280 280 280 280 278 276 273 273
296 295 292 291 289 288 287 287 285 284 283 282 282 283 283 284 285 286 286 284 282 281 281 281 282 283 282 282 282 279 278 278 278 277 276 275 275 275 275 276 275 273 272
293 292 291 289 288 287 286 285 284 283 282 281 281 281 282 283 284 284 284 283 283 281 280 280 281 282 282 280 278 278 278 276 274 273 272 272 271 272 273 273 274 273 273
291 290 289 288 287 286 285 284 283 283 282 281 281 279 279 280 280 282 283 283 282 280 279 280 280 280 278 277 277 276 274 272 270 268 269 269 270 271 272 272 272 272 272
287 286 285 285 284 285 285 284 283 281 280 279 277 275 275 276 276 277 278 278 281 279 277 276 276 276 274 273 273 273 272 270 269 268 268 268 269 269 269 270 268 269 268
283 282 281 280 280 279 279 279 278 279 279 277 276 276 275 274 276 278 278 278 277 276 274 273 272 271 270 270 270 270 269 269 268 267 266 267 267 267 267 268 268 267 265
281 280 279 278 277 277 276 276 279 278 278 278 278 277 277 278 278 278 279 278 277 275 271 268 266 266 267 267 266 266 267 267 267 267 266 266 265 265 265 266 266 265 264
279 279 278 277 276 275 274 273 272 275 278 277 278 278 278 278 278 277 277 276 275 273 268 267 264 262 264 266 266 266 265 266 267 266 264 264 264 264 264 264 264 264 263
280 279 277 276 275 274 273 273 273 271 271 272 276 276 276 276 276 276 274 272 269 270 268 266 264 263 266 266 265 264 264 263 262 263 261 260 259 263 262 262 263 262 262
281 280 280 279 278 277 275 274 273 272 272 272 273 273 274 274 273 273 271 267 266 266 266 266 265 264 264 264 259 258 254 256 255 255 258 259 256 261 260 262 262 262 262
278 278 277 277 276 275 273 272 270 269 269 268 268 268 270 269 266 265 265 263 263 264 264 264 264 263 260 260 257 255 256 254 257 259 254 252 253 259 260 260 261 261 261
277 276 276 276 275 273 272 269 268 268 267 267 267 268 268 267 265 264 263 262 261 262 258 261 260 259 260 258 260 257 256 251 256 256 255 259 255 258 260 261 260 260 262
275 274 274 273 273 272 272 271 269 268 267 267 266 267 265 264 264 263 261 257 255 258 259 258 258 259 261 258 257 253 254 251 252 255 258 258 259 259 259 258 259 260 260
273 272 272 271 271 270 269 269 268 267 266 265 265 265 264 261 260 260 258 254 259 257 257 256 254 258 257 254 255 257 255 258 259 258 257 257 257 257 257 258 258 258 259
272 270 269 268 268 267 266 266 266 265 265 263 261 260 260 259 255 256 253 254 255 254 253 254 259 260 258 255 254 257 262 260 258 257 256 258 258 258 259 258 258 259 259
270 269 268 268 267 267 266 265 264 262 263 261 259 259 260 259 258 253 257 255 253 251 255 259 255 256 256 257 258 261 258 259 259 261 260 259 259 258 258 259 259 259 258
270 269 269 268 266 266 264 262 261 261 260 259 256 254 258 255 255 255 256 253 252 253 253 254 256 257 258 258 259 261 260 260 257 257 257 259 259 259 259 259 259 259 259

GFSGL_sfc_thetae_111.txt.gz
Theta_e
318 319 316 317 317 316 316 318 319 319 320 319 319 319 319 318 319 318 317 317 315 315 315 315 315 316 315 315 315 315 314 313 309 312 311 311 307 306 303 303 302 301 301
317 318 317 317 317 316 315 315 318 317 318 318 318 318 318 317 317 316 315 316 315 314 314 314 313 314 313 314 313 312 312 312 312 310 311 301 296 296 297 295 296 295 295
316 317 317 317 317 316 316 316 316 317 317 317 317 316 316 317 317 317 316 315 315 315 314 313 306 305 306 303 303 302 301 302 301 302 298 295 293 290 291 290 291 290 291
314 316 316 316 316 316 316 315 314 315 316 316 316 316 316 317 317 316 316 314 310 301 297 294 293 293 295 296 294 294 295 295 294 293 291 288 287 287 287 284 284 285 285
314 314 314 316 315 315 314 315 316 315 315 315 315 315 315 315 313 313 313 309 297 292 291 290 290 290 290 289 289 288 290 289 288 287 285 284 282 282 280 281 281 281 284
313 315 315 315 313 313 313 313 315 315 314 313 309 305 301 299 293 298 301 297 293 290 288 288 288 288 287 287 286 286 285 285 283 282 281 280 279 280 281 279 278 276 275
314 314 316 314 312 311 312 312 311 304 301 297 295 294 291 292 292 293 292 291 289 288 287 286 286 286 286 285 285 285 285 284 283 282 278 278 275 276 277 275 274 274 273
314 314 314 314 312 312 309 302 296 295 293 291 289 289 288 289 289 289 287 286 285 285 285 285 285 284 284 283 282 281 282 281 281 280 278 277 277 276 275 274 273 273 273
315 315 315 314 308 301 296 293 292 290 289 287 287 287 286 286 287 287 286 284 282 281 282 282 283 283 284 284 280 279 278 278 280 280 279 278 277 277 275 271 269 268 267
314 314 312 305 300 295 292 290 289 288 286 286 285 285 286 285 286 286 285 283 281 280 281 282 283 281 281 281 279 277 274 273 274 274 273 273 273 273 274 272 270 266 266
298 301 300 299 296 292 290 289 288 286 285 285 284 285 284 285 285 285 285 282 281 280 280 279 280 280 279 278 277 275 274 274 273 272 271 271 271 271 270 271 270 268 266
293 292 291 291 290 289 287 286 286 285 283 282 282 282 283 283 285 285 284 283 283 280 278 278 278 278 277 276 275 274 273 272 271 269 268 268 268 268 269 269 270 270 270
289 287 286 286 286 287 286 284 283 283 282 281 281 280 280 281 282 283 283 282 280 278 278 278 277 276 275 274 274 273 271 269 268 266 266 266 267 268 268 268 269 269 269
286 285 285 284 283 283 283 283 282 280 279 279 278 277 278 278 278 278 278 278 278 276 275 274 273 273 271 271 271 270 269 269 267 265 265 266 267 266 266 266 265 265 264
281 280 280 279 279 279 279 278 278 279 279 277 278 278 277 276 277 277 276 275 274 274 273 272 270 270 269 268 268 268 267 267 265 265 264 264 264 264 264 265 264 264 262
279 278 278 278 278 278 277 277 280 280 280 281 281 280 279 280 280 279 278 277 276 274 270 268 267 267 266 266 265 265 265 265 265 265 263 262 261 261 261 263 263 262 261
277 277 277 277 277 276 277 276 274 278 281 281 280 280 280 279 279 278 277 275 274 271 267 266 265 265 264 265 264 264 263 263 264 262 261 260 260 260 260 260 261 261 260
277 277 276 276 276 276 276 275 276 274 273 274 278 278 278 278 277 275 274 272 268 268 267 265 264 264 264 263 263 262 261 260 259 261 258 255 253 258 258 259 259 258 259
275 274 274 274 274 274 274 274 274 273 272 272 272 273 275 275 274 273 271 267 266 265 265 264 264 263 262 261 256 255 252 253 252 250 253 253 250 255 256 258 258 257 257
275 275 274 274 273 273 273 272 271 270 269 268 267 266 267 266 264 263 264 264 264 264 264 263 262 261 259 258 253 251 252 251 252 253 250 248 249 252 255 256 256 256 257
274 273 273 272 272 271 271 270 270 269 268 267 266 266 266 264 263 262 262 260 261 260 258 260 259 258 258 256 258 252 252 246 251 252 253 254 249 252 256 256 256 257 258
274 272 272 271 271 270 270 269 268 267 267 265 264 264 264 262 261 261 260 257 255 258 258 258 258 258 257 257 255 249 250 249 249 252 252 253 255 256 255 255 255 255 257
272 271 270 270 270 269 268 268 266 266 265 264 263 262 261 260 259 259 257 254 257 253 255 254 253 255 254 251 251 254 252 254 256 254 251 251 255 256 252 254 256 256 256
271 270 269 269 268 267 266 265 264 264 262 262 261 260 259 257 254 254 252 250 252 251 250 251 254 255 255 250 250 252 258 255 255 253 250 250 253 255 255 255 256 256 256
269 268 268 267 266 265 264 264 262 262 261 261 260 259 258 256 256 253 249 249 250 248 251 250 250 252 252 252 252 255 254 254 251 252 250 251 251 252 253 255 255 257 256
268 267 266 265 264 263 262 261 261 260 259 259 258 255 256 257 255 250 249 250 250 250 251 250 251 251 252 254 256 257 253 252 251 252 249 253 252 253 254 255 255 256 257

GFSGL_sfc_thetae_114.txt.gz
Theta_e
317 318 318 318 318 318 318 319 320 320 321 321 321 322 321 320 320 319 318 318 316 316 316 315 315 316 315 315 315 314 313 313 309 312 313 304 298 299 296 298 296 296 295
314 318 318 318 317 316 317 318 318 318 319 320 320 320 320 320 320 319 317 317 316 315 315 315 314 314 314 314 313 313 313 313 312 309 303 296 291 294 292 292 292 291 294
314 317 316 317 317 316 316 316 317 317 317 318 318 318 318 319 319 318 318 317 316 315 315 314 313 313 311 307 307 307 304 302 301 302 293 292 290 288 289 288 287 287 291
314 317 316 317 317 317 316 316 316 317 316 316 317 317 317 317 317 317 316 315 309 302 299 298 297 300 300 299 297 296 297 294 294 293 289 287 286 286 285 282 283 284 285
313 314 315 316 317 316 315 315 315 316 316 316 316 316 316 316 316 316 313 303 295 292 291 291 291 292 291 292 291 291 291 289 288 286 284 283 281 281 279 280 279 280 282
313 313 314 315 315 315 315 315 315 315 315 314 311 309 305 303 297 299 301 297 293 290 288 287 288 288 287 287 286 286 287 286 283 282 281 277 276 277 278 276 275 275 274
313 314 314 314 313 314 314 314 313 305 303 300 298 298 295 296 294 294 293 293 290 288 287 286 285 286 285 285 284 283 283 282 281 280 277 276 274 275 276 274 273 273 273
313 314 315 314 312 312 311 302 298 296 294 292 290 290 289 290 291 290 289 288 287 286 286 285 284 283 284 283 281 279 278 278 279 279 277 276 275 274 274 273 272 271 273
313 313 313 314 310 304 299 295 293 291 289 288 288 287 286 286 288 287 286 284 283 283 284 284 283 282 284 284 279 277 276 277 279 279 278 277 276 275 274 272 269 268 267
313 312 312 309 304 299 294 292 290 288 287 286 285 286 286 285 287 286 285 284 282 281 281 281 282 281 281 280 278 276 274 274 274 273 273 273 273 273 273 271 270 267 266
301 302 303 302 298 294 291 290 288 286 285 284 283 284 284 285 285 286 285 283 281 279 278 278 278 279 279 278 277 275 273 273 272 272 271 270 270 270 270 271 271 269 266
293 292 291 292 291 290 288 287 286 285 283 282 282 282 283 284 284 284 283 282 281 277 276 276 277 278 277 276 275 275 274 272 271 270 268 267 267 268 268 269 270 270 270
288 287 287 287 287 286 285 284 283 283 282 281 281 280 281 282 282 283 282 280 279 277 277 278 277 276 275 274 273 272 271 269 268 267 266 266 267 268 268 268 268 269 268
284 283 284 284 283 283 284 283 282 282 281 280 278 277 277 278 278 279 279 278 278 276 274 273 272 272 271 270 270 270 269 268 267 266 265 266 266 266 265 266 265 265 265
281 281 280 280 279 279 279 279 279 280 280 279 278 278 276 275 275 276 275 274 273 273 272 271 270 269 268 268 268 267 268 267 265 265 264 264 264 264 264 265 264 264 262
280 280 279 279 279 279 279 279 282 282 282 281 281 279 278 279 279 279 278 277 276 274 270 268 267 267 266 266 265 265 265 265 264 264 262 262 261 262 262 263 263 262 261
278 279 278 278 278 278 278 278 276 280 282 282 281 281 280 280 279 279 277 276 274 271 267 266 265 265 265 265 264 264 263 263 263 262 261 260 260 260 260 261 261 261 260
277 277 277 277 277 277 277 277 276 275 274 275 279 279 279 279 278 276 275 272 268 268 267 265 265 265 265 264 263 263 262 261 260 261 259 258 256 259 258 259 260 258 259
275 275 275 275 276 276 276 275 274 274 273 272 273 274 275 276 275 273 272 268 266 266 265 264 264 263 262 261 259 258 258 258 257 256 256 257 254 256 257 258 258 257 257
275 275 275 274 273 273 272 271 270 270 269 268 267 267 267 266 264 264 265 265 265 264 264 263 262 262 261 259 257 256 257 256 257 257 255 253 253 255 256 257 257 257 258
273 273 273 273 272 272 271 270 269 268 267 266 265 266 266 264 263 263 263 263 262 262 262 261 261 260 260 259 259 256 256 252 256 256 256 256 252 255 257 257 257 258 258
273 272 272 271 271 270 270 269 268 267 266 264 263 264 264 263 262 261 260 259 260 261 262 261 261 261 260 260 258 253 254 253 254 255 255 254 255 256 256 256 256 256 257
272 271 270 270 269 268 268 267 266 265 264 264 263 262 261 260 260 260 258 258 259 258 260 258 258 258 257 254 255 257 256 257 257 255 253 253 255 256 255 255 256 256 257
271 270 269 268 267 267 266 265 264 263 262 261 260 260 260 259 258 257 255 255 255 255 255 255 257 258 257 252 253 255 259 256 257 255 252 252 254 255 255 255 256 256 256
269 268 267 266 266 265 264 263 262 262 261 260 259 258 258 257 257 254 253 254 254 253 253 252 252 253 253 252 253 256 254 253 252 252 253 253 253 253 253 255 255 256 256
267 266 265 265 263 263 262 261 260 260 259 258 258 257 257 257 255 251 250 252 252 251 252 251 252 251 252 254 255 256 252 252 252 251 252 254 253 253 254 254 255 256 257

GFSGL_sfc_thetae_117.txt.gz
Theta_e
321 323 323 321 321 321 321 322 324 324 325 324 324 324 322 320 319 318 318 317 315 315 315 314 315 316 315 314 315 314 313 312 309 313 312 301 297 296 296 296 296 294 292
321 322 322 321 320 319 320 321 323 322 323 323 322 322 322 322 320 318 316 316 315 314 315 315 315 315 315 315 314 314 314 315 312 310 302 293 292 292 292 289 290 293 291
319 321 320 320 319 319 320 320 321 321 320 320 320 320 320 322 320 319 317 316 316 315 315 315 315 315 314 314 314 314 313 308 307 307 292 292 287 289 288 288 286 288 288
318 319 319 319 318 318 319 318 320 320 317 318 318 318 319 319 319 319 318 317 316 316 315 314 313 314 313 310 306 303 300 299 298 294 289 286 286 285 284 282 282 284 283
316 318 319 319 319 318 317 318 318 318 318 318 317 316 317 317 317 317 313 303 298 294 293 293 293 293 292 293 296 295 295 292 290 287 284 282 281 279 278 279 279 280 281
316 318 319 318 318 317 316 316 316 316 316 315 313 311 308 305 296 296 300 297 293 290 288 287 288 288 286 286 285 285 287 287 284 282 279 277 276 277 277 276 276 276 276
315 317 317 317 316 316 316 316 314 309 306 302 300 300 296 296 294 293 292 292 289 288 286 286 285 285 284 283 282 282 281 281 280 279 276 275 273 275 276 275 275 276 277
314 315 316 316 315 315 315 306 301 300 298 295 292 292 291 291 291 290 289 288 286 286 285 285 284 283 282 281 279 278 277 278 278 278 276 275 275 275 276 275 275 276 279
313 314 314 316 313 310 303 298 295 293 291 289 289 288 287 287 288 288 287 285 284 283 284 284 283 282 282 282 278 276 276 276 279 278 278 277 276 275 275 275 274 274 273
313 314 315 315 309 303 297 293 292 289 287 286 286 286 286 286 287 287 286 285 282 281 281 282 282 281 281 280 278 276 273 273 273 273 273 273 274 274 274 273 273 270 270
301 310 309 308 302 297 293 291 288 287 286 285 284 284 285 286 286 286 285 283 281 279 279 279 280 280 279 279 278 276 274 274 273 273 273 273 273 273 273 272 273 271 270
292 295 294 294 293 292 289 288 287 286 284 283 283 282 283 284 284 284 283 281 281 278 277 277 278 278 278 277 276 276 275 274 273 273 272 270 270 271 272 272 272 272 272
288 287 288 288 288 288 287 286 285 285 284 282 282 281 280 281 281 282 281 280 279 277 277 278 278 277 276 274 274 273 272 272 270 270 269 269 270 271 271 271 272 272 272
283 284 285 285 285 285 285 285 284 283 282 281 280 278 278 278 278 279 278 278 278 276 274 273 272 272 271 271 271 271 271 272 271 270 269 270 270 270 270 270 270 270 270
282 282 282 282 281 281 281 281 281 282 282 279 279 279 277 276 276 277 275 273 273 273 272 272 270 270 270 270 269 270 270 270 269 269 269 269 269 269 268 269 269 269 268
280 280 280 280 281 281 280 280 283 282 282 281 281 279 278 279 279 278 278 277 276 275 273 271 270 270 269 268 268 268 268 268 268 268 268 267 267 267 267 268 268 268 267
280 280 280 280 280 279 279 278 277 280 282 282 281 281 280 280 280 279 278 276 275 274 271 269 269 269 269 269 268 268 267 267 267 267 266 265 266 267 267 267 267 267 267
278 279 279 279 279 279 278 278 278 277 276 277 280 280 280 280 279 277 276 273 270 271 270 269 269 269 269 268 268 267 267 267 266 266 265 265 264 266 266 266 267 265 266
276 276 277 277 277 277 276 276 276 275 275 275 276 277 277 277 275 274 273 271 270 269 269 268 269 268 268 267 266 266 266 265 265 265 264 264 264 265 265 266 266 263 264
275 275 275 274 274 273 273 272 272 272 271 271 271 270 270 271 269 270 270 270 269 268 268 267 267 267 267 266 266 266 265 266 265 265 264 265 264 265 265 265 265 265 265
275 275 275 275 274 274 273 272 271 270 269 269 268 269 269 269 268 268 268 268 268 267 267 267 266 266 266 266 266 266 265 265 265 264 264 264 263 264 265 266 265 265 265
275 274 274 273 273 272 271 270 269 269 268 267 266 266 267 268 267 267 267 266 267 267 267 267 266 267 266 266 266 265 265 264 265 265 265 263 264 265 265 265 264 265 265
274 273 272 272 271 270 270 269 268 267 267 267 266 266 266 266 265 265 265 265 266 266 266 266 266 265 265 265 266 266 266 266 265 264 263 263 264 264 264 264 264 264 264
272 272 271 270 270 269 268 267 267 266 266 266 265 265 264 264 264 263 263 264 264 264 264 264 265 264 263 264 266 266 266 265 265 264 260 261 263 263 263 263 264 263 263
272 270 270 269 268 267 267 266 266 266 265 265 264 264 263 263 263 262 263 262 262 263 262 262 263 262 261 260 261 261 260 259 260 258 262 261 261 260 261 262 262 263 263
270 270 269 269 268 267 266 265 265 265 264 264 264 263 263 263 262 262 261 261 261 261 261 262 261 259 258 261 259 259 258 258 259 258 260 262 261 262 262 262 261 262 263

GFSGL_sfc_thetae_123.txt.gz
Theta_e
324 324 324 324 327 329 329 330 331 331 330 328 323 321 317 315 316 317 317 319 319 320 323 324 324 325 325 327 328 327 323 321 316 311 304 299 297 296 295 293 291 289 289
322 322 323 323 326 325 327 329 331 329 330 327 324 322 319 317 316 316 315 317 317 319 321 322 323 323 324 325 324 320 320 321 317 310 297 294 292 292 291 292 290 289 287
318 321 322 322 324 325 325 328 326 326 327 327 326 325 322 319 317 317 317 317 316 318 319 322 323 323 323 321 319 318 319 314 314 308 294 290 289 289 286 287 287 287 286
311 319 320 322 323 324 326 325 324 326 326 326 326 327 326 322 320 319 318 318 317 317 317 318 320 321 320 318 315 314 312 310 307 296 289 286 285 284 285 283 282 284 282
308 310 319 322 323 322 323 323 324 324 324 324 323 322 322 322 322 320 319 318 317 317 312 310 310 309 300 301 311 311 310 299 295 291 286 284 281 281 280 280 280 282 280
306 306 316 321 321 322 322 322 322 323 322 321 320 316 310 305 295 299 309 311 306 296 291 290 292 291 289 288 287 286 293 295 290 287 283 281 278 278 279 278 280 281 279
305 307 309 319 320 323 322 321 321 320 316 308 304 303 299 296 292 293 293 293 291 289 288 287 286 286 286 284 283 282 282 283 284 284 280 278 277 278 279 279 280 281 278
301 303 307 318 320 322 320 318 315 311 303 298 295 295 293 291 290 290 289 288 286 285 285 285 285 284 284 282 280 277 277 277 278 278 278 277 278 279 279 279 280 280 280
296 298 299 316 320 321 316 308 303 299 296 293 292 291 290 289 289 288 288 286 284 283 284 284 284 282 283 284 279 277 276 277 280 280 280 280 280 280 280 280 279 280 278
291 293 295 298 318 315 305 300 298 294 291 290 289 289 289 288 288 288 288 285 282 281 281 281 282 281 281 281 278 276 274 275 275 275 276 277 277 278 279 280 280 278 278
290 292 294 297 311 306 299 295 292 289 288 287 286 287 287 288 287 288 287 285 282 280 279 279 280 281 280 280 279 276 275 276 276 276 275 275 276 277 277 278 278 278 278
290 290 290 297 302 298 294 291 289 288 286 285 284 283 284 285 286 286 285 284 283 280 279 279 279 279 279 279 278 278 277 277 277 276 275 275 276 276 277 278 277 277 277
287 287 287 288 293 294 291 288 287 287 285 283 282 281 281 283 283 284 283 282 281 279 279 279 280 279 279 278 278 278 277 276 277 276 276 276 276 277 277 278 278 278 277
284 285 285 285 285 287 288 288 287 285 284 282 281 279 279 279 279 280 280 280 280 279 277 276 275 276 276 276 277 279 280 280 279 278 276 277 277 277 276 276 276 276 277
283 284 285 284 283 282 282 283 283 284 284 282 280 280 278 277 278 280 278 276 275 274 274 274 274 274 274 275 276 277 278 278 277 277 277 276 275 276 275 276 276 276 276
282 282 283 283 282 281 280 280 283 282 282 282 281 280 279 280 279 279 278 277 278 278 276 276 275 276 277 276 276 276 276 275 276 276 276 276 275 275 276 276 277 276 275
281 281 281 281 280 279 279 278 276 280 282 281 281 280 280 279 279 279 280 280 280 279 276 276 277 277 276 275 275 275 274 275 276 275 275 275 276 275 276 275 275 275 274
279 279 280 280 279 279 278 278 277 276 275 276 280 279 280 280 280 279 279 278 276 277 277 276 276 276 276 274 274 273 274 275 275 275 274 275 275 275 275 274 275 273 273
277 277 278 279 279 279 278 277 277 276 275 275 276 277 278 279 279 279 279 278 277 276 276 276 276 276 275 275 276 276 276 275 275 274 274 274 274 275 274 274 274 272 272
277 277 277 276 277 278 277 276 275 274 273 273 273 274 276 277 276 277 277 277 277 277 277 276 276 276 276 275 274 273 273 274 274 274 274 274 274 274 273 273 273 273 273
279 277 276 276 275 275 276 275 275 275 275 275 277 277 277 277 276 276 275 276 276 276 276 275 275 275 275 275 275 275 274 274 273 273 273 272 272 273 273 274 273 273 273
280 279 278 276 276 275 274 274 273 273 273 273 274 275 276 276 276 275 275 275 276 276 276 275 275 274 275 275 275 274 273 272 272 273 271 271 272 273 272 273 272 272 272
279 277 277 277 276 275 275 273 273 273 273 273 273 274 274 274 274 273 273 274 274 275 275 274 274 273 274 274 275 274 273 272 271 271 271 271 271 272 271 271 271 271 270
279 278 277 277 276 275 274 273 273 273 274 273 273 273 273 273 273 273 273 273 272 272 272 272 272 271 271 272 272 272 271 271 271 269 268 268 270 270 269 270 270 270 269
279 278 277 276 275 274 274 274 273 273 273 273 272 272 272 272 271 271 271 271 271 270 270 269 269 268 267 267 268 266 265 263 264 262 268 268 268 267 268 268 268 269 269
278 277 276 276 275 275 274 273 273 272 271 272 271 271 271 270 270 270 270 269 269 269 268 268 268 267 267 267 266 263 262 262 263 261 263 267 268 268 269 268 267 268 268

GFSGL_sfc_thetae_129.txt.gz
Theta_e
309 311 312 316 322 323 325 326 327 327 326 324 322 319 319 319 319 320 320 320 320 320 321 321 320 321 320 318 320 319 316 315 306 298 298 295 294 293 292 292 291 290 290
308 308 309 312 317 322 323 325 327 327 326 323 321 318 319 318 318 318 318 319 319 318 319 320 320 320 319 320 318 318 317 314 308 297 294 293 291 290 289 288 288 289 288
306 305 307 308 312 318 322 324 326 326 325 324 321 318 318 317 317 317 318 318 319 319 319 319 319 319 317 319 316 316 316 312 306 298 294 291 290 289 287 286 285 285 286
304 304 304 306 308 310 318 322 324 325 325 323 322 320 319 317 317 316 317 317 318 318 318 319 319 319 319 318 315 313 312 307 303 297 291 288 287 287 286 283 281 283 282
302 302 303 305 306 307 311 321 324 324 324 324 323 322 319 318 317 316 316 316 316 316 316 318 318 315 309 312 315 312 308 301 297 293 288 284 283 283 283 284 281 280 280
300 300 302 303 302 302 308 315 322 323 321 320 321 321 320 316 302 301 309 314 314 313 312 310 313 307 305 300 300 301 305 301 296 294 291 288 284 285 283 283 279 278 277
298 297 298 298 297 298 300 303 320 320 318 313 310 308 303 301 294 297 298 308 308 307 308 297 291 294 294 291 289 288 288 290 293 292 291 288 284 284 284 282 282 281 278
295 293 292 292 293 295 297 301 312 313 310 304 299 297 294 291 291 292 290 290 288 287 287 288 289 287 289 288 289 285 284 285 285 286 287 284 283 284 285 284 280 277 277
290 288 290 290 291 293 294 297 302 303 302 296 294 291 290 288 289 289 289 287 285 285 285 286 285 286 288 291 286 284 283 282 285 285 285 285 285 284 283 280 277 278 276
286 286 288 289 291 291 292 295 301 300 294 291 289 289 288 288 289 289 288 286 283 282 283 285 286 285 285 287 285 283 279 279 280 280 281 282 282 282 282 282 281 278 276
284 286 287 289 290 291 292 294 295 293 290 288 287 287 287 287 288 288 287 285 283 282 281 281 283 284 285 285 285 283 279 278 278 277 277 277 278 278 278 277 278 280 275
283 285 286 288 289 290 292 295 292 290 288 286 285 284 285 285 287 286 286 284 284 280 279 280 281 282 282 281 280 280 279 277 277 276 275 275 274 275 276 276 276 276 276
283 284 285 286 286 287 289 289 288 288 287 285 284 282 282 283 284 285 284 282 281 279 280 281 282 281 280 279 279 279 278 277 276 275 274 274 275 276 277 276 276 275 276
281 283 283 283 283 282 284 286 286 285 285 285 283 281 280 280 280 280 281 281 282 281 280 278 278 278 278 278 278 278 277 277 275 274 274 275 276 276 275 276 275 275 273
280 282 281 281 281 281 281 282 284 284 285 284 284 281 279 278 279 281 280 279 277 277 277 278 277 277 276 276 276 276 277 276 275 275 274 274 275 275 275 276 276 274 272
279 280 280 280 279 280 279 280 283 283 283 283 283 282 281 282 282 281 280 280 280 280 277 275 275 275 275 275 275 275 275 275 275 275 275 275 274 274 274 274 274 272 270
278 279 279 278 278 276 277 277 276 280 282 282 282 282 281 281 281 281 281 280 280 279 276 275 274 274 274 274 274 274 274 275 276 275 274 274 274 273 272 272 271 270 270
277 278 277 277 277 276 276 276 277 276 276 277 281 280 281 281 281 281 281 279 275 276 275 273 273 273 273 273 274 273 274 274 274 274 273 272 272 272 270 270 268 264 267
276 277 276 275 275 275 275 275 276 276 277 277 278 280 281 281 281 280 279 275 274 273 274 273 273 273 273 274 274 273 273 272 272 271 271 271 270 270 269 268 267 266 268
276 276 276 275 274 274 274 274 274 274 274 274 274 275 276 276 274 274 275 274 274 273 273 273 274 274 273 272 273 272 272 271 271 270 270 269 268 269 269 268 267 267 268
276 275 275 274 274 274 274 274 274 274 273 273 273 274 275 274 273 273 273 274 274 274 273 273 273 272 273 273 273 273 272 271 271 270 269 268 268 267 268 267 268 267 267
275 274 274 273 273 273 273 273 273 273 273 272 272 273 274 273 273 272 273 273 273 274 274 274 273 274 273 272 272 271 270 269 269 269 268 268 269 268 266 265 264 264 265
276 274 273 273 273 273 272 272 272 272 271 271 271 271 272 271 271 271 271 272 272 272 273 273 272 272 271 271 272 270 268 267 267 267 266 267 266 264 263 263 262 261 260
274 273 273 273 272 272 272 271 271 271 271 271 270 270 270 270 269 269 269 269 269 269 269 269 269 269 267 266 266 266 266 265 265 264 264 265 263 263 261 260 260 258 258
274 273 273 272 272 271 271 270 270 270 270 270 269 269 269 269 268 268 268 268 267 267 266 266 266 264 263 262 262 262 262 260 260 260 262 262 260 258 258 259 257 259 257
274 273 273 272 271 271 271 270 270 270 269 269 269 268 268 268 268 268 267 267 266 266 266 265 263 262 262 261 261 261 260 259 258 257 257 260 260 259 258 257 256 256 258

GFSGL_sfc_thetae_132.txt.gz
Theta_e
307 308 308 308 310 313 320 321 324 327 326 325 325 325 324 324 324 323 323 323 322 322 323 321 321 322 321 319 318 316 315 313 307 297 296 296 295 294 293 292 292 291 292
305 305 306 308 308 308 310 317 324 325 326 325 323 322 321 320 320 320 320 320 320 320 320 320 320 321 320 320 318 316 315 314 306 296 293 292 291 291 290 289 289 289 289
303 303 304 305 305 305 306 310 315 323 325 325 323 321 319 318 318 318 318 318 318 319 319 319 319 320 319 319 319 317 317 312 306 295 293 292 289 288 286 286 286 286 288
301 301 300 302 302 303 303 305 311 317 323 324 322 321 319 317 317 317 318 318 317 318 319 319 319 319 318 319 317 317 316 309 303 299 293 290 288 287 286 283 282 284 284
298 297 297 299 300 299 299 301 303 308 320 324 323 321 319 317 316 316 316 316 316 316 316 317 318 316 309 312 318 314 311 306 302 295 291 287 285 284 283 284 281 280 281
295 295 295 294 294 295 296 297 300 305 311 323 322 320 318 316 304 301 310 315 314 314 313 313 313 306 305 301 301 301 306 303 298 296 293 288 286 287 285 283 280 278 277
293 292 291 291 291 292 293 295 297 300 303 315 319 320 317 314 299 299 299 312 311 311 311 305 300 299 302 295 296 296 295 296 297 298 292 291 287 288 286 282 282 283 279
289 288 288 289 289 290 292 293 294 296 300 311 311 308 305 296 294 296 295 296 292 289 289 289 292 288 291 292 288 289 289 289 291 294 296 292 290 289 289 287 284 278 279
284 285 286 287 288 289 290 291 292 294 296 302 301 298 296 290 290 290 292 289 286 285 286 286 286 287 290 293 288 286 285 284 288 288 288 288 289 288 285 282 279 278 275
282 283 285 287 288 288 289 290 292 293 296 293 290 293 291 288 289 290 290 287 285 284 285 285 286 286 287 288 288 287 284 284 284 284 284 284 285 285 284 285 282 279 275
282 282 284 286 287 288 289 290 291 293 291 288 286 287 288 288 288 289 289 287 285 283 283 283 285 286 286 287 288 286 283 281 280 280 280 279 279 279 280 282 282 281 277
281 282 283 285 286 286 285 287 291 290 287 286 285 285 285 286 287 288 287 286 285 282 281 282 283 285 285 284 282 282 282 280 280 278 277 276 276 275 276 277 277 277 277
280 280 282 283 284 284 283 284 287 288 286 285 285 284 283 284 285 286 285 284 282 281 282 283 283 282 282 281 281 280 280 279 278 276 275 274 275 275 276 275 276 276 276
278 279 280 279 280 282 282 282 284 285 285 285 285 283 282 282 281 282 281 282 283 282 281 279 278 278 278 278 278 278 278 278 276 275 274 275 276 275 274 275 274 274 273
277 277 277 277 279 280 280 281 282 284 286 285 285 283 281 280 280 282 281 280 279 278 277 277 277 277 276 275 276 276 276 276 275 275 275 275 275 275 275 276 275 274 272
276 276 276 276 277 277 276 278 282 283 284 284 284 282 281 282 283 283 283 281 280 280 278 276 275 275 275 275 274 274 275 275 275 275 275 275 275 274 274 274 274 273 272
275 276 276 276 276 275 273 275 274 279 283 284 284 283 283 283 283 282 282 281 281 280 276 275 275 275 274 274 274 274 274 275 276 275 275 275 274 274 273 273 272 272 271
276 275 274 274 274 274 274 275 275 275 276 277 282 282 282 282 282 282 281 279 276 276 275 274 274 274 274 274 274 274 274 274 274 274 274 273 273 272 272 271 270 269 270
275 275 275 275 275 275 275 274 274 275 276 277 278 280 281 281 280 279 278 275 274 273 274 273 274 274 273 274 274 274 274 273 273 273 272 272 271 271 270 270 270 269 269
275 275 274 275 274 274 275 273 273 273 273 273 273 274 275 275 273 273 274 274 273 273 273 273 273 273 273 273 273 273 272 272 272 272 271 271 271 271 270 269 268 268 267
274 274 274 273 273 274 274 273 273 273 272 272 272 274 274 273 273 273 273 273 273 272 273 273 273 273 273 273 273 272 271 271 271 271 271 271 271 269 269 269 268 268 267
274 274 273 273 273 272 272 273 272 272 271 271 271 272 273 273 272 272 272 272 273 273 273 273 273 273 273 272 272 271 270 270 270 270 270 270 270 269 269 268 267 267 267
273 273 273 273 273 272 271 271 271 271 270 270 270 270 270 270 270 270 270 271 272 272 273 272 271 271 271 271 271 271 270 269 269 270 269 269 268 267 267 266 265 264 263
272 272 272 272 271 271 271 270 270 270 270 269 269 269 269 268 268 268 268 268 268 268 268 268 268 267 267 267 267 267 267 267 268 268 268 267 266 266 265 264 263 258 257
270 271 271 271 271 270 270 270 269 269 269 268 268 268 268 268 267 267 267 267 267 266 265 265 265 264 264 263 263 263 264 263 264 266 266 265 263 262 262 261 258 259 256
272 271 271 270 270 270 270 269 268 268 268 268 267 267 267 267 267 266 266 266 265 264 264 263 263 262 262 262 262 262 261 261 261 262 264 264 262 260 259 259 259 258 257

GFSGL_sfc_thetae_135.txt.gz
Theta_e
303 305 305 306 308 309 309 310 314 320 322 323 325 325 326 326 325 324 324 324 323 323 323 323 321 322 322 321 319 318 316 315 310 296 297 297 296 296 295 295 295 294 295
302 303 304 305 305 305 305 305 307 311 318 323 325 325 325 325 324 324 323 323 322 321 322 322 321 322 321 321 319 317 316 316 307 295 294 293 293 292 291 290 290 291 291
300 299 299 300 301 301 300 302 303 306 310 318 323 322 322 323 323 323 323 322 321 322 321 320 320 319 319 319 319 317 317 315 307 295 293 293 289 289 287 287 287 287 289
297 296 296 296 296 296 298 298 299 301 304 310 318 323 322 321 321 320 321 320 319 319 319 319 319 319 319 319 318 316 315 311 303 299 294 291 288 287 287 284 283 286 285
294 294 293 293 294 294 295 295 297 298 301 306 310 322 321 320 319 318 318 317 317 316 316 317 318 315 309 313 318 317 315 308 301 297 292 288 286 285 285 286 284 283 282
291 290 290 290 291 292 292 293 295 296 297 299 304 310 320 318 305 302 311 315 315 314 314 314 315 306 306 301 301 301 309 306 301 296 293 289 287 286 286 284 281 280 279
287 287 287 288 288 289 291 292 293 294 294 296 299 304 317 318 301 301 301 314 313 313 312 309 305 304 304 305 297 297 297 297 299 301 294 293 287 288 287 284 284 284 281
284 283 284 285 286 288 290 290 291 292 293 294 296 302 310 312 298 298 298 308 306 300 297 296 300 293 291 295 291 290 291 298 297 299 299 296 294 291 290 289 286 281 281
281 281 282 284 285 287 287 288 290 291 292 294 296 296 298 302 293 295 298 295 290 287 286 286 287 287 290 293 290 288 286 285 289 294 296 294 292 291 290 285 282 281 277
280 280 282 284 285 285 286 288 288 289 291 293 292 291 290 292 291 292 296 292 287 286 285 285 287 287 289 289 290 288 286 284 286 287 288 289 289 287 287 289 287 285 277
280 281 281 283 283 285 285 285 285 287 291 290 287 287 288 288 289 291 292 293 289 285 284 284 285 287 288 289 288 287 287 286 284 284 284 284 284 284 284 285 285 284 280
279 280 280 282 282 283 283 283 284 285 288 287 285 285 285 285 287 288 289 288 288 285 283 284 285 286 286 285 284 284 284 284 284 282 281 279 279 278 278 278 278 278 279
278 278 278 280 280 281 281 281 281 283 286 286 284 284 284 284 285 286 286 285 284 282 283 285 285 284 284 283 283 283 283 282 281 279 277 276 276 276 276 276 277 278 278
277 276 277 277 278 278 278 280 281 281 282 285 285 284 283 282 282 282 283 283 284 283 282 280 279 279 279 279 279 279 280 280 279 277 275 275 276 275 275 276 274 275 274
276 277 276 277 275 275 276 276 279 281 282 282 285 284 282 280 281 282 282 282 281 279 278 278 278 277 276 276 276 277 277 277 276 276 275 275 274 274 274 275 275 274 272
276 276 274 273 273 273 272 273 278 281 283 284 285 284 282 283 284 284 284 282 281 280 279 277 276 276 275 275 275 275 275 275 276 276 275 275 274 274 274 275 275 274 272
274 275 273 272 273 273 273 273 272 276 281 283 284 284 284 284 284 283 282 282 282 280 277 276 275 275 275 275 275 274 274 275 276 276 275 275 274 274 274 273 273 273 271
273 274 274 273 274 274 273 273 272 273 274 276 281 282 283 283 283 283 282 279 275 276 275 275 274 275 274 274 274 274 275 275 275 275 274 274 274 273 273 272 272 270 270
273 273 274 274 275 274 274 273 272 271 272 272 274 275 276 279 279 279 278 275 273 273 274 274 274 274 274 274 274 274 274 274 274 273 273 273 273 272 271 271 270 270 270
273 274 274 274 274 273 273 273 272 272 271 272 272 272 274 274 273 273 274 274 274 273 273 273 273 274 274 274 273 273 273 273 272 272 272 272 272 272 271 270 270 269 269
273 274 274 273 272 272 272 271 271 271 271 271 271 273 273 272 271 271 272 272 272 273 273 273 273 273 274 274 273 273 272 272 272 272 271 271 271 270 270 270 269 269 268
273 273 273 272 272 271 271 271 271 270 270 270 270 271 272 271 271 271 272 272 272 273 273 273 272 272 272 272 272 272 271 271 271 271 271 271 270 270 270 269 268 268 268
271 271 272 272 272 271 271 270 270 269 269 269 269 268 269 268 268 268 268 270 270 270 271 270 270 269 270 270 271 272 271 270 271 271 270 270 269 269 268 267 267 266 266
271 271 271 271 271 270 270 269 269 269 268 268 268 267 267 267 267 267 267 268 267 267 268 268 268 268 267 267 268 268 268 269 270 270 270 268 267 267 267 266 265 264 263
270 270 269 270 270 269 269 269 268 268 268 267 267 267 267 267 267 266 266 266 265 265 264 265 265 265 264 264 264 265 267 267 267 268 268 267 266 265 265 264 263 262 261
270 270 269 269 269 269 268 268 267 267 267 267 267 266 266 266 266 266 265 265 264 263 263 263 263 263 263 263 263 264 264 265 265 266 266 266 264 264 263 262 261 261 259

GFSGL_sfc_thetae_138.txt.gz
Theta_e
300 301 301 302 303 304 304 304 305 309 312 317 320 322 325 325 326 326 326 326 324 324 324 322 322 323 321 321 320 319 316 316 312 297 298 299 298 299 300 301 301 301 301
298 298 298 298 299 299 300 301 303 303 306 310 315 321 324 325 325 324 324 324 324 322 322 322 321 321 320 322 321 319 317 317 314 296 295 294 295 296 295 294 293 295 295
295 296 295 294 294 294 296 297 299 300 301 303 310 314 321 323 323 324 324 323 323 323 323 322 322 320 320 320 320 319 318 317 316 300 294 293 290 291 289 289 289 290 292
292 293 291 291 292 292 293 294 295 297 299 301 303 309 312 321 322 323 322 323 322 322 322 322 322 321 320 320 319 318 317 315 308 300 298 294 290 290 290 286 286 288 287
289 289 288 289 290 291 291 292 293 296 297 298 299 303 307 312 321 321 321 321 320 319 319 320 320 317 309 312 317 317 317 315 302 299 293 289 287 286 287 288 286 284 284
286 285 286 286 287 288 289 290 292 294 295 296 296 298 300 306 304 302 311 319 318 317 315 315 316 306 306 300 300 301 310 306 302 298 294 291 289 288 288 287 284 282 280
284 283 283 284 284 286 288 289 290 291 293 293 295 297 298 302 298 300 299 317 316 316 314 312 308 307 305 309 298 296 297 297 300 302 296 294 290 289 289 286 285 285 282
281 281 282 282 283 286 286 287 288 289 290 291 293 295 297 298 295 295 297 310 313 311 308 304 306 296 298 301 297 293 291 298 299 299 302 299 296 293 291 291 288 284 283
280 280 281 282 282 284 284 285 286 286 287 289 292 294 294 294 292 291 292 305 299 293 290 290 293 293 294 296 293 291 288 287 290 295 295 296 294 292 293 288 284 285 279
279 279 281 282 282 282 283 284 284 285 286 288 290 291 290 290 290 291 292 300 294 291 288 287 289 289 289 290 293 291 289 287 287 288 288 290 291 291 290 293 289 287 279
279 280 280 280 281 282 282 282 283 283 284 286 288 289 288 287 288 290 291 291 291 289 288 286 286 287 288 289 290 289 289 286 286 287 287 288 288 287 288 288 290 290 285
279 279 279 279 280 281 280 280 281 281 282 284 286 287 287 286 286 287 288 288 288 287 287 286 286 288 287 287 286 286 286 285 285 285 284 284 283 280 281 282 283 283 284
277 277 278 278 278 278 278 278 279 280 280 280 282 285 286 285 285 285 286 286 286 284 285 285 286 286 285 284 285 285 285 285 283 282 279 277 277 278 279 278 279 279 279
276 274 275 274 275 275 275 275 276 277 278 279 280 281 285 283 282 283 283 285 285 285 284 283 282 281 281 281 281 282 283 283 280 277 275 276 277 277 277 278 276 276 275
275 273 273 273 271 272 274 273 274 275 279 280 281 282 283 284 282 283 283 282 281 279 279 279 279 278 277 278 278 278 279 279 277 277 276 275 275 275 275 276 276 275 273
273 273 273 272 272 272 272 273 278 279 281 281 283 284 284 284 284 284 284 282 281 281 279 277 277 277 277 276 276 276 277 276 276 276 276 275 274 274 274 275 275 274 273
272 273 272 272 272 272 272 271 270 274 278 279 280 283 285 284 284 285 283 282 282 280 277 276 275 276 275 276 276 275 275 276 277 276 275 275 275 274 274 274 274 273 272
271 272 271 272 273 273 272 272 271 271 270 271 276 278 280 281 282 282 281 279 276 277 276 275 274 275 275 275 275 275 275 275 275 275 275 274 274 274 273 273 272 272 271
271 272 272 272 272 273 273 273 272 271 270 270 271 273 274 278 278 278 278 274 274 273 274 274 274 274 274 275 275 275 275 274 274 274 274 274 274 273 272 272 272 272 272
271 272 272 272 272 272 272 271 271 271 271 270 270 270 272 272 271 272 273 274 273 273 274 274 274 274 274 274 274 274 273 273 273 273 272 273 273 273 272 271 272 271 271
270 271 271 271 272 272 271 271 270 270 269 269 269 270 272 271 271 271 271 272 272 272 273 273 274 274 274 274 273 273 272 272 272 272 272 272 272 271 271 271 271 271 270
270 270 271 271 271 271 270 270 270 269 268 268 268 269 269 269 269 269 269 270 271 272 272 272 272 273 273 273 273 272 272 271 272 272 271 271 271 270 270 269 269 269 269
271 270 271 271 270 270 270 269 269 268 268 268 268 267 267 267 267 267 267 268 269 269 270 271 270 270 270 271 272 272 271 271 272 272 271 270 270 269 269 268 268 268 268
271 270 270 269 269 269 269 268 268 268 268 267 267 267 267 266 266 266 266 267 267 267 267 267 267 268 269 269 270 271 271 271 271 271 271 269 268 268 268 267 267 266 266
270 269 268 268 268 268 268 268 267 267 267 267 266 266 266 266 266 265 265 265 265 265 264 265 266 266 266 266 267 267 269 269 269 270 269 269 268 267 266 266 265 265 264
270 269 268 268 267 267 267 266 266 267 266 266 266 266 266 265 265 265 265 264 264 263 263 263 263 263 265 265 266 266 266 267 267 268 268 267 266 266 265 265 264 264 263

GFSGL_sfc_thetae_141.txt.gz
Theta_e
300 300 300 300 301 301 302 303 304 307 308 310 313 318 325 327 327 326 328 327 326 327 325 325 324 325 323 323 322 321 319 320 317 307 306 305 306 308 307 312 313 316 313
297 297 297 297 296 297 299 300 301 302 304 306 308 313 317 324 326 325 325 325 325 325 325 324 323 323 323 323 322 321 319 322 320 310 302 299 298 305 304 302 300 305 311
292 293 293 293 294 295 296 297 299 299 301 303 305 306 311 314 320 324 324 323 325 325 325 324 323 322 322 322 321 321 323 320 319 303 296 296 292 295 293 293 294 295 296
289 289 289 290 292 292 294 295 296 298 299 301 302 303 306 310 312 319 323 323 324 325 325 324 324 322 322 321 321 324 320 318 316 307 299 296 293 291 292 289 289 291 290
286 287 287 289 290 290 291 294 295 296 297 298 299 300 302 305 308 307 310 321 321 322 323 322 323 320 311 316 322 321 319 317 309 305 294 290 288 288 289 290 289 287 286
285 284 286 287 288 289 290 291 293 293 294 294 297 298 299 302 296 295 295 302 320 319 319 320 322 310 309 302 303 304 313 316 305 302 297 295 292 292 291 290 286 285 284
283 284 284 285 285 287 288 289 289 290 291 291 293 295 297 299 295 294 293 298 307 317 318 318 317 313 309 315 299 297 298 299 300 305 299 300 294 293 291 287 287 288 288
282 282 282 283 284 285 286 286 287 288 287 288 291 293 295 296 293 292 291 296 301 310 315 314 314 306 308 308 303 295 296 299 299 303 311 310 305 297 294 293 290 287 285
280 280 281 282 282 283 284 284 285 285 285 287 289 291 293 294 291 290 290 295 299 298 297 299 301 298 298 300 299 296 293 291 290 296 298 298 295 294 294 291 286 287 282
280 280 281 281 281 281 282 283 283 284 284 285 287 290 291 292 291 289 290 293 293 296 291 289 292 295 295 293 303 299 294 292 289 291 290 291 293 292 291 294 290 289 285
280 280 280 281 280 281 282 282 282 282 283 283 284 287 290 291 290 289 289 291 290 290 291 292 292 288 290 292 295 296 296 289 286 288 288 289 290 290 291 291 291 293 288
280 280 279 280 280 280 280 281 281 282 281 281 282 283 286 290 288 288 287 288 288 288 288 288 286 288 289 289 289 287 287 287 288 287 287 287 287 288 288 286 287 285 286
279 279 279 279 279 279 279 279 279 280 280 280 280 281 282 285 288 286 285 286 286 286 286 286 288 287 287 286 287 286 286 287 286 286 283 280 280 281 281 280 280 280 280
277 276 277 277 278 278 279 279 278 278 279 281 280 280 282 284 286 287 286 286 286 285 285 284 284 283 284 285 285 285 286 286 286 281 278 278 280 280 279 281 278 279 277
277 276 277 277 277 277 278 278 278 280 280 279 280 280 283 282 285 285 284 284 283 280 281 281 280 280 279 280 280 280 281 281 279 278 278 278 278 277 277 278 278 277 275
276 276 277 276 277 277 277 278 279 278 279 279 280 280 282 284 285 285 284 282 281 281 281 279 278 279 278 278 278 278 279 279 279 278 278 278 277 276 276 277 277 276 274
275 276 276 276 276 276 276 276 275 278 278 278 278 279 280 281 281 283 283 282 282 281 279 278 277 277 277 276 277 277 276 277 278 278 277 277 276 276 276 276 276 276 275
275 274 276 276 276 276 276 275 275 275 274 275 277 277 277 278 279 280 280 279 277 278 277 276 275 276 276 276 276 276 276 276 277 277 276 276 276 275 275 274 275 274 274
275 276 276 276 275 275 275 275 275 274 274 274 275 275 276 276 277 277 278 277 276 275 276 276 275 275 275 275 275 275 276 275 276 276 275 275 275 274 273 274 274 275 275
276 274 274 276 275 275 275 274 273 273 273 272 272 272 274 275 275 275 275 275 275 276 275 275 275 275 275 275 275 274 274 274 274 274 274 274 274 274 274 274 275 275 275
276 276 273 275 274 274 274 273 273 272 271 271 271 271 271 272 271 272 272 273 273 275 275 275 275 275 276 276 275 274 274 273 273 274 273 273 274 274 275 275 275 275 274
275 275 275 274 274 273 272 273 272 272 271 271 271 271 270 270 270 269 270 271 273 274 274 274 274 275 276 275 275 275 274 273 273 273 273 273 273 274 274 273 273 273 274
275 274 274 274 273 272 273 272 271 271 271 271 270 270 270 269 268 268 268 269 270 270 272 273 273 273 274 274 275 275 275 274 275 275 274 273 273 273 273 272 272 272 272
274 273 273 273 272 272 272 271 271 270 270 270 269 269 268 268 267 267 267 268 268 269 270 270 271 272 273 273 274 274 274 274 274 274 273 272 271 271 271 271 271 270 270
273 272 272 272 271 271 271 271 271 270 270 269 268 268 268 267 267 267 267 267 267 267 267 268 269 269 270 270 271 271 272 272 272 272 272 271 270 270 270 270 269 269 269
272 272 271 271 271 271 270 270 270 270 269 269 268 268 267 267 266 266 266 266 266 266 266 267 267 268 269 269 269 269 270 270 270 271 271 271 270 269 269 268 268 268 268

GFSGL_sfc_thetae_144.txt.gz
Theta_e
293 296 298 301 303 307 307 308 310 312 313 313 315 320 321 322 329 326 326 326 326 327 327 327 326 327 326 326 326 327 327 328 322 324 326 328 324 323 320 321 320 319 315
289 292 294 298 300 301 304 305 308 308 310 309 312 314 319 323 322 327 326 325 325 325 325 325 325 326 325 325 324 323 325 325 321 321 316 314 317 315 314 313 314 315 317
290 290 292 293 294 297 300 303 305 306 307 308 310 310 311 315 318 320 319 324 323 324 326 325 325 326 324 323 323 322 323 324 324 322 313 313 306 303 299 297 299 299 305
289 291 290 291 292 295 298 300 300 303 303 304 306 307 309 310 312 316 314 310 313 323 325 325 327 326 324 324 322 322 322 321 320 319 305 305 299 297 300 296 293 293 292
287 288 288 290 292 295 296 297 299 300 300 301 303 304 306 307 308 304 304 307 308 309 322 324 324 322 313 318 322 321 321 321 320 317 305 296 295 293 296 295 294 289 287
287 287 289 290 291 292 293 293 295 296 297 298 299 301 301 302 294 293 294 299 305 307 311 321 323 310 309 302 302 305 316 320 318 311 303 301 297 298 296 293 288 287 287
285 286 287 287 287 289 291 292 292 292 293 294 296 297 297 299 293 293 291 296 302 307 309 314 316 317 309 316 302 300 300 301 306 317 305 306 301 300 297 290 289 291 291
283 283 284 284 285 285 288 289 290 290 290 291 292 294 294 295 292 291 290 297 302 305 306 308 314 309 309 314 311 299 300 310 306 310 316 314 315 308 299 300 293 287 285
282 282 283 284 284 284 285 286 287 288 289 288 291 291 292 293 291 290 290 295 296 298 298 297 300 301 298 301 304 299 295 294 293 298 302 302 299 298 299 294 287 288 285
282 283 284 284 285 285 285 285 287 288 288 289 288 289 288 291 291 290 290 292 292 294 293 292 291 292 293 294 307 306 300 297 295 291 293 294 295 295 292 299 292 289 286
283 284 284 284 283 284 285 287 287 287 287 287 286 288 289 289 290 289 289 290 290 289 291 293 296 290 289 290 294 305 305 293 290 293 292 292 292 293 293 295 293 294 289
283 283 283 284 283 284 284 285 285 285 285 285 285 286 289 288 287 288 288 287 287 287 288 291 292 289 289 289 289 292 290 290 291 290 290 289 289 290 291 290 288 287 289
282 282 282 283 283 283 283 283 282 282 282 282 283 284 285 287 288 288 287 287 287 287 289 288 287 288 289 288 288 287 287 288 289 289 289 288 287 288 286 283 283 284 285
280 280 281 280 280 282 282 282 281 280 280 281 281 281 284 285 286 288 287 287 287 287 285 285 284 284 285 285 287 286 288 288 289 289 284 281 282 283 283 283 281 281 279
280 281 281 281 280 280 282 281 281 281 280 279 279 279 280 281 282 283 285 285 285 284 283 285 284 283 282 283 282 283 286 285 283 282 281 280 281 281 280 282 281 280 277
279 281 280 280 281 281 280 282 282 281 280 280 279 279 280 280 280 282 282 284 283 283 282 283 283 282 281 280 280 280 280 280 280 281 280 280 279 279 278 279 279 279 276
278 279 279 280 279 279 279 279 278 281 281 280 279 278 279 278 279 280 280 281 282 281 282 282 280 280 279 279 278 278 278 279 280 279 279 279 279 278 278 278 278 277 277
278 278 278 279 279 279 278 278 278 277 277 278 280 278 277 278 279 279 279 281 282 282 281 280 278 278 278 278 277 277 277 278 278 278 278 278 278 278 277 278 279 279 279
279 279 278 279 279 278 278 278 278 277 277 277 278 277 277 277 278 278 279 279 279 279 279 279 279 278 278 277 277 277 276 276 277 277 277 277 278 277 276 277 278 278 278
279 278 278 278 278 278 278 277 277 276 276 276 275 274 274 276 275 275 276 277 278 279 279 278 278 278 278 277 277 276 276 276 275 275 275 276 277 276 276 277 278 278 278
278 278 277 278 278 277 276 276 276 276 275 275 275 275 272 274 274 274 274 275 276 277 278 278 278 278 278 278 277 276 276 275 275 275 275 275 276 276 277 277 277 276 276
278 277 278 277 277 276 276 276 276 275 275 274 274 275 273 274 273 273 273 273 274 275 277 279 279 279 279 278 277 276 277 276 276 276 275 275 275 276 276 276 277 276 276
277 277 277 277 276 276 276 276 275 275 275 275 274 274 274 273 272 272 272 272 272 273 274 276 277 277 278 278 279 278 277 276 277 277 276 276 275 276 277 276 276 276 276
276 276 276 276 276 276 275 275 275 274 274 274 274 274 273 273 272 271 271 271 271 271 273 273 274 275 275 276 276 277 276 276 276 275 275 275 275 275 275 275 275 275 275
275 275 275 275 275 275 275 275 275 275 274 274 274 274 273 273 272 271 270 270 270 270 271 272 273 273 273 273 273 274 274 274 275 275 275 274 274 273 273 273 273 273 273
274 274 274 274 274 274 274 274 274 274 273 273 273 273 272 271 271 270 269 269 269 269 270 271 271 271 271 272 272 272 272 272 273 274 275 274 273 272 272 272 272 272 272

GFSGL_sfc_thetae_147.txt.gz
Theta_e
288 291 292 294 297 299 304 308 310 313 315 317 318 323 323 326 328 328 327 326 325 326 327 327 327 328 327 327 328 329 327 326 323 328 327 328 329 326 326 325 325 325 321
288 291 291 290 293 297 301 304 308 310 311 313 315 316 319 320 323 323 323 326 325 324 325 324 325 326 325 327 327 326 327 328 323 322 327 327 325 326 323 321 321 321 322
288 289 290 290 289 293 296 301 304 306 308 309 311 312 313 314 317 320 320 319 315 320 324 324 324 324 323 325 325 324 324 324 324 321 317 317 311 313 308 304 303 305 305
288 288 289 290 290 292 295 296 299 303 304 305 307 309 310 310 312 310 308 309 311 314 312 322 324 324 323 324 323 323 322 321 321 320 314 306 308 305 308 302 299 297 296
287 288 289 290 291 292 293 295 296 297 300 302 304 305 307 308 302 301 301 303 304 308 314 316 321 320 311 316 324 324 323 320 319 318 307 300 300 298 300 303 304 295 292
286 286 288 289 289 290 291 294 294 295 296 298 300 301 303 303 292 293 293 298 301 303 307 313 317 311 310 301 301 302 316 320 318 317 314 306 305 305 308 301 294 290 291
286 285 286 287 287 288 289 291 292 293 293 295 295 297 298 300 292 292 291 296 300 302 304 307 309 314 309 322 304 297 298 301 306 319 313 309 307 307 306 297 294 294 296
285 284 285 286 286 288 289 289 290 291 291 291 292 294 294 296 291 291 290 297 298 299 300 300 301 300 303 305 314 302 303 310 309 311 319 319 317 313 310 304 298 287 286
284 284 285 286 285 286 286 287 288 289 291 291 291 291 292 291 290 289 289 293 294 294 296 296 295 295 293 295 297 300 296 300 297 299 303 306 303 302 306 295 288 289 284
283 285 286 286 286 285 286 287 288 288 289 290 289 290 290 292 289 288 288 290 290 291 292 293 291 291 289 289 291 296 298 299 296 293 295 297 299 298 293 301 293 291 285
285 285 286 286 286 287 287 287 287 287 287 287 286 288 290 289 289 288 288 289 288 287 288 289 292 289 289 289 290 292 297 293 293 298 298 295 293 296 296 296 295 295 288
285 284 284 285 285 285 285 285 285 285 284 284 284 285 288 288 287 286 286 287 287 286 287 288 289 287 287 287 288 289 289 289 293 295 294 291 292 294 293 291 291 289 291
283 282 282 284 283 283 282 283 282 282 282 282 282 282 283 286 287 284 284 285 287 286 287 287 285 286 286 287 288 287 287 290 291 290 292 292 290 292 287 286 285 285 285
282 282 283 283 282 283 283 284 283 282 281 280 280 279 281 282 283 283 282 283 284 286 285 286 285 284 285 285 286 287 288 288 290 293 289 285 286 286 286 286 285 284 282
281 282 282 282 282 282 283 283 282 283 281 279 279 279 278 279 279 280 280 280 282 283 283 285 286 287 286 286 284 283 284 284 285 284 285 285 285 285 284 284 283 282 279
279 280 281 281 282 282 281 281 283 282 282 281 281 280 280 279 279 280 280 280 281 281 282 283 284 285 283 283 282 282 281 281 282 283 283 283 284 283 282 282 283 281 278
278 279 280 280 280 280 280 280 279 282 282 282 281 280 279 278 278 280 280 280 282 283 282 282 283 283 282 281 280 280 279 280 281 280 282 281 281 281 280 280 279 279 278
280 280 280 280 280 280 280 280 280 279 278 279 280 279 278 278 279 279 279 280 280 282 281 281 281 281 280 279 279 279 279 279 279 279 279 280 280 279 278 278 278 278 278
281 281 281 280 281 280 280 280 279 278 278 278 279 279 277 277 278 278 278 278 278 278 280 280 281 280 280 279 279 279 279 278 279 278 279 278 279 279 278 278 278 278 278
280 280 280 280 280 279 279 278 278 278 277 277 277 276 276 277 276 276 277 276 276 277 279 280 280 280 280 279 279 279 278 277 277 278 277 277 278 278 278 278 279 279 280
279 280 279 280 278 278 278 278 277 277 277 276 276 277 275 275 274 274 274 275 275 275 277 279 280 280 280 279 279 278 278 277 278 277 278 278 278 277 279 279 277 277 277
279 279 278 278 278 278 277 278 277 277 276 276 276 276 275 275 274 274 274 274 274 275 276 277 278 279 280 280 279 279 278 277 278 277 278 279 278 278 277 277 277 277 277
278 278 278 278 278 277 277 277 277 276 276 276 276 275 275 275 274 273 273 274 274 274 275 275 276 276 278 278 279 280 278 278 279 279 278 279 279 278 277 277 276 276 276
278 277 276 277 277 277 277 277 277 276 276 276 276 275 275 274 274 273 273 273 273 273 274 274 274 273 274 276 277 277 278 279 279 279 279 279 278 277 277 276 277 277 277
276 275 276 275 276 276 276 277 277 276 276 275 275 275 274 274 273 273 272 272 272 272 272 273 272 273 273 273 273 275 276 276 277 277 277 276 275 275 274 275 275 275 275
275 274 275 275 275 275 275 275 275 275 275 275 274 274 273 273 272 272 271 271 270 270 270 271 271 271 271 272 273 273 273 274 275 276 276 275 274 274 273 273 273 273 274

GFSGL_sfc_thetae_150.txt.gz
Theta_e
289 290 290 290 292 291 296 297 298 304 310 313 317 320 323 324 323 319 319 319 320 321 324 324 324 326 325 324 324 325 324 324 318 321 322 324 323 324 323 325 323 315 311
289 289 290 290 290 291 292 296 297 298 306 308 311 313 316 319 319 322 322 321 322 322 322 323 324 324 323 324 325 325 325 324 322 318 320 319 322 324 320 320 319 319 320
288 288 289 289 289 289 290 293 296 297 299 302 306 308 311 313 312 309 308 311 313 314 314 318 322 323 322 323 324 323 324 324 324 321 320 312 309 311 308 308 312 310 309
288 288 288 288 288 289 289 291 293 296 296 298 302 304 307 302 301 300 301 302 303 306 310 314 314 318 321 321 322 323 323 322 322 321 320 307 305 304 306 306 301 300 303
287 286 286 288 288 289 289 290 290 293 294 295 297 299 303 298 295 294 295 296 298 300 303 307 311 311 303 304 319 321 321 320 319 317 316 299 298 295 302 301 306 297 293
287 286 286 286 287 288 289 290 290 291 293 293 294 296 296 294 291 291 291 292 296 298 300 303 306 305 303 299 298 297 306 320 318 316 311 304 303 304 303 301 299 291 292
286 286 286 286 286 287 288 288 289 289 291 291 292 293 293 294 290 290 288 291 296 297 298 299 299 301 299 300 296 295 296 295 295 316 315 308 307 306 306 299 297 295 295
285 285 286 286 286 286 287 287 288 288 289 289 290 291 291 292 289 288 288 290 292 293 294 294 294 293 293 293 293 292 294 301 308 306 314 318 315 310 309 307 302 291 286
284 284 285 285 285 285 286 285 286 287 286 287 288 288 289 289 288 287 287 288 288 288 290 290 291 290 290 290 289 289 289 293 295 296 298 300 299 300 304 297 292 292 285
283 284 285 285 285 284 284 285 285 285 285 286 286 287 287 286 287 286 285 286 285 285 287 287 288 288 287 287 287 287 287 290 295 297 293 296 300 299 294 305 296 295 285
284 284 284 284 284 284 283 284 283 283 283 283 283 284 285 285 285 285 284 282 282 284 284 285 286 287 286 286 287 286 287 289 289 291 295 297 293 298 299 301 298 300 288
283 283 283 283 283 283 282 283 283 282 281 280 280 281 282 282 284 283 282 282 282 281 283 285 285 285 285 286 286 287 287 286 288 289 292 291 292 293 296 293 291 292 291
282 281 282 283 283 283 282 282 282 282 280 279 279 278 278 280 280 281 280 281 281 280 282 283 284 284 285 285 286 286 285 287 287 288 291 293 293 295 289 286 286 286 286
280 280 281 281 281 282 282 282 281 280 279 279 278 277 277 277 277 277 278 279 280 280 279 279 281 283 285 285 285 285 285 285 285 286 288 286 286 288 288 287 287 286 285
279 279 280 280 281 280 281 281 281 282 281 278 278 278 276 274 276 278 279 278 279 279 280 280 282 283 283 283 283 283 283 283 282 283 284 283 284 285 285 287 286 285 283
278 279 280 280 279 280 280 280 283 283 282 282 281 280 278 278 279 280 280 280 281 282 280 280 280 281 281 281 280 279 281 281 281 281 282 282 283 285 284 285 286 286 284
277 279 280 279 279 279 279 278 277 280 281 281 281 280 278 278 279 279 279 279 280 280 278 277 278 279 279 279 278 278 278 279 280 280 280 281 281 280 282 282 282 283 281
277 280 279 279 279 279 279 278 278 277 276 277 280 278 277 278 278 278 278 277 274 276 276 276 277 277 277 278 278 277 278 279 279 279 279 279 280 280 280 279 280 280 279
278 279 279 279 279 279 279 278 278 277 276 276 276 275 275 278 277 277 277 273 272 272 273 274 277 277 277 277 277 278 278 278 278 278 279 279 279 279 278 279 279 279 279
278 279 278 279 279 278 278 277 276 276 276 275 275 274 274 274 272 272 272 272 271 272 272 273 275 276 277 277 277 277 278 277 277 277 277 278 279 279 278 278 278 278 279
278 278 278 278 278 277 277 277 277 276 275 275 275 275 273 273 272 271 271 271 271 271 272 272 273 275 275 276 277 277 276 276 277 277 277 278 278 278 279 280 279 279 278
277 277 277 277 277 277 277 277 277 276 275 275 275 275 273 273 272 272 271 271 272 272 272 272 272 273 274 275 275 276 276 276 277 277 278 277 277 277 278 278 278 278 279
276 276 276 276 277 276 277 277 276 276 275 275 274 274 273 273 272 271 271 271 271 271 271 271 271 271 272 274 275 276 275 276 278 279 278 278 277 277 278 277 277 277 277
275 275 274 275 275 275 275 275 276 275 275 274 274 273 272 272 271 271 270 270 270 270 270 270 270 270 271 272 273 274 276 276 277 277 278 278 277 277 277 277 277 277 277
275 274 273 273 273 273 273 273 274 273 274 273 273 272 272 271 270 270 269 269 269 269 268 268 269 269 270 271 272 273 274 274 275 276 276 275 275 275 275 275 275 275 276
274 273 272 272 272 272 272 272 272 272 272 272 271 271 270 269 269 268 268 267 268 267 267 267 267 268 269 270 271 272 273 273 273 274 274 274 274 274 274 274 274 274 274